GFSWCAN_sfc_thetae_000.txt.gz
Theta_e
301 301 301 301 301 301 301 301 300 300 300 301 301 303 304 305 306 305 305 307 305 299 299 300 299 295 296 296 292 296 295 296 295 292 291 291 289 288 287 287 287 287 288 287 288 282 280 293 291 287 291 292 292 292
301 301 301 301 301 301 300 300 300 299 300 300 301 303 304 305 306 307 303 307 308 301 300 304 303 302 301 301 298 297 296 297 298 295 293 294 287 288 292 283 289 288 292 291 289 288 293 292 293 294 294 292 291 291
301 301 301 301 300 300 300 300 300 300 300 300 301 302 303 304 306 306 303 305 304 300 300 299 298 303 305 305 306 296 298 301 299 300 294 291 288 290 287 288 287 290 294 293 291 291 291 292 293 295 294 293 292 293
300 301 301 300 300 300 300 300 300 300 300 300 301 302 302 303 305 305 302 305 305 301 295 297 303 300 304 304 304 304 302 303 302 302 297 291 290 291 288 288 289 292 294 290 289 289 289 291 292 292 292 292 292 292
301 300 300 300 300 299 300 300 300 300 300 300 300 301 302 303 303 304 304 306 307 302 296 297 300 301 303 303 303 303 302 301 300 299 297 294 293 293 290 290 288 290 291 291 289 293 293 291 293 292 292 291 292 291
300 301 301 300 300 300 300 300 300 299 300 299 300 301 302 302 302 301 300 306 307 306 298 293 301 300 302 303 302 301 301 300 300 299 298 299 297 295 288 287 293 293 293 295 294 293 291 292 291 291 291 292 292 291
300 301 300 300 300 299 299 299 299 299 298 299 300 302 302 302 299 296 297 302 308 307 297 291 293 300 301 301 301 302 302 301 300 299 297 296 296 296 290 288 295 294 294 292 293 293 290 291 290 291 291 291 291 289
301 300 300 299 299 299 299 299 298 298 299 300 301 302 301 301 301 299 304 306 307 302 300 288 290 294 301 298 297 302 299 300 298 297 295 294 294 292 289 293 291 290 291 291 291 291 292 290 290 288 289 289 287 285
300 299 299 299 299 298 298 298 297 298 299 300 300 301 299 299 298 303 307 307 305 302 293 291 287 287 298 296 297 296 299 295 297 293 292 292 290 286 291 293 290 290 291 289 288 289 290 289 287 287 287 286 285 284
299 299 299 298 298 298 297 297 297 297 298 299 298 295 292 299 307 307 303 299 295 297 296 293 292 291 296 294 292 293 292 291 286 292 293 290 288 294 295 295 293 292 290 289 287 282 284 284 284 284 285 286 285 285
299 299 298 298 298 297 297 297 296 297 297 293 288 288 289 295 301 299 293 291 293 289 293 293 294 291 294 291 291 291 287 287 285 285 290 286 288 291 293 294 292 291 291 291 291 290 289 288 285 284 284 284 286 286
299 298 298 298 298 297 297 296 297 292 291 292 292 293 289 290 290 286 285 288 289 287 291 292 291 292 291 294 290 289 283 284 284 289 286 284 288 287 288 289 289 290 289 289 290 288 287 286 286 285 284 283 283 283
298 298 298 298 298 296 296 297 297 297 297 293 288 284 285 286 283 283 283 285 286 289 289 289 287 290 290 290 286 284 285 285 283 282 282 285 283 285 286 286 286 288 288 286 285 285 285 284 285 285 283 283 283 282
298 298 298 298 297 295 297 297 297 296 292 284 282 280 282 282 283 284 285 286 288 289 289 290 286 288 289 284 284 278 284 282 278 277 278 282 281 287 286 286 287 284 285 284 284 284 283 283 282 283 283 283 283 281
298 298 299 296 295 296 296 296 296 294 288 282 284 279 283 286 284 285 283 286 287 292 291 288 287 288 285 284 282 282 280 277 278 279 281 280 276 282 283 283 283 283 284 283 284 284 284 283 282 279 279 279 280 279
297 297 290 295 296 296 295 295 292 291 285 282 283 282 286 285 284 285 285 286 289 293 288 288 284 283 283 283 277 273 275 275 281 280 280 279 282 282 281 283 283 285 285 285 285 284 283 282 281 278 278 277 277 277
296 287 293 296 296 295 294 289 287 284 283 284 284 286 285 285 284 285 288 290 294 291 286 282 279 278 276 273 273 275 276 280 277 280 275 276 279 281 282 283 283 285 285 284 283 282 280 279 278 277 275 273 275 274
287 289 295 296 294 290 287 287 284 283 280 282 281 283 286 287 286 287 290 292 291 286 284 282 281 277 275 273 273 278 276 280 275 276 277 280 280 281 283 282 283 283 283 282 281 279 278 277 276 274 273 273 272 272
291 293 295 294 292 287 284 284 285 274 276 283 282 284 285 286 289 289 290 293 290 289 286 283 279 275 277 276 275 278 269 275 279 280 279 280 281 281 281 282 282 282 281 280 280 279 277 277 275 275 274 274 273 272
295 293 294 293 292 284 281 277 282 279 271 275 283 280 283 284 285 286 288 287 287 286 285 279 279 281 281 281 279 277 276 279 282 278 277 278 279 280 281 282 281 281 279 279 278 278 275 274 275 275 274 274 273 273
289 288 290 286 280 285 281 277 272 279 281 277 274 279 282 285 285 285 285 285 286 286 285 284 281 279 281 281 283 282 282 284 283 282 280 276 278 279 279 279 282 281 280 278 277 278 276 274 274 276 275 274 274 273
284 290 283 280 274 270 273 279 271 274 278 272 273 277 276 278 281 282 284 282 280 279 280 282 281 280 280 280 281 282 283 283 282 283 283 282 278 278 278 279 280 279 279 277 276 274 273 274 274 274 274 274 274 273
287 281 272 271 270 268 270 272 269 267 269 269 271 273 276 276 279 283 277 277 277 280 280 279 277 278 279 280 282 283 283 282 281 281 281 280 280 280 280 279 279 277 274 273 274 274 273 277 276 273 274 273 273 272
283 271 270 268 266 265 271 264 271 268 267 269 268 270 274 276 279 276 273 272 277 280 279 279 279 279 280 279 278 279 281 282 280 280 281 279 277 276 277 276 276 275 275 275 275 275 274 274 276 273 271 270 269 269
270 266 265 260 260 264 260 263 261 265 263 265 267 269 274 277 275 273 272 271 272 273 273 278 279 279 277 276 277 277 280 281 279 276 277 277 275 274 273 273 273 274 275 274 273 272 271 271 270 269 268 267 265 263
263 262 263 261 260 264 263 264 260 261 265 265 269 272 275 275 272 269 268 267 268 270 269 271 272 277 276 277 276 276 277 280 279 276 276 279 278 275 273 272 271 271 273 274 273 271 270 269 268 267 268 270 272 263
262 262 271 277 272 272 267 269 269 264 261 263 268 268 271 270 269 268 268 268 267 269 270 272 275 274 273 273 274 275 275 276 276 274 275 276 276 277 277 275 273 271 274 273 272 271 269 268 268 267 265 264 262 261
270 269 264 263 265 263 262 261 260 260 263 269 269 266 266 266 266 265 266 268 268 269 271 273 273 273 273 273 274 273 273 273 273 274 273 273 274 274 274 273 274 276 273 272 271 271 270 269 267 265 264 263 262 261
273 271 268 259 260 260 260 262 262 265 269 263 262 265 265 265 263 263 266 267 268 272 271 271 271 273 272 272 273 273 275 276 276 272 270 269 269 269 273 273 273 273 273 273 275 270 268 268 267 266 264 264 262 259
271 273 264 257 259 261 261 262 259 269 267 267 269 266 265 265 265 266 266 267 268 269 271 272 273 273 272 272 271 271 271 273 275 274 271 270 268 270 271 271 271 271 272 272 272 273 275 269 268 263 262 261 261 258
268 265 261 259 259 257 259 263 263 272 261 258 262 262 265 263 266 267 265 265 267 271 272 271 272 272 272 272 272 271 269 270 271 271 271 270 270 270 270 270 270 270 270 269 268 267 265 262 260 259 258 256 256 256
266 261 261 259 258 260 260 258 255 255 255 257 258 260 264 267 266 266 265 266 270 270 273 272 271 270 271 271 272 273 273 271 271 271 270 270 269 269 269 268 268 268 267 265 264 263 261 259 259 258 257 254 253 253
264 266 257 255 256 258 260 258 257 255 254 253 256 259 264 266 267 265 267 267 266 267 268 269 270 270 270 270 270 271 271 270 272 275 275 274 273 271 268 267 267 266 265 264 263 262 260 258 257 257 255 253 252 253

GFSWCAN_sfc_thetae_003.txt.gz
Theta_e
301 302 302 302 301 301 301 301 301 301 301 300 301 301 303 304 305 304 301 304 304 299 299 299 300 296 295 295 291 296 294 296 295 291 290 289 287 287 284 284 285 286 287 283 283 281 278 292 291 288 290 290 291 292
302 302 301 302 301 301 301 301 300 300 301 300 301 301 302 303 305 305 300 307 308 301 298 303 301 301 302 302 298 298 296 296 298 294 293 293 288 287 287 282 287 286 290 287 287 286 292 292 291 292 292 291 289 290
301 301 301 301 301 301 300 300 300 300 300 300 301 301 302 303 304 304 301 305 305 300 299 299 299 303 306 306 306 296 298 300 299 300 297 293 287 290 287 286 285 289 292 290 291 290 290 291 292 292 292 290 291 292
301 301 301 301 301 301 301 300 300 300 300 300 301 300 301 302 304 303 299 302 303 301 294 295 302 298 302 304 304 304 302 303 302 301 297 290 288 290 287 288 288 291 292 290 289 288 289 291 291 291 290 291 291 291
301 301 301 301 301 300 300 300 300 300 300 300 299 300 301 302 303 301 300 302 305 302 295 297 299 299 302 303 302 303 302 300 300 299 297 294 292 291 288 288 287 290 292 290 289 293 293 292 292 291 291 290 290 289
300 301 300 300 300 299 300 300 300 300 299 298 299 300 300 301 302 298 296 305 307 307 298 293 301 300 301 303 302 302 301 300 300 299 298 299 299 296 286 285 293 292 293 295 294 291 290 290 291 291 290 290 290 289
300 301 300 299 299 299 299 299 299 298 298 298 299 299 300 301 298 292 295 300 303 305 298 291 293 300 301 301 302 301 303 301 300 299 298 297 297 298 292 286 293 293 292 291 291 292 290 289 289 290 290 290 290 288
300 300 299 299 299 298 298 298 298 298 297 297 298 299 300 300 300 295 300 303 303 302 300 289 290 295 300 298 297 302 299 300 299 297 297 295 293 294 290 292 291 290 290 290 289 290 291 289 289 287 288 289 287 286
299 299 299 299 298 298 298 298 297 297 297 299 299 300 299 295 294 299 307 306 306 302 293 291 288 287 299 297 297 297 298 295 298 295 294 293 290 288 292 293 291 290 291 288 287 288 288 288 286 287 287 286 285 284
299 299 299 299 298 298 298 298 297 296 298 297 294 291 291 293 296 303 302 298 296 296 296 293 293 291 296 295 292 294 293 292 287 292 293 290 290 294 295 294 294 291 289 288 286 281 282 282 284 284 285 286 287 284
298 299 298 298 298 298 298 297 297 297 296 289 289 286 291 295 293 298 290 291 293 289 294 291 292 291 294 291 291 291 287 287 283 285 290 286 288 290 292 294 292 290 290 289 289 288 288 288 285 284 283 283 283 283
298 298 298 298 298 298 297 296 297 293 291 291 291 294 289 287 288 286 285 287 289 288 291 292 290 291 291 294 291 289 286 287 284 287 286 284 288 285 288 290 289 289 289 289 288 287 286 286 285 284 284 283 283 283
298 298 298 298 298 298 296 297 297 296 296 293 289 284 283 284 282 283 281 285 285 289 289 289 286 290 289 291 286 285 285 285 283 282 282 284 282 284 285 286 286 288 287 286 285 285 285 283 284 284 282 283 282 281
297 298 298 298 297 296 297 297 296 295 292 284 281 277 279 281 283 284 284 279 283 288 290 289 287 288 288 285 284 278 285 283 279 278 278 279 280 284 285 285 286 284 284 284 283 284 283 283 282 282 283 283 282 280
298 298 298 295 296 296 296 295 296 294 288 282 283 278 282 285 285 285 285 285 287 290 290 288 286 289 285 284 281 283 281 278 279 280 279 279 275 280 283 284 283 282 283 283 283 283 282 282 281 280 280 281 281 280
298 296 289 295 296 296 295 292 292 291 286 282 282 281 286 284 285 285 285 285 289 291 288 289 285 283 284 284 277 274 276 276 282 280 277 276 281 281 281 282 282 283 284 284 284 284 283 283 281 279 279 279 278 278
297 287 294 296 296 295 294 289 287 284 283 282 283 286 284 284 284 285 288 288 294 289 288 285 284 281 278 275 274 276 278 283 280 276 276 275 277 280 281 281 282 284 284 283 283 282 280 280 279 279 276 274 275 274
287 289 295 296 293 288 285 287 284 281 279 281 279 278 284 285 286 287 289 291 290 287 285 285 281 276 275 274 274 279 279 280 277 274 276 279 279 280 282 281 282 282 282 282 281 280 280 278 276 274 273 273 272 273
290 292 294 294 290 281 276 283 285 277 272 282 282 279 284 285 287 289 289 290 291 290 286 284 278 275 277 277 277 274 274 276 279 279 278 279 280 280 281 281 281 280 280 280 280 279 277 277 275 275 274 274 272 272
295 293 293 292 290 278 277 278 280 279 276 273 280 281 279 281 285 286 286 287 286 286 285 284 281 280 280 281 280 280 278 279 279 277 277 277 278 278 280 281 280 279 278 278 277 278 275 274 274 274 274 274 273 273
288 287 289 284 279 284 281 278 273 278 280 278 274 274 278 279 284 284 285 285 285 285 285 284 282 280 282 282 283 283 282 283 282 281 278 274 277 278 278 279 280 280 279 278 276 277 276 274 273 276 275 274 273 272
284 289 282 279 272 268 275 280 271 273 277 276 272 270 276 274 275 278 282 282 280 278 280 281 282 281 281 281 281 282 283 282 282 282 283 282 278 277 279 280 280 278 279 279 277 275 273 274 274 274 274 274 274 273
285 281 272 270 269 268 268 270 267 266 271 267 268 266 266 269 276 281 277 276 277 280 280 279 279 280 280 281 282 282 282 281 279 279 280 279 279 280 279 279 280 278 275 274 275 274 274 277 276 273 274 273 273 273
282 270 271 268 266 264 270 262 269 265 263 266 262 264 265 267 272 275 275 274 275 276 275 276 280 279 280 279 278 280 281 281 280 279 280 279 277 277 278 278 278 278 276 276 276 276 275 274 276 273 272 272 271 269
271 266 265 261 260 263 259 261 258 263 262 261 262 262 267 273 270 268 271 270 270 272 271 272 275 279 278 277 277 278 281 281 280 278 277 278 275 275 274 275 275 276 278 275 274 274 273 271 271 270 270 269 266 264
264 263 263 261 259 263 263 261 259 261 261 260 262 266 268 272 268 263 266 266 268 269 269 269 269 271 276 277 277 277 278 280 279 276 276 278 278 276 274 273 273 272 275 276 274 271 271 271 270 269 268 270 272 264
264 263 270 276 272 271 267 268 268 263 259 259 261 262 264 266 266 266 268 268 267 269 269 269 271 272 274 274 275 275 276 277 277 275 277 278 278 279 278 276 274 273 275 275 274 273 271 270 269 268 267 265 264 265
271 270 265 264 265 263 261 261 259 260 261 267 267 260 261 268 269 264 263 265 267 268 268 272 273 273 273 273 274 274 273 274 274 275 275 274 275 275 275 275 275 277 275 274 273 272 271 270 268 267 265 264 263 262
273 272 267 259 259 261 261 263 262 265 269 262 261 262 262 264 261 260 262 265 266 267 270 271 271 273 272 273 273 274 275 276 276 273 271 270 270 271 274 274 274 274 274 274 276 272 269 269 268 267 266 264 260 258
268 271 264 258 260 262 261 262 260 268 267 267 268 264 264 261 261 263 264 265 266 267 271 272 272 273 272 272 271 271 272 274 276 276 273 270 269 271 272 273 273 273 273 273 273 274 276 271 269 265 263 262 261 260
267 266 260 259 259 257 257 261 262 271 260 257 259 260 260 259 262 265 265 265 267 270 272 271 271 272 273 273 273 272 270 271 272 273 272 272 272 272 272 272 273 273 272 271 269 268 266 264 263 262 261 260 260 257
264 260 261 259 258 259 260 256 254 255 255 257 258 256 258 262 263 265 266 266 270 269 273 272 270 269 271 271 273 273 274 272 272 272 271 271 270 270 270 270 270 270 269 267 266 265 263 262 261 260 259 257 255 254
261 259 256 255 256 257 259 258 257 254 255 253 256 257 261 264 263 265 267 268 267 268 268 269 269 270 270 270 271 271 272 271 274 276 275 274 274 272 269 269 268 267 266 265 264 263 262 260 259 258 256 254 252 252

GFSWCAN_sfc_thetae_006.txt.gz
Theta_e
301 302 303 302 302 302 302 301 301 301 301 301 301 301 301 303 305 303 300 305 303 297 298 300 300 295 294 294 291 295 294 295 294 290 290 290 288 286 282 284 284 285 283 283 283 280 278 291 291 287 291 290 290 291
301 302 302 302 302 302 302 301 301 301 301 301 301 301 301 301 304 304 297 304 306 299 297 301 301 301 301 301 298 297 296 296 297 294 291 293 289 285 285 281 285 284 288 286 286 285 291 291 291 293 292 291 289 290
301 302 302 302 302 301 301 301 301 301 301 301 301 301 300 301 303 303 298 301 303 300 299 297 297 301 305 305 305 296 298 300 299 301 296 292 289 289 284 285 283 287 291 289 289 289 290 290 291 290 290 289 290 291
301 302 301 301 301 300 300 300 300 301 300 301 301 299 300 301 302 302 297 299 298 300 294 293 301 298 301 303 303 304 302 303 302 301 298 293 290 290 287 288 288 290 290 289 289 290 290 290 290 289 289 290 290 291
301 301 301 300 300 300 300 300 299 299 299 298 298 299 300 300 301 300 298 299 301 299 295 296 298 298 301 301 301 303 302 300 299 297 296 294 292 290 288 288 286 291 292 290 289 293 292 291 290 290 289 289 290 289
301 300 301 300 300 299 299 299 298 298 298 298 298 298 298 299 300 295 293 304 306 305 298 293 301 299 301 302 302 301 301 300 299 298 298 299 298 294 286 285 292 291 292 294 294 290 289 289 290 289 289 289 289 288
301 300 300 300 300 299 299 298 298 298 298 297 298 298 298 298 295 291 292 299 301 300 298 291 290 300 301 301 301 301 302 300 300 298 298 297 297 297 293 289 293 293 292 290 290 291 289 289 289 289 289 289 289 287
300 299 299 299 300 299 299 298 298 298 297 298 298 298 299 299 298 294 298 301 301 297 300 289 290 294 301 297 296 302 299 300 299 297 297 295 295 295 290 293 290 289 289 289 288 289 291 289 288 287 288 288 286 286
299 298 299 299 299 299 299 299 298 297 298 300 298 299 299 296 292 296 299 300 302 301 292 291 287 285 298 297 296 298 299 294 298 295 295 294 292 288 293 293 292 290 291 288 287 288 288 288 286 287 287 286 286 285
300 298 299 298 298 299 299 299 297 297 298 297 294 290 290 291 297 297 299 298 296 297 297 292 292 290 295 295 293 294 294 291 286 292 293 291 290 295 295 295 295 292 289 288 286 282 283 284 286 286 286 287 286 286
299 298 297 298 298 299 299 298 297 297 296 289 285 287 292 296 293 296 290 291 292 289 294 293 290 291 293 290 291 291 288 287 285 285 289 286 287 291 291 294 293 291 290 290 290 289 289 289 286 285 284 284 284 283
299 298 298 298 298 298 297 297 297 291 288 291 290 293 291 287 286 285 285 287 289 285 291 292 290 290 290 293 291 289 284 286 284 286 286 284 286 286 287 289 289 289 289 289 288 288 287 287 287 285 284 283 282 281
299 298 298 298 298 297 297 297 296 296 295 292 288 284 283 283 281 283 281 284 286 288 289 289 286 288 288 288 287 286 285 284 282 283 283 284 282 285 285 286 286 287 288 286 285 285 285 284 285 284 282 282 281 280
298 298 298 298 297 297 297 296 295 294 292 283 279 274 279 280 283 284 283 284 285 286 288 289 282 284 289 283 284 284 286 284 281 279 278 279 279 283 285 285 285 285 285 284 283 283 283 283 282 282 282 282 281 280
298 298 298 295 296 297 296 295 295 293 288 281 281 274 278 285 285 285 285 285 287 290 288 288 286 287 284 280 281 284 281 279 279 279 279 278 275 280 283 283 283 282 282 281 282 282 281 282 282 281 281 281 281 280
298 297 289 295 297 296 294 291 292 291 286 283 279 275 284 280 279 285 285 285 288 291 288 288 286 285 285 280 278 278 276 276 281 278 277 274 280 281 281 282 281 282 282 283 283 283 282 282 281 280 280 280 279 278
297 287 293 296 296 294 293 289 287 284 282 281 282 285 283 281 284 284 287 288 293 289 286 286 284 284 279 276 275 277 279 282 282 275 281 275 275 279 280 281 282 282 282 282 282 282 281 281 281 280 277 275 276 275
290 289 295 296 293 288 283 286 284 281 279 281 280 272 281 281 283 285 288 291 289 287 285 285 282 274 274 274 275 279 280 278 279 275 276 278 279 279 281 280 281 282 281 280 281 281 281 281 279 276 274 274 273 273
293 291 295 294 290 280 274 276 284 277 278 280 282 282 280 281 283 285 287 289 290 291 287 284 282 276 277 277 276 274 273 276 279 278 277 278 279 280 280 279 279 279 279 279 281 281 279 279 277 276 275 275 273 273
295 293 293 291 289 275 270 276 279 279 276 272 280 279 280 280 280 282 285 286 286 285 284 283 284 282 280 279 277 278 277 279 279 277 277 277 277 277 278 278 279 278 277 276 277 278 275 274 275 275 274 274 274 273
288 287 288 284 279 278 276 278 276 277 278 277 279 276 276 270 280 284 285 284 284 284 284 283 283 282 283 281 282 282 281 280 280 281 279 273 276 278 277 277 278 278 278 277 276 277 276 274 274 276 275 274 273 273
284 288 281 278 272 267 274 280 275 272 275 275 273 269 275 275 269 276 280 280 279 278 279 279 280 280 280 282 282 282 282 282 281 281 282 281 277 277 277 278 278 276 276 277 277 275 274 275 275 274 274 274 274 273
285 281 272 270 270 267 267 269 267 270 271 268 264 264 262 262 267 271 274 275 277 277 277 278 277 280 280 281 282 282 282 281 279 279 279 278 278 279 279 278 279 276 274 274 276 275 275 277 277 274 274 273 273 273
282 270 271 269 266 264 269 262 268 264 262 263 261 263 262 262 268 265 266 268 273 276 274 272 274 276 280 281 279 280 280 280 278 278 279 279 278 277 278 278 278 279 277 276 276 277 276 275 277 274 273 272 271 270
272 267 265 262 259 263 260 259 257 262 261 259 267 263 263 267 265 262 264 263 264 271 271 271 271 272 272 277 278 279 281 280 278 277 276 278 276 276 275 276 277 277 278 276 275 275 275 273 273 272 271 270 269 268
265 263 264 263 260 263 263 260 258 260 260 259 261 262 261 266 264 263 263 264 266 265 268 268 268 269 270 273 275 277 278 280 278 276 275 278 278 277 275 274 274 274 276 278 276 273 272 272 271 271 271 272 273 265
263 264 269 275 271 270 266 267 267 263 260 264 259 260 260 259 259 265 268 267 265 265 267 268 268 268 269 271 275 276 277 276 275 275 278 279 279 279 278 276 274 274 277 276 275 274 272 271 271 271 269 267 265 265
271 270 265 264 265 263 261 261 259 260 262 266 266 259 259 262 264 262 261 261 262 266 266 267 270 272 272 273 274 275 274 275 274 275 275 275 276 276 277 276 277 279 277 276 275 274 273 272 271 269 267 265 263 262
272 270 268 262 259 263 261 263 262 265 269 264 263 262 262 264 259 258 261 260 261 264 265 268 271 272 272 273 273 274 274 275 274 272 270 269 270 272 276 276 276 276 276 275 277 274 271 271 269 266 265 263 262 261
267 269 264 259 261 263 262 262 258 262 266 266 268 263 263 262 260 258 259 258 259 263 265 269 271 272 272 272 271 271 272 274 278 275 272 270 270 273 274 274 274 274 274 274 274 275 276 271 270 266 264 263 262 260
269 265 260 260 261 257 257 260 261 270 259 256 258 259 260 259 261 259 258 259 264 265 268 270 271 271 272 272 272 272 270 272 273 273 273 273 273 273 273 274 274 274 274 272 270 269 268 266 265 263 262 261 262 258
265 262 262 259 258 258 258 255 254 255 254 256 256 255 257 259 259 260 260 263 267 269 272 270 269 269 270 271 273 274 275 273 273 273 272 272 272 272 272 272 272 271 270 268 267 267 266 265 264 263 261 259 258 258
261 257 254 254 255 256 258 257 256 254 254 253 255 257 256 260 261 261 262 266 267 268 268 268 269 270 270 271 271 272 273 273 275 277 277 276 275 273 271 270 270 269 268 267 266 265 264 263 262 261 259 258 257 257

GFSWCAN_sfc_thetae_009.txt.gz
Theta_e
300 301 302 302 302 302 301 301 301 301 301 301 301 301 302 301 302 301 299 304 297 298 297 299 298 294 293 293 291 293 293 294 294 289 289 288 285 286 282 284 284 284 283 282 285 283 278 291 293 289 291 291 291 294
300 301 302 302 302 301 301 301 301 301 301 301 301 301 300 300 301 303 296 301 301 299 298 302 302 301 301 300 297 297 295 296 296 292 292 293 289 286 284 281 285 284 287 285 286 285 291 292 292 293 292 291 291 292
300 302 302 301 301 300 300 300 300 299 300 300 300 299 299 300 301 301 297 298 298 299 296 296 296 302 303 303 305 296 296 300 298 301 297 293 289 289 283 284 283 287 290 289 289 290 291 292 292 291 290 290 291 291
300 302 302 301 301 300 300 300 299 299 299 299 299 299 299 299 300 300 296 298 296 294 293 292 300 296 301 303 303 304 302 303 302 301 296 294 288 290 286 287 287 290 291 290 289 291 291 291 291 290 289 290 289 290
300 301 301 300 300 300 300 299 299 299 299 298 298 298 299 299 299 298 296 298 299 294 293 295 297 297 300 301 301 302 302 300 299 296 294 293 294 289 286 286 286 290 292 290 289 293 292 291 290 290 289 288 289 289
300 301 300 299 300 300 300 299 299 299 299 298 298 297 298 298 298 294 290 300 301 301 296 291 300 297 301 302 300 300 300 300 299 297 296 299 298 294 286 285 293 292 292 294 293 290 290 289 290 290 288 288 289 288
300 301 299 299 300 299 299 299 299 299 299 298 298 298 298 299 295 290 290 297 299 298 296 290 290 300 301 301 300 301 302 300 299 297 295 297 297 297 293 287 295 294 294 292 291 291 289 289 289 289 289 289 289 287
299 301 300 298 299 299 299 299 299 299 299 298 298 298 299 299 298 293 297 300 300 295 298 289 289 293 301 296 295 301 299 299 299 297 297 295 295 295 291 295 293 290 290 290 289 289 290 289 288 287 288 288 286 285
299 301 299 298 298 298 299 299 299 299 297 298 298 298 298 295 291 294 299 299 300 297 292 291 287 283 299 297 296 298 299 293 298 294 295 294 292 289 293 293 292 290 290 291 287 288 288 288 287 287 287 286 285 285
299 300 299 298 298 298 299 299 298 297 298 297 293 289 288 291 297 297 299 295 294 297 297 292 291 290 295 293 293 294 294 292 287 293 293 290 291 296 296 295 295 292 289 288 286 282 283 284 286 286 286 287 286 286
299 300 299 298 298 298 299 297 298 297 294 288 285 285 291 296 294 292 289 291 292 289 295 291 289 290 293 290 292 290 288 287 286 285 289 287 286 290 290 291 295 292 290 290 290 290 290 290 288 286 285 286 285 285
298 300 299 299 298 299 298 297 297 290 289 290 290 293 292 287 285 284 285 288 288 286 291 292 290 289 290 291 291 289 283 286 284 284 286 284 286 286 286 289 290 290 289 290 289 289 289 289 288 287 285 284 283 282
298 300 299 298 299 298 297 297 297 295 295 291 288 281 281 283 281 282 281 284 286 288 289 289 287 290 288 288 286 283 284 284 282 283 283 282 284 285 286 287 287 288 289 287 286 286 286 285 285 285 282 282 282 280
299 299 298 298 298 297 297 296 295 295 291 280 280 271 280 281 281 283 283 284 286 286 288 289 287 287 287 282 283 286 284 284 281 279 275 279 280 283 284 284 286 285 285 284 283 284 284 283 282 282 282 282 281 280
299 299 298 296 296 297 296 295 295 293 287 281 280 270 279 284 285 285 285 285 287 289 289 288 287 286 279 283 282 284 282 280 282 278 278 277 276 279 283 283 283 282 282 281 282 282 281 282 281 279 280 281 281 279
299 297 289 295 297 296 294 291 291 291 285 283 281 274 283 274 274 284 284 284 289 291 288 288 286 285 284 283 279 280 279 278 281 280 277 275 280 282 282 283 282 282 282 282 282 282 282 282 281 280 280 280 280 279
297 287 293 296 297 294 292 287 286 284 282 280 281 285 283 280 279 283 284 286 292 288 286 286 284 285 280 276 277 278 278 283 284 278 277 279 275 279 281 282 282 282 282 282 282 282 281 281 281 280 277 277 276 276
289 289 295 296 292 287 283 279 283 281 279 281 280 280 282 280 277 280 283 288 287 285 285 284 282 277 274 274 276 280 280 276 280 280 276 278 279 279 281 281 281 281 281 280 281 281 281 281 280 277 276 275 274 273
292 291 295 293 289 279 273 275 281 276 276 280 281 282 281 281 281 281 282 286 288 289 286 284 282 276 276 275 275 277 275 275 279 279 277 278 279 279 280 279 278 278 279 279 281 282 281 280 278 277 276 276 274 273
295 294 292 291 289 275 269 271 281 278 273 276 279 278 279 278 279 277 279 284 285 284 283 283 283 282 279 278 276 279 281 279 278 278 278 277 276 274 277 278 278 278 276 276 278 279 277 276 276 276 275 275 274 273
288 287 288 284 278 276 274 276 276 277 278 276 277 277 275 277 276 277 281 283 282 283 283 281 280 280 281 282 283 281 282 281 280 280 280 273 276 275 275 276 277 278 277 277 276 278 278 275 275 277 276 274 273 272
285 288 281 279 274 269 274 280 275 273 272 269 273 272 273 274 275 270 277 277 276 275 277 276 277 276 276 279 280 281 282 282 282 281 282 281 276 275 276 277 277 276 277 277 278 276 275 276 275 274 274 274 275 274
285 281 272 272 272 268 266 269 267 270 270 265 265 265 264 265 266 268 276 271 270 272 275 275 275 276 276 279 282 282 283 281 280 280 280 278 278 277 277 277 278 277 275 275 276 276 275 277 277 274 275 274 274 274
282 271 272 270 268 264 269 261 267 263 262 263 269 261 261 260 267 264 271 265 270 273 271 268 271 272 275 277 278 279 281 281 280 279 279 278 276 276 278 277 278 278 277 277 277 276 276 275 277 274 274 273 272 270
274 270 268 264 261 263 261 260 257 262 261 258 268 264 261 269 267 260 265 264 261 269 267 267 269 270 270 272 274 276 280 280 279 278 278 279 277 276 275 276 276 277 278 277 276 275 276 275 275 274 272 271 270 269
269 266 266 266 259 263 263 260 258 260 259 262 264 260 258 264 264 265 264 262 266 265 264 264 266 267 268 271 271 272 275 278 279 278 277 278 278 277 275 274 274 275 279 278 277 274 274 274 273 272 271 273 274 268
267 267 269 274 271 269 266 266 267 262 260 260 259 260 259 259 258 265 265 264 263 261 261 262 264 265 266 268 272 274 276 277 276 277 278 279 279 279 278 276 275 276 279 278 277 275 274 273 273 272 272 270 269 269
273 271 266 265 264 262 261 261 260 261 262 266 265 259 260 262 265 264 263 260 259 257 259 263 265 266 267 269 272 274 274 275 275 276 276 276 277 276 277 277 278 280 278 277 277 276 275 274 272 271 269 268 266 267
271 269 268 263 258 263 262 263 263 265 269 265 264 262 263 265 261 259 261 259 255 256 258 261 264 264 268 271 273 274 274 274 273 272 271 270 270 273 277 278 278 277 278 277 279 276 274 273 271 269 268 266 264 263
268 267 263 260 262 263 263 262 259 259 265 266 267 264 264 262 260 257 258 257 257 259 258 260 264 267 268 269 270 271 273 273 274 275 272 271 271 274 275 275 275 276 276 275 275 276 277 272 271 267 265 264 263 262
267 263 260 260 261 257 256 259 259 269 258 255 257 259 260 260 262 258 257 256 257 259 258 262 264 265 268 269 271 271 271 272 275 275 274 274 274 274 275 275 276 276 276 273 271 270 269 267 266 265 264 263 264 262
265 261 261 260 258 258 257 254 253 255 254 255 256 254 256 258 259 259 258 257 259 262 266 267 266 267 270 271 272 274 275 273 274 274 274 274 274 274 274 274 274 273 272 270 269 268 268 267 266 265 264 262 261 261
258 256 254 256 256 256 258 256 256 254 254 253 255 256 255 259 261 261 260 260 262 264 266 268 269 270 271 272 272 273 273 273 275 277 277 277 276 275 272 272 271 271 270 269 268 267 266 265 264 263 262 261 260 259

GFSWCAN_sfc_thetae_012.txt.gz
Theta_e
300 300 301 303 302 302 301 301 301 300 300 300 301 301 300 300 301 300 298 302 295 293 299 302 302 299 298 299 294 297 296 296 295 289 289 289 289 291 290 291 291 290 288 286 288 284 285 296 297 293 296 298 296 297
300 300 301 303 301 302 301 301 300 300 299 299 299 299 299 300 300 300 295 300 300 293 299 304 305 305 304 304 300 299 298 297 297 292 292 292 289 292 291 288 293 289 294 292 292 293 298 299 299 300 298 296 296 297
299 300 302 302 301 302 301 300 300 300 299 299 299 299 299 299 299 299 296 298 295 294 301 301 301 305 307 306 309 299 298 302 300 302 297 294 290 293 290 291 292 295 297 295 294 298 298 299 300 298 296 295 296 297
298 299 301 302 301 300 300 300 300 300 299 299 299 299 299 299 299 299 296 297 295 292 292 296 304 303 306 306 306 306 304 305 303 301 296 293 291 297 294 293 293 297 296 296 296 299 300 299 298 296 294 294 294 295
299 299 301 302 300 300 300 300 300 299 299 299 299 299 298 298 299 299 297 297 297 292 291 298 302 302 304 305 304 305 304 303 300 297 295 292 298 292 295 294 293 297 298 296 296 299 299 298 296 295 294 293 293 291
298 299 300 301 299 299 300 300 299 299 299 299 299 299 298 299 298 296 291 298 298 296 291 293 302 300 302 303 303 302 302 301 302 297 296 298 302 295 293 293 299 300 300 301 301 298 296 295 295 295 294 293 293 292
298 299 300 301 300 299 299 299 299 299 299 299 299 298 298 298 298 290 290 295 298 297 291 292 292 301 302 302 301 300 303 302 300 298 295 296 298 297 294 292 299 301 301 299 298 296 295 294 295 294 293 292 292 290
298 298 300 301 300 298 298 298 299 299 299 298 298 298 298 299 297 293 298 300 300 295 295 290 291 295 302 297 296 303 299 300 299 297 298 296 296 296 292 299 301 300 297 297 297 295 295 295 293 292 291 291 289 288
297 298 299 301 300 299 298 298 298 298 298 298 297 298 299 296 292 294 298 300 299 295 292 292 288 288 300 298 299 299 301 294 299 295 295 295 294 290 296 299 300 301 298 298 293 293 293 293 291 290 291 290 289 288
297 298 299 300 299 298 298 299 299 298 297 296 294 291 288 291 297 297 296 293 293 294 296 293 295 292 297 297 295 295 296 293 288 293 294 291 291 299 301 301 302 300 298 293 290 287 288 288 288 289 290 291 291 289
297 298 299 300 299 299 299 299 298 298 294 291 286 286 292 296 294 292 286 288 292 290 295 295 294 293 298 292 294 294 292 289 287 290 290 290 291 295 295 294 296 299 297 295 295 295 294 294 291 290 290 289 288 288
297 297 299 300 299 299 298 298 298 293 291 291 291 293 292 288 286 285 285 288 289 288 293 293 294 294 295 296 294 292 288 289 285 289 287 286 292 293 291 291 292 296 295 294 294 293 294 293 292 290 289 288 287 286
297 297 299 300 299 298 297 297 296 296 296 293 289 284 285 286 283 282 280 284 286 288 288 290 290 293 293 293 290 289 286 286 288 286 285 289 292 290 288 290 291 292 293 292 290 291 291 290 290 289 287 286 285 284
297 298 299 299 298 296 297 296 296 296 291 285 282 277 282 282 283 283 283 284 287 287 289 291 289 290 290 289 289 286 288 287 283 282 284 290 289 287 287 289 290 290 290 289 288 288 287 287 286 287 286 285 284 282
297 298 299 298 296 297 296 294 295 295 289 283 282 277 281 284 286 286 286 286 287 289 289 289 288 290 287 286 286 286 284 282 284 285 289 289 286 285 287 288 288 288 287 286 287 286 285 285 285 284 285 285 284 282
297 298 292 295 296 296 294 292 292 292 286 284 282 280 284 281 281 284 285 285 289 290 289 289 287 286 287 287 283 283 282 282 287 288 290 285 286 286 287 287 287 286 286 286 286 286 285 284 284 282 283 283 282 281
297 291 294 295 296 292 292 288 288 285 283 282 282 285 284 282 280 283 285 286 290 288 286 286 284 286 284 283 281 284 284 288 285 287 284 284 284 285 286 285 285 285 285 285 285 285 284 283 283 282 280 280 280 280
292 291 295 296 292 288 285 284 285 282 279 283 280 282 284 283 282 283 285 287 285 285 285 285 284 283 282 281 283 282 284 283 285 284 283 283 284 284 284 285 284 284 284 284 284 283 283 282 282 281 279 279 278 278
294 292 295 294 290 284 280 280 283 275 278 281 282 283 282 282 283 283 283 286 288 289 285 285 284 283 283 283 281 281 282 282 281 282 283 283 282 283 284 283 283 282 282 283 283 283 283 283 280 280 279 280 278 277
298 295 293 292 289 281 275 275 283 278 274 278 280 278 279 279 280 280 281 282 286 285 283 283 283 282 281 281 282 282 282 283 283 282 284 284 282 280 281 282 282 282 281 281 282 281 279 279 279 280 280 278 277 277
290 289 289 286 282 280 278 277 276 278 278 277 278 277 275 278 276 277 279 283 283 283 282 280 279 279 279 280 281 283 283 283 282 283 283 282 283 280 280 281 281 281 281 281 280 280 280 278 278 280 280 278 277 276
286 289 282 281 277 274 277 280 277 276 274 273 275 274 273 274 275 276 277 278 279 279 278 278 278 277 277 277 278 280 282 283 284 284 285 285 282 280 279 280 280 280 281 281 281 279 278 278 279 277 276 276 277 276
286 283 277 277 273 271 270 273 270 272 270 269 269 269 271 272 274 272 275 279 277 277 277 276 275 274 274 276 278 281 283 282 281 282 282 283 283 281 281 280 281 280 279 279 280 279 278 279 279 276 277 276 275 275
283 278 276 273 272 269 271 266 270 268 268 270 270 268 267 269 272 272 274 274 275 276 275 272 272 272 274 275 275 276 278 279 280 281 282 280 280 280 280 280 280 281 281 279 278 278 278 277 278 276 276 275 274 272
277 274 271 266 266 270 266 265 264 267 264 264 269 266 267 271 272 270 270 272 270 273 273 271 271 271 270 271 272 274 277 277 277 276 279 281 280 278 278 278 279 279 280 278 278 277 277 277 276 276 275 274 272 272
273 270 268 271 268 269 267 265 264 265 264 265 266 265 264 268 266 267 269 272 272 272 271 271 270 269 269 271 270 271 273 276 275 274 277 280 280 279 277 276 275 276 280 280 278 277 276 276 275 274 274 274 276 271
271 268 271 275 272 270 268 268 268 266 263 263 265 265 265 262 264 269 271 270 271 269 269 269 268 267 267 268 270 271 273 274 275 275 277 278 280 281 280 277 276 278 280 280 279 277 275 275 274 274 274 274 272 272
275 274 270 271 268 266 265 264 264 265 266 268 268 263 264 265 268 272 270 269 268 265 265 265 266 266 266 267 269 270 271 273 275 276 277 277 278 280 281 281 281 281 280 279 279 277 276 276 275 274 272 271 270 271
273 272 271 263 262 264 265 267 267 268 271 268 268 266 267 269 268 268 267 265 262 263 264 265 267 266 266 268 269 270 271 273 272 271 272 273 273 275 278 279 280 280 279 279 280 279 277 276 274 272 271 270 269 269
271 271 267 263 265 266 266 265 264 263 267 268 269 267 267 267 266 263 263 263 263 265 265 263 264 263 264 266 268 270 272 273 274 273 273 273 274 276 278 278 277 278 279 278 277 277 279 274 273 269 268 267 267 266
268 267 264 264 264 260 260 260 261 269 261 261 260 264 265 264 265 263 262 262 262 261 261 263 265 265 265 266 267 268 270 273 274 275 277 276 276 276 276 277 277 277 277 276 274 272 271 270 268 267 267 266 266 265
268 264 264 262 260 259 259 258 257 259 257 258 260 257 260 262 263 265 263 261 262 263 266 267 265 266 267 269 270 271 275 274 274 276 276 275 275 276 277 277 277 276 274 273 272 271 270 269 268 267 267 266 265 265
261 260 257 257 257 257 258 258 258 257 257 256 258 258 258 261 263 265 263 262 264 264 265 266 268 270 270 271 271 273 274 274 276 277 278 278 277 276 274 274 274 273 272 272 271 270 269 268 267 266 265 265 264 264

GFSWCAN_sfc_thetae_015.txt.gz
Theta_e
301 301 301 301 303 302 302 301 301 301 300 300 300 299 300 300 300 299 298 301 294 290 294 302 302 300 300 300 295 299 297 297 296 291 291 290 289 291 290 293 292 290 287 286 287 284 283 300 299 294 298 301 299 299
300 300 300 301 303 302 302 302 301 301 300 300 300 300 299 299 299 299 294 300 300 291 293 303 307 307 306 306 302 301 299 298 299 293 292 293 290 292 292 287 296 290 295 293 293 294 302 303 301 303 302 299 299 299
300 300 299 301 302 302 301 301 301 300 300 300 300 300 300 299 299 298 296 298 295 292 296 300 302 307 309 308 310 300 301 303 301 304 297 294 290 294 289 291 294 297 300 295 296 300 301 303 303 301 299 298 299 300
300 299 299 301 302 301 300 300 301 300 300 300 300 299 300 299 299 299 296 298 295 290 288 298 306 304 308 308 307 308 306 305 304 303 296 293 290 297 293 295 295 298 298 297 297 301 303 301 300 299 297 297 298 299
299 299 299 300 301 302 300 299 300 300 300 300 299 299 300 299 299 299 299 299 298 290 289 296 303 303 306 307 305 306 306 304 301 297 294 293 296 296 297 296 294 300 298 296 295 302 301 300 299 298 297 295 296 294
299 299 299 300 301 302 300 299 299 300 300 300 299 299 299 298 298 295 290 297 298 297 289 293 303 301 303 305 305 304 304 302 301 297 296 297 300 296 291 292 299 302 303 304 301 301 300 298 298 298 296 295 294 293
299 299 299 299 301 302 300 299 299 299 300 299 298 299 299 298 296 290 289 295 298 297 290 292 294 301 303 302 302 302 303 302 300 298 295 297 297 298 293 290 299 302 304 303 304 300 298 297 297 296 295 294 294 292
299 299 299 299 300 301 300 299 299 299 299 298 299 297 298 299 298 293 297 300 299 294 293 290 292 296 302 297 297 302 298 300 299 298 298 295 297 296 291 298 300 302 303 303 302 300 298 298 296 294 293 292 290 290
299 299 299 299 300 301 299 299 299 299 298 298 297 297 299 296 292 294 298 299 300 294 289 293 290 289 301 298 300 299 301 294 300 295 296 296 294 290 296 299 301 303 301 302 299 297 296 295 294 293 292 292 290 289
299 299 299 298 299 301 299 299 299 298 298 296 296 293 289 293 297 298 294 292 292 293 293 293 298 293 298 297 296 297 297 294 289 295 296 292 291 299 301 302 303 303 302 297 293 290 290 290 291 292 292 293 292 290
299 299 298 298 299 300 299 299 298 298 295 293 288 287 293 297 294 292 287 286 290 289 295 297 297 294 300 294 295 297 293 291 288 291 291 291 291 297 297 296 297 298 300 299 300 299 296 296 293 293 293 293 291 290
299 299 298 298 299 300 298 298 298 295 292 291 291 294 293 288 287 286 285 287 289 288 295 295 295 297 298 299 296 294 290 290 286 291 288 286 294 295 293 292 293 295 298 299 297 296 297 296 295 294 292 291 290 289
299 299 298 298 299 299 298 298 296 296 297 295 290 286 286 288 284 284 282 284 286 288 288 290 291 295 295 296 294 292 286 287 291 287 286 291 296 293 290 290 292 293 295 295 293 295 295 294 294 292 290 290 288 286
299 299 298 298 299 297 297 296 295 297 293 286 282 281 283 283 283 283 283 285 288 287 288 290 290 292 292 292 292 287 290 289 284 282 285 294 292 289 290 291 291 291 292 292 291 291 291 290 290 290 289 288 286 285
299 298 298 298 298 296 297 295 295 296 290 284 284 280 282 285 286 286 287 287 288 290 289 290 289 291 289 288 289 288 285 283 285 286 292 290 288 288 289 290 290 290 289 289 289 289 288 288 287 286 287 287 285 284
298 297 296 298 296 297 294 294 295 294 288 285 283 281 284 283 285 286 286 285 290 289 289 288 287 287 287 289 284 284 283 283 289 287 289 289 287 288 288 289 289 289 289 289 289 288 288 287 286 286 286 285 284 284
297 294 295 295 296 292 292 291 291 286 284 282 282 287 286 283 284 286 286 287 290 288 285 286 285 286 287 285 284 289 286 287 285 286 287 287 285 286 286 287 287 287 288 288 287 287 287 286 286 284 282 283 282 282
293 295 296 296 293 290 289 289 286 283 280 283 281 284 285 285 284 285 288 288 287 285 286 284 285 284 284 283 286 286 286 286 286 287 286 287 286 286 286 286 286 286 286 287 287 285 284 284 284 283 281 281 280 279
295 296 295 295 291 287 284 284 284 278 280 283 284 284 284 284 285 285 285 287 288 288 286 285 284 284 286 285 283 283 283 283 282 283 286 288 286 284 284 284 284 284 284 285 284 284 285 285 283 281 280 281 279 279
297 297 296 294 290 285 280 280 284 280 278 281 282 280 281 282 282 282 281 283 286 286 283 281 284 282 281 281 282 282 283 284 283 282 285 289 288 285 284 283 284 284 284 285 285 284 281 281 281 281 282 280 279 278
291 291 291 289 284 284 282 279 278 280 280 279 281 279 278 280 279 278 280 283 283 283 282 286 284 283 282 282 281 281 282 283 282 282 282 283 286 286 284 284 283 284 283 283 282 282 282 281 280 281 281 280 280 279
288 289 284 284 281 279 280 281 279 279 277 277 277 277 275 277 278 278 278 278 280 284 284 283 282 280 279 279 279 279 280 281 282 282 285 285 284 285 285 284 282 282 283 284 283 282 281 280 281 281 279 278 278 278
287 285 281 280 277 276 275 278 276 275 274 274 273 273 274 275 277 276 275 280 282 283 281 280 278 276 276 277 278 279 280 280 280 281 281 282 283 285 284 284 283 283 282 282 284 281 280 281 280 278 278 278 277 277
285 281 279 278 277 274 274 273 274 273 273 273 273 272 273 274 275 275 275 279 280 280 278 276 276 276 277 277 277 278 278 279 278 279 281 280 280 282 283 283 283 283 283 282 281 281 280 279 280 278 277 277 277 275
279 276 276 272 271 271 271 270 270 271 272 271 271 272 272 274 273 273 273 277 277 278 278 276 275 275 274 275 276 277 278 276 275 275 277 278 279 281 280 281 282 282 282 280 279 279 279 279 277 277 277 276 274 274
275 274 273 274 272 272 272 269 269 271 271 269 270 270 270 273 270 270 274 278 278 278 278 276 276 275 275 275 274 274 275 276 275 273 275 277 278 278 279 279 278 278 281 282 280 279 278 277 277 277 276 276 277 273
275 273 273 276 275 272 271 271 272 271 269 268 270 269 271 267 269 274 278 277 277 277 278 277 275 273 273 273 274 274 274 274 273 273 275 276 277 278 278 278 279 280 281 281 281 279 277 277 276 276 275 276 275 274
277 276 270 272 272 271 270 270 270 269 271 272 272 267 268 270 272 279 278 276 276 273 273 272 272 271 271 271 272 272 272 273 273 273 275 276 277 278 280 282 283 283 281 281 281 280 278 277 277 276 275 273 273 274
275 275 274 269 269 270 271 272 272 273 274 273 272 272 272 275 276 275 274 272 270 269 269 270 271 271 270 270 270 270 270 271 270 269 269 270 274 277 279 280 281 281 281 281 282 280 279 278 277 275 274 273 272 272
274 277 272 268 268 269 272 270 271 269 271 273 272 272 272 273 273 270 270 268 267 268 270 270 268 267 267 267 268 270 273 273 273 272 270 271 274 278 278 279 280 279 280 279 279 279 282 279 277 272 271 270 270 269
273 273 270 271 271 268 265 264 266 271 268 268 266 268 271 269 271 270 268 268 268 267 267 268 269 270 268 268 268 268 268 273 273 274 275 275 277 277 278 279 279 280 279 279 278 276 273 271 271 270 269 268 269 267
272 271 270 268 268 263 264 265 266 267 266 266 268 263 266 267 268 273 268 266 267 268 270 270 268 269 270 271 271 271 273 272 273 274 275 275 277 278 278 278 279 278 277 274 273 272 272 271 270 269 269 267 266 267
266 265 264 265 264 264 264 265 265 265 264 265 266 264 265 266 267 271 267 267 268 269 268 269 270 271 272 272 273 274 275 274 273 278 279 279 279 278 277 277 276 275 274 273 273 272 271 270 269 268 267 267 267 267

GFSWCAN_sfc_thetae_018.txt.gz
Theta_e
301 301 302 301 301 303 304 302 302 302 301 301 301 300 300 300 299 298 296 300 293 289 291 297 300 298 297 296 293 297 295 296 294 290 289 289 288 290 287 290 289 287 286 285 286 283 279 296 295 290 294 296 296 295
302 301 301 301 301 302 304 302 301 302 302 301 301 301 300 300 299 299 293 299 299 291 291 297 298 300 305 304 301 299 297 296 296 292 291 292 288 290 289 284 293 287 291 290 288 288 296 298 297 297 297 295 295 295
301 301 301 301 301 301 303 301 300 300 301 301 300 301 300 300 299 297 294 297 296 290 292 295 299 306 308 308 308 298 298 301 299 301 295 293 289 293 288 288 289 294 295 291 292 295 296 298 298 297 295 293 295 297
301 300 300 301 300 301 302 302 300 300 301 300 300 300 299 299 300 298 294 296 294 288 285 295 305 302 306 306 306 306 303 304 302 301 296 293 290 294 292 292 291 294 296 293 293 296 296 295 295 294 294 295 295 295
301 301 300 300 300 300 302 303 301 300 299 300 300 300 300 300 300 297 296 296 297 289 286 291 300 303 305 305 304 305 305 303 300 296 295 292 295 294 294 294 290 294 293 291 291 297 296 293 294 295 294 293 293 291
301 301 300 300 300 300 301 302 301 300 300 299 300 300 299 299 298 294 288 297 299 295 287 287 302 301 303 305 303 302 302 301 300 297 295 297 299 295 290 289 295 296 299 299 297 296 296 295 294 294 293 292 292 290
301 301 301 300 300 300 301 302 300 299 299 300 299 299 299 298 295 289 287 293 297 296 287 287 293 301 302 303 302 302 302 300 299 297 295 296 296 297 293 289 295 299 298 298 299 296 294 294 293 293 293 292 292 290
301 300 300 300 300 299 300 302 300 300 300 299 299 298 299 299 297 292 295 297 297 290 291 286 291 296 302 297 296 301 298 299 298 297 297 295 296 295 290 294 296 297 299 299 298 297 295 294 293 292 291 290 288 287
301 300 300 300 300 299 300 301 300 299 299 299 298 298 297 294 290 292 299 298 297 292 286 291 288 287 300 298 299 297 299 293 299 294 295 295 293 289 293 296 297 300 298 296 294 294 293 292 291 290 290 290 287 287
300 300 300 300 300 299 300 300 299 299 298 297 295 292 288 291 298 298 292 289 288 291 291 291 296 292 297 296 294 295 296 292 287 293 295 291 291 297 299 299 296 296 299 294 290 286 286 285 287 290 290 290 289 288
300 300 300 300 299 299 300 300 299 298 296 292 288 286 293 297 294 291 286 285 288 287 293 295 294 293 297 292 293 294 290 289 286 288 289 288 289 294 294 293 293 293 294 295 296 296 293 292 291 290 290 290 289 288
300 299 299 300 299 299 300 299 298 293 291 291 290 293 293 289 286 284 285 286 287 287 292 293 292 293 295 296 293 293 287 288 284 289 287 285 290 291 289 289 290 292 293 295 296 294 294 294 293 292 291 289 288 287
299 299 300 300 299 299 300 298 298 296 297 294 289 284 285 287 282 282 280 285 285 287 287 289 289 292 292 292 291 289 285 286 287 285 284 283 287 288 287 289 290 292 293 292 292 293 294 294 293 292 289 288 286 284
299 299 300 299 298 299 297 297 296 295 293 285 282 277 282 282 283 283 283 284 287 287 288 290 289 287 290 288 288 286 289 286 283 281 280 286 285 286 288 289 289 289 289 289 289 290 290 291 289 289 288 287 285 283
300 299 299 298 297 298 297 296 295 294 288 283 282 279 281 285 285 285 286 286 287 290 289 289 288 290 287 287 287 286 283 281 283 280 285 284 284 285 286 286 287 287 288 288 288 287 287 287 287 286 285 285 285 283
299 299 296 298 298 296 295 294 293 292 287 284 283 281 284 283 282 284 285 285 288 288 288 287 286 286 286 286 284 283 282 281 283 280 281 284 284 284 285 285 286 286 287 287 288 287 287 286 285 284 284 284 283 283
299 292 296 297 296 294 292 290 289 285 283 281 281 285 285 283 281 280 284 286 289 287 285 285 284 285 285 284 282 284 284 282 282 281 281 282 283 284 284 284 285 285 285 286 286 286 285 285 285 283 281 282 280 280
293 295 297 296 294 290 288 287 284 282 279 282 280 283 285 285 283 282 284 285 284 284 285 283 284 283 283 282 283 282 282 283 284 280 280 283 283 283 283 282 283 283 283 284 283 281 281 280 280 280 279 279 279 279
294 295 296 296 292 288 284 284 284 277 279 282 283 283 283 283 282 282 282 284 285 285 284 284 282 282 283 282 282 281 278 282 281 282 281 283 283 282 281 281 281 280 279 279 281 281 281 282 280 279 279 279 278 278
297 297 297 296 291 284 280 280 283 279 276 278 282 280 279 277 279 278 278 281 281 279 276 279 282 282 282 282 282 281 280 280 281 280 280 281 282 280 280 278 279 279 279 279 279 282 278 278 279 280 280 279 278 278
293 293 292 289 285 285 282 280 279 279 279 277 281 278 273 274 272 275 279 282 280 273 272 278 278 277 281 279 279 278 278 278 277 279 279 279 282 284 284 278 276 280 279 280 279 279 280 277 277 279 281 280 279 278
288 290 285 285 282 280 279 281 279 279 277 276 275 274 269 268 269 272 276 277 278 275 277 276 276 276 276 275 274 275 276 277 277 279 282 281 280 281 282 283 276 275 276 277 279 279 278 278 279 279 279 279 279 278
288 286 282 282 278 277 275 278 275 276 274 272 271 268 268 268 274 276 273 272 274 277 277 275 272 272 272 274 274 274 275 275 275 276 277 276 277 280 281 282 279 275 276 277 277 277 275 280 281 278 278 278 278 278
287 282 279 277 278 274 274 273 275 274 273 271 269 265 265 267 273 273 268 272 275 276 274 270 271 272 273 273 271 272 273 273 272 273 274 274 273 276 278 280 281 279 281 279 276 276 277 279 280 278 277 277 277 275
279 276 277 272 272 271 270 270 271 271 269 269 265 265 265 266 265 264 267 271 272 273 272 271 271 271 270 270 271 272 274 272 269 271 270 272 272 274 274 278 279 279 279 280 279 276 274 279 278 277 277 276 275 274
275 274 272 273 270 271 272 269 268 268 269 264 266 266 264 265 262 264 268 269 272 273 275 274 273 272 272 273 270 269 270 271 270 269 270 271 272 273 275 275 275 277 277 281 280 278 278 278 277 277 277 277 278 274
274 272 274 277 275 273 272 272 272 269 265 264 265 264 263 260 261 268 271 271 272 270 270 271 272 271 269 268 270 271 270 267 268 269 271 272 272 273 272 272 272 274 277 280 281 280 278 277 277 277 276 277 276 274
277 274 270 272 272 271 269 268 267 266 267 270 270 263 263 265 267 269 269 268 267 266 265 265 266 265 265 265 265 267 266 267 267 267 270 271 272 272 273 274 276 279 280 280 281 281 280 278 278 277 276 275 274 274
273 275 274 270 269 269 269 269 268 269 272 269 267 266 268 271 269 267 267 265 263 263 262 262 263 262 262 263 264 266 267 265 265 264 264 265 266 267 271 275 277 279 281 280 284 282 279 279 278 277 276 275 274 274
273 276 272 268 268 269 268 266 265 264 269 269 270 268 269 268 267 265 264 261 261 261 261 261 260 259 260 260 264 264 266 269 269 268 267 267 267 267 270 273 276 278 279 280 280 280 283 281 280 276 273 272 272 272
275 274 270 270 268 263 261 262 264 271 266 262 263 264 265 264 266 264 262 261 260 259 258 258 259 261 262 263 263 265 266 265 266 268 270 272 273 273 273 273 277 278 279 279 278 278 278 274 272 271 271 271 271 269
272 270 269 266 262 259 260 262 263 264 262 260 261 259 260 261 262 265 260 259 258 259 264 263 261 262 263 265 268 270 274 271 271 270 268 270 271 273 275 276 278 279 279 278 275 273 272 272 271 271 270 268 268 268
265 264 266 264 261 262 263 262 262 259 258 258 259 259 259 261 263 264 261 260 261 261 261 261 262 264 266 268 270 272 276 273 273 278 278 279 279 278 275 277 277 276 274 273 273 272 272 271 270 269 269 269 269 268

GFSWCAN_sfc_thetae_021.txt.gz
Theta_e
301 302 302 302 302 301 302 303 303 301 301 302 301 301 301 301 300 293 290 295 292 289 289 294 296 294 297 296 292 295 292 293 292 287 287 286 285 287 285 288 288 286 285 284 286 283 278 293 293 290 293 294 293 293
302 302 301 301 302 302 301 302 302 301 300 301 302 301 301 300 300 297 287 294 296 289 288 295 295 296 297 299 297 298 294 293 294 289 288 289 286 288 286 282 291 287 288 287 287 286 292 295 296 295 295 293 292 293
302 301 301 301 301 302 301 302 303 302 300 301 301 300 300 300 300 298 289 290 293 286 288 290 292 301 301 301 307 298 298 298 297 297 291 292 289 291 285 285 287 292 295 292 291 293 294 295 294 293 292 291 293 295
301 301 301 301 301 301 301 301 302 303 301 300 300 300 301 301 300 299 289 291 290 286 282 287 301 301 304 306 306 306 303 301 300 298 294 293 290 293 289 290 289 292 294 292 290 295 294 293 292 293 292 293 292 293
301 301 301 301 301 301 300 301 302 303 301 300 300 300 300 300 300 296 291 292 293 285 284 286 292 302 303 303 304 304 301 299 298 294 293 291 294 293 293 292 289 292 290 290 289 297 294 293 292 293 292 291 291 290
301 301 301 301 302 301 300 300 301 302 301 300 300 300 299 300 299 294 284 296 296 295 285 283 298 299 302 302 301 301 302 301 300 297 295 297 299 295 290 288 293 294 294 296 295 296 295 293 293 292 291 291 291 289
301 300 300 301 301 301 301 300 301 302 300 300 300 299 299 299 296 289 284 292 297 294 286 283 290 300 302 302 301 301 301 299 299 297 295 295 296 297 293 288 293 295 298 299 297 296 293 293 292 291 291 291 291 288
301 300 300 301 301 301 300 300 300 301 300 300 299 299 299 299 296 291 291 297 296 288 287 283 290 295 302 297 295 301 298 299 298 296 297 294 295 295 290 293 296 298 298 297 296 296 295 293 290 289 289 288 287 286
301 300 301 300 300 301 300 300 300 300 299 299 298 299 294 291 289 292 298 297 295 289 284 287 287 287 299 297 298 296 298 292 297 293 294 295 292 289 293 295 296 294 295 296 292 292 291 290 289 288 288 287 286 285
301 300 300 300 300 301 299 300 301 299 298 298 293 290 287 291 298 298 292 288 287 288 288 286 295 290 295 295 293 295 295 292 287 293 295 291 291 295 291 291 290 290 291 292 291 287 284 283 286 287 287 288 288 287
301 301 300 299 300 300 299 300 300 298 295 290 287 286 291 297 293 290 285 284 287 285 291 293 294 291 296 291 291 293 288 288 286 288 288 285 289 288 289 288 290 291 291 292 293 294 294 292 289 289 288 288 288 287
301 300 300 299 300 300 299 300 298 291 288 290 290 293 292 288 286 284 283 286 286 286 291 292 291 293 292 294 292 292 287 287 283 289 286 284 288 286 287 287 289 290 291 291 292 293 293 293 291 291 289 288 287 286
301 300 300 300 300 299 299 299 298 296 295 294 289 284 284 286 281 280 280 284 285 286 287 288 287 289 291 292 290 289 285 285 286 285 284 285 285 286 286 287 287 289 290 290 290 292 293 292 292 292 289 287 285 284
300 300 300 300 299 297 298 298 297 294 290 284 281 278 280 280 282 282 283 284 286 287 287 289 288 286 289 287 289 286 288 286 282 281 281 283 283 285 285 286 286 286 287 288 288 289 290 291 289 289 288 286 285 284
300 300 300 299 298 297 298 297 294 292 286 281 281 276 280 284 284 285 285 286 287 289 288 288 287 290 286 285 287 285 283 281 283 281 281 279 283 284 284 284 284 285 286 286 287 286 287 288 287 286 286 286 286 283
300 300 297 298 297 298 296 293 292 291 285 282 281 279 283 281 282 283 283 284 287 288 288 287 286 285 285 286 284 282 282 280 282 278 278 281 282 283 283 283 284 285 285 286 286 287 287 286 285 284 284 283 283 282
300 293 297 297 297 295 293 289 287 282 281 280 279 284 283 282 282 274 284 286 288 287 285 285 284 284 285 283 282 285 282 281 282 283 277 280 280 282 282 282 283 283 284 284 285 285 285 285 283 282 281 281 280 280
293 295 298 297 294 291 287 286 283 279 278 280 279 281 285 285 283 279 281 282 284 284 285 284 284 282 282 282 282 281 282 283 279 277 278 280 281 282 282 282 282 282 282 283 282 281 280 280 280 279 279 278 278 279
295 295 298 297 292 286 282 282 282 276 277 279 282 282 283 283 283 280 280 281 282 282 284 283 282 281 281 282 282 282 281 281 278 278 279 280 280 280 280 282 280 279 279 279 281 281 281 281 280 279 278 279 278 278
298 298 298 297 291 282 277 277 281 277 271 277 281 279 280 280 278 276 276 278 277 279 276 277 281 281 279 279 282 282 281 279 277 275 277 278 279 277 282 283 282 278 277 277 277 282 278 278 278 278 278 278 277 277
294 294 292 289 284 282 279 275 273 274 274 275 278 278 274 273 268 274 271 281 278 268 269 275 276 276 279 278 278 278 277 277 275 275 275 272 277 276 276 279 282 282 278 279 278 279 281 277 277 278 279 278 278 278
289 291 285 286 281 278 277 279 275 276 275 275 275 274 271 269 269 273 274 276 276 272 274 274 273 275 276 274 274 274 276 276 276 276 280 279 274 273 274 275 280 280 281 276 277 278 278 278 278 278 278 278 279 278
289 286 283 281 278 277 272 275 272 273 273 271 271 270 269 269 271 277 271 272 272 274 275 273 271 271 273 273 274 274 274 273 274 274 275 274 275 274 274 274 275 279 279 280 277 278 275 280 280 277 278 278 277 278
288 283 279 277 278 272 273 269 275 274 273 272 271 271 268 268 274 272 270 271 274 274 273 269 270 271 272 272 271 272 272 272 271 271 273 272 270 273 274 274 275 274 276 278 279 277 278 278 281 278 277 278 278 277
279 277 277 271 269 267 267 268 270 271 270 271 270 269 267 269 265 266 268 270 267 270 269 269 269 270 271 269 269 270 272 272 269 270 267 272 271 270 269 271 273 275 278 278 279 277 277 278 278 277 276 277 277 275
276 274 272 269 265 269 270 269 269 270 271 270 269 267 268 265 264 266 268 267 268 269 271 272 273 271 271 272 271 268 270 269 268 268 268 270 270 268 263 269 271 272 272 273 277 277 276 278 277 277 277 278 279 275
273 269 274 277 274 274 272 272 273 272 269 268 268 267 264 263 264 267 269 268 269 268 269 270 272 272 272 267 269 269 268 264 267 268 268 268 270 270 268 269 269 271 272 272 275 278 277 277 278 277 277 277 278 275
274 272 268 270 271 271 270 270 270 269 270 271 270 267 265 266 267 268 269 265 263 261 261 262 264 265 264 264 263 265 263 262 262 262 265 269 270 270 271 271 272 276 275 275 275 277 279 278 278 277 277 277 276 276
270 272 273 268 270 271 270 270 270 271 273 271 268 266 266 268 266 265 266 263 259 261 264 263 262 257 258 259 259 260 261 261 262 262 263 265 266 265 266 269 270 271 274 275 279 281 280 279 278 278 278 277 275 275
268 273 269 269 270 270 271 270 270 268 269 270 270 267 267 266 265 262 262 259 261 262 260 258 257 258 259 257 259 260 261 264 265 266 265 265 265 263 262 266 269 271 273 276 277 278 283 283 282 279 275 274 274 273
274 272 270 270 269 267 265 265 265 271 263 259 260 262 264 264 265 262 260 258 257 255 257 257 256 253 257 258 257 260 264 263 263 266 268 269 270 270 270 270 271 272 274 276 277 278 280 278 275 273 273 272 273 272
273 271 270 268 265 264 264 265 263 260 258 258 259 256 258 260 262 265 259 258 256 257 264 259 257 261 260 261 263 265 272 271 271 271 270 270 270 269 270 271 273 274 275 277 278 277 273 273 272 272 272 271 270 269
264 265 267 266 264 262 263 261 259 259 258 257 257 257 256 260 264 264 259 257 259 260 260 260 260 259 261 263 266 268 272 270 272 278 280 279 279 275 271 272 274 275 275 274 274 273 272 272 271 271 270 270 270 270

GFSWCAN_sfc_thetae_024.txt.gz
Theta_e
304 302 302 302 301 302 303 302 303 303 302 301 300 302 301 301 300 293 289 293 287 283 286 291 294 293 295 293 290 292 291 292 290 286 285 285 283 285 283 286 287 286 285 285 286 283 279 293 293 289 293 293 294 293
304 302 302 301 301 301 302 302 302 303 303 301 301 302 300 300 300 297 289 292 294 287 283 291 292 292 292 298 296 297 291 291 292 287 286 287 284 286 283 280 288 286 288 286 286 286 292 293 294 295 294 293 292 292
303 302 302 301 300 300 301 302 302 302 303 302 301 300 300 300 301 299 290 290 289 286 284 284 287 293 296 295 298 295 298 299 295 294 290 289 286 289 284 285 285 291 293 291 290 292 292 294 294 293 292 291 293 294
302 302 301 301 300 300 302 301 301 302 302 303 301 300 300 300 300 300 292 293 291 285 280 281 295 291 297 301 300 302 303 300 298 295 290 289 288 292 289 288 289 290 292 292 290 293 294 293 294 292 292 292 291 292
303 303 301 302 301 302 302 302 301 301 302 302 301 300 300 300 300 298 292 291 292 284 279 281 287 291 294 300 302 304 302 300 296 294 291 290 292 291 290 292 289 290 289 287 287 294 296 295 293 293 291 291 290 290
302 302 302 301 301 302 302 302 301 301 301 301 300 300 299 299 300 293 287 294 295 291 281 278 291 291 301 302 302 302 302 301 299 296 295 296 298 294 290 288 293 293 293 296 292 294 295 295 293 292 290 290 290 289
302 302 301 301 301 302 302 301 301 300 301 301 300 299 299 299 296 289 283 291 297 294 285 281 283 294 301 301 301 300 301 298 298 297 295 295 295 296 292 288 293 297 299 299 297 297 293 292 293 292 290 290 291 287
302 301 301 301 301 301 301 302 300 301 302 300 299 298 298 299 296 291 291 296 295 288 286 281 283 295 302 297 295 301 297 298 297 296 296 294 295 295 290 291 296 295 293 296 294 296 295 291 290 289 288 287 286 285
301 301 301 301 301 301 301 301 300 301 300 298 299 298 294 290 287 291 298 298 294 289 283 284 284 286 300 297 297 296 298 292 296 293 293 294 292 289 289 288 289 288 288 289 291 293 292 290 289 287 287 286 285 284
302 302 301 301 300 300 301 300 300 300 298 297 292 289 285 289 298 297 292 288 286 287 286 283 291 290 296 295 293 294 294 292 287 293 295 292 291 291 289 289 288 288 289 289 287 286 287 283 285 287 286 286 286 286
302 302 301 300 300 300 300 300 300 298 294 289 285 285 289 296 292 290 284 283 286 284 287 288 292 292 297 292 292 295 288 288 286 288 289 286 289 287 288 287 288 287 288 289 290 291 291 292 291 288 286 286 286 286
302 302 301 301 300 300 300 299 299 291 287 288 290 293 292 288 286 283 283 286 285 286 290 291 291 293 293 295 291 290 285 286 284 290 286 284 287 286 285 285 286 286 287 288 290 290 291 292 292 290 288 287 287 287
303 302 301 301 300 300 299 299 299 297 294 293 289 284 284 285 279 279 279 284 285 286 287 288 287 289 292 293 289 288 285 285 287 285 283 285 284 284 285 285 285 286 287 288 289 290 291 292 291 291 289 288 286 284
303 302 301 300 300 299 297 298 297 293 289 284 281 278 279 278 281 282 282 284 287 286 287 289 288 288 289 287 289 285 287 286 282 280 282 283 280 282 284 284 284 284 286 286 288 288 288 290 289 288 287 286 285 283
303 302 300 300 300 299 297 298 295 291 285 279 281 275 278 282 284 284 285 285 287 289 288 288 287 290 285 286 287 285 283 281 282 281 283 277 278 282 282 283 283 283 284 285 286 287 287 288 288 286 286 286 286 285
303 300 298 300 299 298 297 293 291 290 283 280 280 277 282 281 281 283 283 283 288 287 288 287 286 285 285 285 284 282 281 280 280 282 276 278 280 282 282 282 283 283 283 284 285 285 286 286 287 287 286 286 285 284
301 294 299 299 298 296 294 288 287 281 279 278 278 282 280 282 282 281 284 285 288 286 285 285 284 281 285 284 282 284 283 282 282 283 276 278 279 280 281 282 283 282 283 283 283 283 283 284 283 282 281 282 282 282
294 296 298 298 293 290 286 285 281 277 277 279 278 279 284 285 283 283 280 283 285 284 284 284 284 283 282 282 280 282 282 283 281 276 277 278 279 280 281 280 282 281 281 281 281 280 279 278 279 280 279 279 278 279
295 296 298 297 292 284 280 279 280 274 276 278 281 281 282 282 283 282 280 281 281 283 282 283 281 281 281 281 280 273 280 282 280 278 278 278 279 279 279 280 283 278 278 278 279 280 280 280 280 279 279 278 278 278
298 299 298 297 291 280 275 276 279 277 273 277 279 278 280 280 280 279 278 279 277 272 275 278 281 283 279 277 276 277 277 280 278 275 276 277 277 273 275 276 277 278 276 275 277 283 279 278 278 278 278 278 277 277
294 295 295 290 285 281 277 271 270 273 274 275 277 277 274 276 272 271 272 277 273 273 269 274 275 276 279 278 279 279 278 278 275 274 274 270 275 273 273 272 272 277 280 280 279 278 279 278 278 278 278 278 278 278
289 292 286 286 281 277 273 276 272 274 272 271 273 273 269 269 269 269 271 273 274 274 274 274 273 275 276 274 274 275 276 277 276 275 278 278 273 271 272 272 272 269 271 277 280 277 277 278 279 278 277 278 279 277
289 287 283 282 279 275 272 273 269 270 270 268 267 268 268 268 271 277 270 273 275 275 275 274 271 270 274 272 272 272 273 274 274 274 274 274 274 273 271 271 271 267 272 273 273 274 276 281 280 279 277 278 276 277
289 283 280 279 278 271 272 265 273 271 270 270 268 267 267 267 273 271 268 272 274 274 273 273 272 272 272 271 270 271 272 271 270 270 272 270 269 271 272 272 272 271 272 275 273 278 279 280 281 278 277 277 277 276
280 278 279 273 270 266 261 264 266 269 267 271 271 271 268 269 266 265 269 273 268 270 272 271 270 271 272 270 269 270 272 272 270 270 267 270 270 269 268 269 271 272 272 270 273 278 278 278 276 275 274 277 277 277
277 276 274 269 263 266 266 265 267 269 271 271 272 268 267 269 265 266 271 271 270 271 272 274 275 272 271 272 270 268 270 271 269 267 266 270 270 267 263 266 269 269 271 270 268 269 275 277 274 274 275 277 280 277
275 272 274 277 273 272 270 272 273 272 271 271 269 267 269 266 266 271 272 271 271 269 269 271 273 272 271 267 269 269 267 267 268 267 266 266 268 270 268 268 268 270 271 269 269 270 271 275 276 275 276 276 278 278
277 272 269 269 268 269 268 269 269 270 271 273 271 267 267 267 270 271 270 267 263 261 259 260 262 264 264 264 264 267 263 260 259 260 262 266 267 268 269 270 271 275 273 271 271 272 272 272 274 276 276 276 277 277
269 270 271 265 269 270 269 270 271 272 274 272 270 270 269 271 269 267 268 264 257 261 263 263 263 257 259 260 259 258 259 260 261 261 263 266 263 264 263 264 264 265 268 270 275 278 278 277 276 277 276 277 277 276
267 270 269 270 270 270 272 271 272 270 271 271 271 269 269 268 268 263 263 260 262 264 261 259 257 260 260 259 258 259 259 260 263 264 263 265 264 262 259 261 265 266 267 270 271 271 278 279 280 282 278 275 274 274
272 270 271 271 271 266 265 267 268 271 265 263 263 265 266 264 266 262 261 259 257 254 257 258 256 252 256 256 256 256 261 261 260 263 265 267 268 268 268 269 269 267 267 268 270 272 274 276 277 273 272 272 273 274
270 272 271 268 266 265 266 264 264 263 263 261 262 259 260 261 262 266 258 256 256 258 264 259 257 260 259 260 258 260 271 269 268 269 269 270 270 270 270 270 266 266 268 269 271 273 275 273 273 273 273 273 272 271
267 267 267 265 265 264 263 266 263 262 260 259 260 258 257 260 265 265 259 256 259 259 260 260 259 258 259 259 261 263 269 265 266 275 277 278 280 279 272 269 269 270 271 272 272 273 273 273 273 272 272 270 270 270

GFSWCAN_sfc_thetae_027.txt.gz
Theta_e
306 305 304 303 302 302 301 302 302 302 303 304 302 301 302 301 300 295 289 291 286 281 283 287 291 288 291 292 287 290 290 290 288 285 284 284 283 285 282 286 284 286 284 285 285 283 278 293 294 288 292 292 293 292
306 305 304 303 302 301 300 301 301 302 303 303 303 301 301 300 300 296 288 293 294 286 283 288 289 289 290 293 290 294 291 290 291 286 285 285 284 286 283 280 286 286 288 285 285 286 292 294 292 294 293 292 291 291
305 305 304 302 301 300 301 301 302 301 302 302 303 302 301 300 300 299 292 293 291 287 283 283 283 288 292 292 294 288 295 298 293 293 288 287 285 287 282 283 283 288 292 290 288 291 292 294 294 293 292 291 292 293
305 304 303 302 302 301 301 302 303 302 301 302 303 302 301 300 300 300 293 293 292 288 279 279 289 288 294 294 294 293 294 300 298 296 289 287 285 289 286 287 288 289 291 288 288 291 293 293 294 294 293 292 291 291
304 303 303 302 302 302 302 302 302 302 301 301 302 302 300 301 300 297 293 294 295 287 278 280 285 287 288 288 294 296 294 296 296 294 291 289 292 289 288 288 286 289 288 286 286 291 292 293 296 294 292 291 291 290
305 304 303 303 302 302 302 302 302 302 301 301 302 301 300 300 299 294 287 293 293 293 285 276 285 286 291 292 298 297 298 300 297 295 292 293 297 292 288 288 292 291 294 296 292 294 296 296 294 293 291 290 290 290
305 304 303 302 302 302 301 302 302 302 301 301 302 300 299 299 295 288 283 288 297 294 285 279 281 290 291 299 300 300 301 298 297 297 293 293 295 295 292 287 291 296 296 295 296 294 292 293 293 292 291 290 291 288
304 304 303 302 302 301 301 302 302 301 301 302 300 299 298 299 295 291 293 296 295 289 286 279 281 286 299 295 295 300 296 296 297 296 294 293 294 295 289 289 288 290 290 291 292 292 292 293 291 289 288 287 286 286
303 302 302 302 301 301 301 301 302 301 301 300 298 299 293 288 284 288 298 298 295 289 282 283 280 286 300 296 297 296 297 292 297 293 292 293 292 289 286 286 288 288 286 287 289 289 290 291 292 288 287 286 285 284
303 302 302 302 301 300 300 301 301 300 299 297 292 287 284 287 297 297 292 288 286 287 285 281 287 288 296 295 293 294 295 291 285 291 294 290 290 289 288 288 288 288 286 286 284 283 283 282 283 287 286 286 286 285
303 303 302 302 301 301 300 301 300 299 294 288 284 284 287 295 289 289 285 283 285 283 286 286 289 292 297 291 292 294 288 288 285 288 290 287 288 287 287 287 287 285 285 285 286 288 289 288 288 289 288 286 286 285
304 303 303 302 301 301 300 300 299 291 288 288 288 293 291 288 285 282 283 285 285 284 290 289 291 292 294 295 291 291 286 286 283 290 286 284 285 285 284 283 284 284 284 286 288 289 289 289 290 290 289 287 285 285
304 303 303 302 301 301 300 299 299 297 294 291 289 284 283 284 278 278 277 282 284 286 287 287 288 291 293 293 288 287 285 284 286 285 283 285 283 282 282 283 283 284 286 287 288 289 289 290 290 291 290 288 287 286
303 303 303 302 301 300 299 298 297 293 288 283 281 277 279 277 279 277 280 279 286 286 287 288 288 288 289 287 288 285 287 286 282 280 281 281 282 281 282 283 283 283 284 285 286 287 287 289 289 288 287 287 285 283
304 303 303 302 301 300 298 298 295 291 283 277 281 273 273 281 283 284 284 284 287 288 287 287 288 289 286 286 287 285 283 281 282 281 279 282 278 281 282 282 282 282 283 283 284 285 286 287 288 287 287 286 285 283
304 303 299 301 301 300 298 294 291 289 281 276 277 275 280 277 276 282 282 283 287 287 287 286 285 285 286 285 284 283 281 280 278 276 282 278 280 281 281 281 282 282 283 283 283 284 284 284 284 286 287 287 286 285
302 295 300 301 300 298 295 285 284 278 275 271 275 281 279 279 278 279 284 285 286 286 285 285 283 284 285 282 281 284 283 282 277 282 279 278 278 279 280 281 281 282 282 282 281 282 282 282 283 283 283 283 284 284
294 295 301 299 293 291 285 283 277 273 277 276 275 279 283 284 281 282 283 283 283 284 284 284 283 282 283 282 279 278 279 283 283 279 277 278 278 279 280 279 281 281 280 280 280 280 279 280 280 280 279 279 279 280
294 298 300 296 293 284 279 278 276 270 272 276 280 281 282 283 283 281 282 282 282 283 282 282 281 281 282 277 279 273 272 281 282 281 278 278 278 278 278 277 277 276 277 277 278 279 280 280 279 279 279 279 278 278
299 299 298 296 291 281 275 275 278 276 269 274 278 278 279 279 280 278 278 281 279 272 274 278 281 283 281 279 278 277 277 279 278 276 275 276 276 272 274 273 274 274 275 274 279 282 280 279 279 279 278 278 277 277
294 296 295 291 286 283 278 270 268 269 268 272 275 278 277 277 276 274 272 278 278 274 273 275 276 277 279 277 278 280 279 278 276 274 273 269 274 272 271 270 268 274 275 276 276 277 278 276 277 279 278 278 278 277
290 292 286 287 283 280 275 275 270 271 268 268 272 274 272 271 272 272 272 269 272 276 276 275 273 275 276 274 274 274 277 277 275 275 278 277 273 270 270 270 269 265 265 267 272 274 274 275 277 279 277 277 279 277
290 288 284 283 279 277 272 273 268 265 267 265 267 269 270 269 271 277 272 271 274 278 275 274 272 272 275 272 273 272 273 273 273 273 274 274 274 272 269 270 269 264 268 269 271 271 271 278 280 280 278 277 276 276
290 284 281 280 280 272 272 264 271 267 266 268 266 267 268 268 271 270 267 270 275 276 273 271 272 273 272 272 272 272 273 272 270 270 271 270 267 270 271 271 271 270 271 272 269 270 273 278 280 279 278 272 273 276
280 279 279 274 270 268 262 261 261 267 263 267 269 268 268 267 264 263 264 272 271 270 271 273 273 271 272 271 270 271 272 272 271 271 268 271 268 267 267 268 270 270 270 265 268 269 270 273 275 276 277 276 273 274
275 277 274 271 264 267 265 262 262 265 268 268 270 268 265 265 261 264 269 273 272 271 273 275 276 273 271 272 271 269 272 272 271 269 267 269 270 267 262 264 268 269 270 269 267 266 267 269 270 273 275 275 279 278
270 273 275 277 273 271 268 269 271 269 267 269 270 268 268 263 263 270 273 272 272 270 271 275 276 276 274 269 269 270 268 269 268 267 266 266 268 269 268 268 268 270 269 268 268 268 268 268 269 270 274 273 274 276
275 273 269 268 267 266 265 265 265 267 271 274 271 265 267 268 270 273 272 270 267 263 263 264 266 266 266 265 265 267 262 259 260 261 262 264 265 264 266 269 270 274 272 269 269 269 269 269 270 270 270 272 273 274
270 270 271 266 264 264 266 267 269 272 276 273 271 271 271 272 273 269 270 267 265 266 267 266 264 256 259 259 258 257 259 262 263 263 262 266 260 263 262 263 263 262 264 266 273 276 274 272 272 272 271 273 273 274
266 271 266 268 266 265 267 270 269 271 273 274 273 270 269 271 271 266 266 266 268 269 266 261 258 263 262 261 259 259 258 260 263 265 263 265 264 261 259 260 263 264 264 265 266 266 274 273 273 274 277 276 274 273
270 265 264 266 267 263 262 266 268 272 266 264 265 267 268 266 268 267 267 266 263 258 259 259 257 253 258 256 257 257 261 259 259 261 262 263 264 265 266 267 267 267 265 265 265 266 267 268 271 272 273 272 272 273
270 268 268 266 264 264 265 264 264 265 262 262 263 259 263 263 266 270 262 259 258 260 265 262 259 262 260 258 257 258 270 262 263 264 263 267 268 268 269 270 270 269 268 267 267 268 269 269 271 271 271 271 272 271
268 267 266 265 264 264 265 268 266 263 259 259 261 261 261 264 267 268 260 257 260 260 260 260 259 257 258 260 260 260 268 261 264 274 276 277 278 277 277 277 271 269 268 268 269 269 269 270 271 271 272 271 271 271

GFSWCAN_sfc_thetae_030.txt.gz
Theta_e
306 306 306 305 304 303 303 301 302 302 302 302 303 303 301 301 300 294 290 291 286 281 283 285 288 286 286 292 287 289 289 289 287 285 284 283 281 283 281 284 285 284 283 283 284 280 278 292 292 289 292 291 292 291
307 306 306 306 304 303 301 302 302 302 302 302 303 303 303 301 300 298 291 294 294 287 284 288 289 289 288 288 287 291 289 288 289 285 283 284 283 283 282 279 284 282 285 283 284 283 290 293 293 295 294 293 290 289
306 306 305 305 303 302 302 302 302 303 302 300 301 302 304 301 301 299 293 293 290 288 286 284 284 289 290 289 292 285 294 297 291 291 288 287 284 285 281 281 281 286 291 288 287 289 290 293 293 294 293 291 291 291
306 305 305 304 303 303 303 303 303 303 302 301 301 301 302 301 301 300 295 294 292 289 280 280 287 284 290 291 290 291 290 293 295 295 289 287 284 288 284 285 285 287 290 288 288 290 291 292 295 294 294 292 292 291
306 305 305 304 304 303 303 303 303 303 303 302 300 302 302 301 300 296 292 292 294 288 280 281 286 288 288 288 289 291 289 288 291 294 291 287 288 288 286 286 284 288 287 286 285 289 290 292 294 294 293 292 292 290
306 305 305 304 304 303 302 302 302 302 303 302 301 302 301 300 299 293 287 289 291 294 284 277 283 283 287 287 285 285 290 290 293 295 292 291 293 289 285 287 290 290 291 293 292 291 293 294 294 292 292 292 291 290
306 306 306 304 303 302 302 302 301 302 302 301 302 301 299 299 294 289 284 287 296 293 284 275 278 288 289 288 286 289 295 296 296 295 293 291 292 292 289 286 290 290 289 290 292 293 293 293 291 292 291 291 291 288
305 305 304 304 303 302 301 301 302 302 300 301 300 299 299 299 296 290 290 296 296 289 286 277 279 284 292 290 288 296 292 296 297 294 295 289 292 291 288 290 288 288 288 291 290 290 290 291 291 290 288 287 286 286
305 304 303 303 302 302 301 301 301 301 300 301 298 299 294 289 284 286 298 298 294 289 281 281 277 281 295 289 295 297 298 290 295 293 293 292 288 287 288 286 285 286 286 285 286 286 286 286 288 291 289 286 285 286
304 304 303 302 302 301 301 301 301 301 299 296 292 289 286 287 296 297 292 287 286 287 285 280 286 282 295 294 292 293 293 290 286 291 294 291 288 286 286 286 286 286 285 284 282 283 281 283 284 286 288 288 286 286
304 304 303 302 302 302 301 301 300 299 294 288 283 284 288 294 288 289 284 283 284 282 285 284 286 288 296 291 291 294 288 288 284 287 290 287 287 286 284 284 285 283 283 284 285 285 286 286 286 287 288 289 287 286
304 303 303 303 302 301 301 300 299 294 291 289 287 291 291 288 285 282 281 285 284 283 289 287 289 292 294 295 290 291 286 287 283 291 287 282 284 282 282 282 283 283 283 285 288 289 289 289 289 289 290 291 289 286
305 304 304 303 302 301 300 299 299 297 294 291 289 285 283 283 278 278 274 281 284 286 286 286 285 291 293 293 289 288 285 285 287 285 284 280 281 281 281 282 282 283 286 286 286 287 288 288 290 288 288 290 288 286
305 304 303 303 302 301 300 298 297 294 287 280 280 275 278 277 280 278 280 276 285 286 286 287 287 288 289 287 288 284 286 285 282 280 278 276 279 281 282 282 282 282 283 283 285 285 286 287 288 289 287 286 286 285
304 304 303 302 302 301 299 298 295 290 283 275 279 273 275 280 278 279 281 283 282 288 287 287 287 289 286 285 287 284 283 281 282 279 276 276 282 280 281 281 282 282 282 282 283 283 284 284 285 287 287 286 284 283
304 303 300 301 301 301 298 294 291 286 279 275 278 276 279 277 276 277 277 280 287 286 287 286 285 285 285 283 283 282 281 279 279 277 277 281 280 280 281 281 281 282 282 282 282 282 283 283 282 283 286 287 286 285
303 296 301 301 301 298 295 286 280 273 272 273 274 279 278 276 278 278 282 283 286 285 283 284 283 283 285 282 281 284 282 281 280 281 282 280 279 279 279 280 281 281 281 281 281 281 281 281 282 282 280 282 284 285
292 295 301 300 294 291 286 281 273 274 274 269 270 274 281 282 281 282 282 283 283 282 282 282 282 282 282 279 279 280 274 274 283 283 282 278 278 279 280 279 280 279 279 278 278 278 278 279 279 279 279 279 279 280
293 297 300 297 293 286 280 278 275 269 270 268 273 277 281 282 283 282 281 282 282 283 281 281 279 280 282 277 276 272 272 275 279 279 278 279 278 278 277 276 276 275 275 274 278 280 279 278 278 278 278 279 278 278
299 301 298 295 292 282 275 274 281 275 269 271 271 271 276 279 280 280 280 281 280 276 276 276 277 282 280 279 277 277 277 279 278 276 276 276 275 271 273 273 273 272 271 271 273 279 277 276 277 277 278 279 278 277
296 296 294 291 287 282 277 270 269 269 266 269 266 270 272 274 274 275 276 280 275 276 274 278 278 279 281 279 279 281 280 279 277 277 275 270 273 272 270 269 267 273 273 274 273 274 275 273 274 276 278 278 277 277
290 293 287 288 284 280 279 276 269 270 268 264 266 269 265 265 267 271 274 274 272 278 278 276 274 276 277 275 275 274 278 277 275 276 278 278 272 269 269 269 268 264 263 265 269 271 272 273 274 277 279 279 279 277
291 289 285 284 280 277 271 276 270 265 266 263 262 263 263 263 266 274 271 272 274 279 280 276 272 271 275 273 273 272 274 274 274 273 274 274 273 271 269 268 268 263 263 268 269 269 268 275 277 279 279 279 276 276
290 284 280 275 277 273 273 268 271 269 266 265 261 262 262 262 268 269 268 272 275 276 274 269 271 273 273 272 272 273 273 274 271 270 271 271 267 271 271 271 271 269 269 270 268 268 269 273 278 277 276 274 276 273
281 276 279 271 269 267 264 263 263 268 262 260 261 263 263 263 262 261 266 272 272 271 270 271 273 272 273 272 271 272 273 273 272 272 269 272 269 267 267 269 270 270 270 263 266 267 266 268 268 269 270 273 271 275
275 271 275 270 264 268 268 261 262 262 262 261 263 263 261 261 260 265 269 270 271 269 269 273 274 272 272 272 272 270 272 272 272 271 268 271 272 269 264 265 267 268 268 267 265 265 266 267 267 267 268 270 275 276
273 269 276 277 273 270 267 268 269 264 260 263 263 262 263 260 261 268 271 269 268 267 267 270 274 275 273 272 271 271 270 272 270 269 267 267 268 270 268 266 267 268 268 266 266 267 268 268 267 267 267 268 269 270
276 271 269 269 268 266 264 264 264 265 266 269 269 263 266 266 269 273 273 270 268 265 264 265 266 268 269 269 269 270 266 265 262 262 263 265 263 262 262 264 265 274 271 267 267 267 269 269 269 268 267 267 268 269
276 271 270 262 262 263 266 267 266 269 274 270 268 267 268 272 274 271 271 269 267 267 268 268 267 263 262 263 264 263 263 267 267 265 264 265 261 265 259 261 262 261 262 263 271 275 273 271 269 269 269 269 270 270
271 269 265 261 265 265 268 269 265 266 269 271 271 269 269 270 273 269 268 266 268 270 270 269 267 267 268 269 265 263 261 260 263 266 265 265 264 261 258 259 261 263 263 263 264 264 271 270 268 266 268 270 270 271
269 264 262 264 264 264 261 262 263 271 263 261 262 264 267 266 269 271 269 270 269 265 264 263 260 261 264 262 261 259 263 259 258 260 260 260 261 261 263 265 266 265 265 265 266 264 263 262 262 263 265 267 270 274
269 271 269 265 263 258 259 259 259 260 258 259 260 257 262 263 266 272 266 263 263 265 268 267 265 266 263 261 259 258 270 260 259 260 260 262 264 266 267 268 267 268 268 266 265 266 265 264 264 265 268 269 270 271
269 269 267 266 263 260 261 262 262 263 259 259 260 261 261 264 267 271 264 261 264 265 263 263 261 259 259 260 259 259 266 259 262 272 275 276 278 278 278 272 270 272 269 268 267 265 264 264 265 266 268 269 269 269

GFSWCAN_sfc_thetae_033.txt.gz
Theta_e
307 306 306 306 306 306 304 303 302 303 303 303 303 302 303 302 300 296 292 291 287 282 283 285 286 286 285 289 288 288 290 289 286 286 286 285 281 283 281 283 285 284 282 283 283 280 277 291 291 290 294 293 294 293
307 305 306 306 306 305 304 303 303 303 303 303 302 301 301 302 301 298 291 293 294 287 285 288 289 288 287 287 284 286 288 287 289 284 283 283 283 282 281 279 283 282 284 283 283 283 289 292 294 295 295 294 293 291
306 306 306 305 305 304 304 303 303 303 303 303 302 301 300 301 302 299 293 293 291 288 286 286 285 289 291 289 290 282 290 296 291 289 286 285 284 285 281 281 281 286 289 286 286 289 290 293 295 294 294 293 292 292
306 306 306 305 305 304 304 304 303 303 303 303 302 301 301 301 302 300 294 293 292 287 282 281 287 284 288 289 289 289 288 291 288 291 287 287 284 287 283 285 284 287 289 287 286 289 291 291 294 294 294 293 292 292
307 307 306 305 305 305 304 304 302 302 302 303 301 299 301 302 301 297 293 292 293 288 281 281 286 288 288 287 287 287 286 285 285 286 292 288 286 286 284 285 283 288 288 287 286 290 291 291 294 294 293 292 293 292
307 307 306 306 306 305 304 302 302 302 302 302 301 301 302 300 299 293 286 289 291 294 283 277 283 282 284 286 287 286 287 287 286 289 292 291 291 288 282 283 288 289 291 292 291 292 293 294 294 293 290 291 291 291
306 306 306 306 306 304 303 302 301 302 302 301 301 301 299 299 294 287 284 287 295 292 283 273 274 286 291 285 284 283 285 288 288 288 292 290 290 290 286 282 289 290 291 290 291 291 291 292 290 290 290 290 291 289
306 305 304 304 304 303 302 301 301 301 302 301 301 299 300 299 296 289 290 297 295 289 285 276 274 282 289 285 282 288 284 286 289 291 295 290 291 290 285 288 287 288 288 288 288 289 290 289 288 289 291 288 287 287
306 305 304 303 303 302 302 302 301 302 301 301 298 298 294 289 285 286 297 298 294 288 278 278 274 277 293 289 290 289 291 285 293 289 293 291 290 287 287 287 286 285 285 285 286 286 286 286 285 286 287 289 286 287
306 305 304 303 302 301 302 301 301 301 300 296 292 289 286 289 295 296 293 288 286 287 285 279 285 281 289 288 289 288 292 288 285 291 293 290 289 286 285 285 285 285 284 283 282 282 280 281 284 284 285 288 289 288
304 304 304 303 302 302 302 301 301 299 296 289 284 284 288 295 289 288 284 282 283 280 284 284 284 284 295 290 289 293 287 287 284 287 288 286 286 284 283 283 283 282 281 282 284 284 286 287 286 286 286 288 289 289
304 304 303 303 302 302 301 300 300 293 291 291 289 291 291 288 285 282 280 284 283 282 288 287 288 289 292 295 290 290 286 286 282 291 287 284 284 280 281 281 281 281 281 284 285 287 288 288 289 289 287 288 290 290
304 304 303 303 303 302 301 299 299 298 294 290 288 285 283 283 278 277 276 280 282 285 286 286 284 289 292 293 288 287 284 284 287 285 283 280 279 280 280 281 281 282 283 284 284 287 287 287 289 290 288 288 288 287
304 304 304 303 303 302 300 299 298 294 286 278 275 273 277 277 280 280 281 280 283 284 285 286 286 287 289 287 288 284 286 286 282 280 277 279 277 279 280 282 282 281 282 282 283 284 285 285 285 287 288 287 286 286
303 304 303 303 303 301 300 298 296 290 280 274 277 272 275 280 280 279 282 284 281 286 285 285 286 288 285 285 286 284 283 280 282 280 275 274 280 282 280 281 281 281 282 282 282 283 283 283 283 284 286 287 286 284
303 303 300 302 302 301 299 294 291 286 275 272 278 273 278 276 276 277 277 278 286 284 286 285 284 284 284 284 283 282 279 278 280 279 275 282 282 280 280 281 281 282 282 282 282 282 282 282 281 282 284 285 286 285
303 296 301 302 302 299 295 286 280 272 270 271 269 276 275 273 277 278 281 282 285 284 282 283 282 282 284 282 280 280 280 283 277 277 280 283 279 279 279 280 281 281 280 280 280 281 281 281 281 281 280 280 280 283
292 292 302 300 294 292 287 284 274 277 268 267 269 271 278 279 278 281 282 282 281 280 280 281 280 280 282 280 281 283 280 274 275 277 282 282 279 279 280 279 279 278 278 278 278 278 277 277 278 278 278 278 278 279
293 295 300 297 294 287 277 277 276 268 270 267 271 273 276 278 280 281 281 281 282 282 280 278 276 278 279 278 278 275 272 275 279 279 279 278 278 279 278 276 275 273 274 273 276 277 277 277 276 276 277 278 277 278
299 300 298 296 292 283 272 273 281 274 266 270 269 267 272 274 276 276 277 280 280 279 277 276 277 281 282 281 279 283 282 280 278 277 277 276 275 271 273 273 273 271 270 269 271 278 275 274 275 275 275 280 277 276
294 295 294 291 287 284 276 267 270 269 267 270 266 266 269 268 267 266 268 276 276 273 274 279 280 282 282 282 280 281 281 280 278 279 278 272 275 273 270 268 267 272 272 273 272 272 273 272 272 274 276 279 279 277
290 293 288 289 285 281 280 277 269 271 272 265 266 267 269 263 261 263 266 273 272 276 278 279 279 277 277 275 277 276 279 278 276 276 278 278 272 270 269 269 267 265 264 265 269 270 271 272 273 275 276 279 280 276
292 290 286 285 281 276 273 274 273 268 266 265 261 262 261 259 261 272 269 269 273 278 278 276 273 271 273 273 274 272 274 275 274 274 275 274 273 270 269 269 268 263 263 268 268 268 266 275 275 276 276 276 276 275
291 285 282 278 280 273 273 266 271 269 269 267 263 261 261 259 264 269 266 268 273 276 275 273 273 273 273 273 273 272 272 273 271 270 271 272 268 271 271 270 270 268 269 269 267 268 268 272 275 275 274 269 270 271
280 278 280 277 274 272 265 263 262 268 264 261 261 262 262 261 261 259 262 268 269 274 274 273 272 274 275 273 271 272 273 274 272 272 270 271 268 267 267 269 270 271 270 265 266 267 266 266 267 267 268 267 267 267
275 273 276 273 268 268 266 261 264 265 263 261 264 261 258 259 259 264 266 268 272 273 273 274 274 273 273 274 273 272 273 273 272 272 269 272 272 270 270 268 268 270 270 269 267 266 266 266 266 265 266 268 273 271
271 270 276 278 274 270 267 267 268 263 259 263 264 261 260 260 261 267 269 268 271 273 272 271 273 275 274 272 273 272 270 272 272 271 268 268 271 273 272 270 270 270 268 267 266 266 266 266 266 266 266 265 265 267
275 271 269 269 272 268 265 263 262 262 265 268 268 262 263 265 269 271 271 269 270 269 269 268 268 269 270 269 268 269 265 265 265 266 267 267 265 263 265 265 265 274 267 266 266 265 266 266 266 266 265 266 267 267
275 273 270 268 262 264 266 267 266 268 272 269 267 266 267 270 268 267 268 268 267 270 272 270 270 267 265 263 262 263 265 269 270 271 271 271 264 267 259 261 260 260 260 261 271 273 267 268 269 269 268 268 269 269
272 273 267 261 265 265 269 269 266 264 268 271 270 268 267 267 268 265 265 265 268 273 276 274 272 270 271 268 268 266 266 267 269 272 271 269 266 261 257 259 259 260 259 260 262 262 270 267 267 264 265 265 266 266
270 266 263 263 266 268 263 261 261 271 261 259 258 262 267 265 266 267 270 272 274 269 267 270 268 266 269 268 269 267 268 266 264 263 261 259 258 258 260 261 263 262 261 262 263 264 263 263 263 263 262 262 262 269
264 267 266 262 263 261 261 262 260 260 256 257 260 254 258 260 263 270 267 264 264 265 270 270 268 269 267 265 263 262 270 263 259 259 259 260 260 262 265 265 264 263 263 264 266 266 265 264 264 263 263 262 264 266
261 260 259 262 263 264 263 265 260 261 256 256 260 260 259 263 267 271 265 263 263 264 265 265 264 263 262 263 263 262 266 259 263 271 274 275 277 275 274 272 270 268 267 268 267 266 265 264 264 265 265 266 267 268

GFSWCAN_sfc_thetae_036.txt.gz
Theta_e
308 307 306 307 306 306 306 305 304 304 304 304 303 303 302 302 302 299 297 296 292 287 287 287 287 287 287 286 287 290 293 293 292 290 289 288 287 288 287 289 287 286 285 284 286 282 279 295 295 291 297 298 298 297
308 307 306 306 306 306 305 305 303 304 304 303 303 302 301 301 301 300 294 296 296 289 288 291 291 291 290 289 285 285 286 289 295 293 292 293 289 289 289 284 291 286 290 287 288 288 294 297 298 300 299 298 298 297
307 306 306 306 306 305 304 304 304 304 304 304 304 303 302 301 302 301 295 296 294 288 288 288 287 292 294 292 293 284 287 292 291 290 292 293 290 292 287 288 290 292 294 291 291 295 295 297 299 298 298 298 298 298
307 306 306 306 306 305 305 305 304 303 303 303 303 301 300 300 302 302 296 297 295 289 282 284 290 288 292 293 291 291 290 291 288 287 290 292 290 294 291 291 291 293 293 292 292 295 296 298 299 300 299 299 299 299
307 306 306 307 306 306 306 305 303 302 302 302 302 301 301 302 301 300 297 296 297 289 282 284 289 290 292 291 290 290 288 287 286 283 285 290 294 293 292 292 290 294 294 291 291 297 297 297 299 299 298 296 296 296
307 307 307 307 307 306 304 304 302 302 302 302 301 302 301 301 299 296 288 293 295 295 285 279 288 286 288 289 288 288 288 287 287 284 284 289 296 295 291 290 295 296 296 297 296 298 299 300 298 298 294 295 295 296
307 307 306 305 306 304 303 302 301 302 302 302 302 301 301 299 298 291 287 292 296 295 285 279 280 287 290 288 287 287 289 288 287 285 284 288 294 295 292 288 294 296 297 296 296 296 295 296 296 294 293 294 295 295
306 306 304 304 304 304 302 302 302 302 302 302 301 299 299 299 297 292 294 297 296 290 286 278 279 283 290 285 283 287 284 286 286 287 290 289 293 294 289 293 294 294 294 293 293 292 292 292 292 292 292 293 292 293
306 306 305 304 304 302 302 302 302 302 302 301 297 298 296 292 289 291 297 298 295 289 281 281 279 280 289 289 289 287 288 281 288 287 290 293 291 289 293 293 293 293 292 292 290 290 290 290 290 290 290 291 291 292
306 306 305 303 302 302 301 301 301 301 300 296 294 290 287 291 295 296 293 288 286 287 286 281 286 282 287 289 287 287 288 285 284 289 294 289 289 290 289 290 292 290 289 288 288 288 287 287 289 290 289 291 291 292
306 305 305 304 303 302 302 301 300 299 297 292 287 286 291 295 291 289 284 283 284 281 284 283 284 283 291 286 288 289 286 287 285 287 289 287 287 288 287 287 287 288 288 288 288 288 288 288 288 288 290 291 291 292
305 304 304 304 303 302 301 300 299 296 294 293 292 293 292 288 286 282 282 284 283 282 288 287 288 289 289 295 290 291 287 288 284 292 288 284 286 284 286 285 285 286 287 287 288 288 289 288 289 289 290 289 289 290
304 304 304 303 303 302 301 299 299 297 294 292 288 285 284 284 280 279 278 282 282 285 286 285 284 289 291 293 289 288 284 285 289 286 285 287 284 284 284 285 285 286 286 287 287 287 287 287 288 288 289 288 287 288
304 304 304 304 303 302 300 299 297 294 290 283 279 274 279 279 282 282 282 283 286 285 285 285 284 287 289 286 288 285 287 287 284 282 283 285 284 284 285 285 285 284 285 285 285 286 286 286 286 287 288 289 287 286
302 304 304 303 303 302 300 298 296 292 286 280 279 275 277 283 283 284 284 285 287 287 286 284 284 287 286 285 288 286 284 282 284 283 286 285 284 284 284 284 284 284 284 284 284 284 284 284 284 285 286 288 288 287
303 303 301 302 302 301 298 294 291 288 280 280 279 277 280 279 281 281 282 282 287 286 286 285 284 284 285 285 284 284 282 281 286 286 285 285 284 283 283 283 284 283 283 283 284 284 284 283 283 283 284 283 283 286
302 297 302 303 301 296 294 289 285 278 277 276 276 279 279 278 278 281 283 284 286 284 282 283 281 282 285 284 282 285 284 288 287 285 284 286 284 283 283 283 283 282 281 281 282 282 282 282 283 283 282 282 282 282
294 295 302 299 295 292 287 285 280 277 274 276 276 279 280 282 281 282 284 285 284 283 283 281 281 279 281 281 284 288 287 285 283 284 285 284 283 283 282 282 281 280 280 280 281 281 281 280 279 279 279 281 282 282
294 297 299 298 295 288 283 281 280 275 275 274 275 277 279 281 283 283 284 284 284 285 283 281 279 278 281 285 286 287 285 284 285 284 284 284 283 283 282 281 279 279 278 279 279 279 280 279 279 278 278 280 281 281
300 300 298 296 294 286 281 277 281 275 273 275 275 275 277 279 279 280 281 282 282 281 279 278 279 282 285 288 287 288 287 285 284 282 282 281 281 280 280 280 279 278 278 277 277 279 279 278 277 277 278 280 279 279
295 295 295 292 288 287 283 277 275 275 273 274 272 272 275 274 275 275 275 279 279 277 277 280 282 285 285 285 285 285 285 284 284 285 285 283 280 280 279 278 277 276 277 277 277 277 276 276 276 277 278 279 280 280
291 294 289 290 287 282 282 279 276 275 274 272 271 270 272 271 271 272 272 274 276 278 280 281 283 283 282 282 282 281 284 283 282 281 281 281 278 277 277 277 275 276 276 277 276 276 276 276 276 278 279 279 280 279
292 290 287 285 283 280 277 277 276 273 271 270 268 269 270 268 268 272 270 272 274 278 280 280 279 277 278 278 277 278 278 280 280 279 279 279 278 278 278 277 277 276 276 276 275 275 275 276 277 277 278 279 277 277
291 286 279 281 281 278 275 272 273 272 271 269 269 267 268 268 269 270 269 272 275 277 277 276 277 277 278 277 277 279 279 278 279 277 277 277 276 276 276 276 276 275 276 276 275 275 274 274 276 276 276 276 276 275
278 277 280 273 278 274 270 268 266 269 269 264 264 267 268 267 268 266 268 273 274 276 277 276 276 276 276 277 278 278 277 277 278 278 277 276 276 274 274 275 275 275 275 274 274 274 274 273 273 274 274 274 273 273
275 276 276 274 273 272 270 267 265 267 265 261 264 266 265 267 264 268 271 274 275 276 277 277 276 276 277 277 277 278 278 277 277 277 278 276 276 276 276 274 274 275 275 275 275 273 273 272 272 271 272 272 274 273
272 270 275 279 275 272 270 270 269 267 261 264 266 265 265 263 266 271 274 273 275 276 275 275 275 276 277 278 278 278 275 276 277 277 274 275 277 277 277 275 274 276 274 274 273 273 273 272 272 271 271 271 271 271
275 273 271 273 272 272 270 267 266 265 268 270 269 265 265 268 272 275 275 274 273 272 272 273 273 274 276 277 277 275 273 271 270 272 273 274 271 271 271 273 272 275 273 273 273 272 272 271 271 271 270 270 271 271
274 273 272 269 265 268 271 271 268 270 273 271 269 269 270 272 273 273 274 272 269 271 272 275 277 272 272 272 271 272 272 272 273 273 273 275 273 274 267 268 269 269 269 270 274 274 270 270 271 271 271 271 272 272
270 273 271 269 269 269 271 271 270 268 270 272 272 271 271 271 272 270 270 268 269 272 275 278 279 274 275 275 275 272 270 271 274 276 276 275 274 270 267 268 269 269 268 268 268 268 271 271 270 269 269 269 269 270
275 272 269 268 268 270 268 265 264 271 266 264 263 268 274 273 270 269 271 275 276 276 272 274 274 272 273 272 272 273 274 272 270 270 268 268 268 268 268 268 268 268 267 267 267 266 267 268 267 267 267 266 265 269
266 269 267 263 266 261 260 262 260 262 262 261 266 261 262 263 266 277 273 269 268 270 274 275 272 274 272 273 271 271 273 268 267 266 265 268 267 268 268 268 267 267 267 267 267 267 267 267 267 266 266 265 265 265
260 259 257 261 263 262 261 262 262 261 258 260 263 263 264 268 269 272 264 263 267 267 268 268 269 268 267 267 268 267 269 266 266 271 272 273 274 273 271 270 271 269 269 269 268 268 267 266 265 265 265 265 266 266

GFSWCAN_sfc_thetae_039.txt.gz
Theta_e
309 308 307 306 306 307 306 306 305 304 304 304 304 304 302 302 302 300 298 299 293 288 289 290 289 285 287 287 286 290 294 296 294 291 289 289 287 290 288 290 288 287 285 285 286 283 280 297 298 293 298 300 301 300
309 308 307 306 306 306 305 305 304 304 304 304 304 304 303 303 301 301 294 299 297 290 289 293 293 293 291 289 286 287 286 288 292 293 294 293 289 292 290 285 293 286 290 288 289 288 296 298 299 301 301 299 300 301
308 308 307 306 306 306 305 305 304 304 304 303 303 302 302 301 301 301 296 296 294 289 288 289 288 293 295 294 294 285 288 290 289 288 289 294 290 294 288 289 291 293 296 291 291 294 296 297 300 301 301 300 300 300
308 307 306 306 306 306 306 305 305 304 303 303 303 302 302 302 302 302 296 297 296 291 283 286 292 289 293 294 293 292 291 292 290 287 284 290 290 297 292 293 293 296 295 292 292 296 297 298 301 301 300 301 300 301
308 306 306 306 306 307 306 305 305 303 303 302 302 302 302 302 302 300 299 299 298 290 283 284 291 291 292 292 291 291 290 288 287 285 284 286 291 294 295 295 292 296 295 292 291 298 298 299 301 302 301 300 298 297
307 307 306 306 307 307 306 304 303 302 302 302 302 302 302 301 299 297 290 296 297 297 286 281 290 288 289 291 289 289 289 288 287 285 285 288 291 292 291 289 296 299 300 301 298 301 301 302 302 301 299 298 298 297
307 307 306 306 305 305 303 303 302 302 302 302 303 302 301 299 299 292 288 293 297 296 286 282 283 289 290 289 289 288 289 288 287 285 283 285 288 286 292 289 296 299 300 299 301 300 298 298 298 297 296 296 296 297
307 306 306 304 305 304 303 302 302 302 302 303 302 300 299 300 298 294 296 297 297 291 287 280 281 285 291 287 285 289 285 286 287 285 286 285 287 288 288 295 296 298 299 298 297 296 295 295 294 294 295 295 294 295
306 306 306 304 304 303 302 302 302 302 302 301 298 298 298 295 291 293 297 298 296 290 283 283 280 282 289 288 289 286 286 280 287 283 284 288 285 284 293 295 295 296 296 297 294 293 293 293 293 293 293 294 293 294
306 306 306 304 303 302 302 301 301 301 300 297 295 292 288 292 296 296 292 288 286 287 286 281 287 283 288 288 286 285 286 284 281 285 291 287 287 293 291 293 297 294 293 293 291 290 290 290 291 292 292 293 293 293
306 306 305 304 303 302 302 301 301 301 299 295 291 288 293 296 292 289 285 284 286 282 285 285 285 283 291 284 287 287 286 287 282 287 286 286 287 291 289 289 290 291 291 290 291 291 291 291 290 289 289 291 293 292
306 305 305 304 303 302 302 301 300 298 296 294 293 294 294 290 287 283 283 286 284 284 288 286 287 288 289 290 288 289 285 287 284 289 286 285 287 287 288 287 287 289 290 290 291 290 290 289 289 289 289 290 289 290
305 304 304 304 303 303 302 300 299 297 295 295 289 286 286 286 282 280 278 282 282 286 287 286 282 287 290 291 288 287 285 286 289 286 285 288 286 286 287 287 287 288 289 289 289 289 289 289 289 288 287 289 289 287
304 304 304 304 304 302 301 300 297 295 293 286 282 278 283 282 283 284 283 284 287 287 286 286 284 285 289 286 288 284 288 287 284 283 284 289 287 287 287 287 287 287 288 288 288 288 288 287 287 288 288 290 290 288
304 304 304 304 303 302 301 298 295 295 290 284 282 280 281 286 286 286 287 285 288 289 287 285 285 285 285 285 287 286 284 283 285 284 289 289 287 286 286 287 287 287 287 286 286 286 286 286 286 286 286 286 286 288
303 303 302 303 303 301 298 295 294 292 286 284 282 281 284 282 285 284 285 284 289 288 287 286 283 283 284 285 284 284 284 282 287 289 288 287 286 285 286 286 286 285 284 284 285 285 285 285 284 284 285 285 284 284
302 299 302 303 301 296 294 293 290 282 282 279 282 284 283 283 283 284 285 285 288 285 282 283 281 282 284 283 284 287 286 288 287 289 288 288 286 284 284 284 284 283 283 283 284 284 283 283 283 282 281 283 283 283
298 301 302 299 297 294 290 288 285 282 280 283 281 284 283 285 284 285 286 287 286 285 284 282 282 280 281 282 285 287 288 287 286 287 288 286 285 284 284 284 283 282 282 281 282 282 282 281 281 279 279 280 283 283
299 302 300 299 297 293 288 285 285 282 283 281 281 282 282 284 286 286 285 286 286 287 284 282 279 279 281 287 288 290 289 288 288 287 287 286 285 285 284 283 282 281 281 281 280 280 280 280 279 279 279 280 280 281
301 300 299 297 295 290 284 282 283 279 279 280 280 280 280 282 282 282 283 284 283 282 279 278 279 284 285 289 290 289 290 289 288 287 286 285 285 284 283 283 281 281 280 280 280 280 280 279 279 279 279 280 280 280
296 296 295 295 291 290 287 282 280 279 278 278 278 277 279 280 279 280 280 281 279 278 278 283 284 287 288 288 288 287 287 287 287 287 287 287 285 284 283 282 281 279 279 279 279 279 278 278 278 278 279 280 281 281
293 295 291 292 288 285 284 282 281 279 277 277 276 275 276 277 277 277 276 275 277 280 283 284 285 285 284 283 284 285 284 285 286 285 284 284 281 281 281 282 280 279 280 281 279 278 278 278 278 278 279 280 281 279
293 292 288 287 283 282 279 280 279 278 277 277 275 274 276 275 274 275 273 276 278 282 283 283 283 281 280 280 281 281 281 281 282 283 283 283 283 283 283 282 281 280 280 280 279 279 278 278 278 278 278 280 279 278
292 287 284 282 282 278 278 276 276 275 274 274 273 273 276 275 273 273 273 278 280 281 280 281 281 279 280 280 279 281 282 282 281 282 281 281 280 280 280 281 280 280 281 280 279 278 278 276 277 277 277 277 277 277
281 281 282 277 281 277 274 273 272 272 271 273 271 273 274 272 273 273 273 279 280 281 283 281 280 279 278 279 280 281 281 280 280 280 283 280 281 278 278 278 278 279 279 278 277 277 277 277 276 276 276 276 275 274
275 278 278 277 277 275 275 271 270 270 272 271 271 272 270 272 270 272 277 280 280 282 282 281 279 279 280 279 279 280 281 279 279 279 282 280 279 280 280 279 278 278 278 278 279 278 277 275 275 273 274 274 276 274
274 275 278 281 279 276 274 273 273 272 270 270 273 269 270 268 271 276 280 280 281 283 282 281 279 279 280 281 281 281 280 278 279 279 276 277 279 280 281 279 278 279 277 277 277 277 276 275 274 274 274 274 273 273
278 277 273 275 275 276 274 272 271 271 272 274 273 268 269 271 275 283 282 283 282 280 279 279 278 278 278 279 281 280 279 277 275 275 276 277 276 277 276 277 276 277 277 276 276 275 274 274 273 273 272 272 272 273
277 276 276 270 271 272 274 274 274 275 277 274 273 274 275 278 281 282 283 280 277 276 277 279 281 278 277 276 276 277 277 276 275 276 277 278 279 279 274 274 273 274 275 274 276 277 272 272 272 272 272 272 273 274
274 278 275 273 272 273 276 276 277 278 276 277 277 276 276 278 280 282 280 278 276 278 281 282 283 282 280 279 279 279 275 276 276 278 278 278 279 275 272 271 271 271 272 271 271 271 274 274 273 272 271 271 271 271
277 276 274 274 273 278 280 273 271 273 273 273 273 273 276 279 281 283 279 281 281 282 281 280 280 280 277 277 277 276 276 277 275 275 277 274 273 273 272 272 273 272 271 270 270 270 269 270 270 269 269 268 267 270
274 273 272 269 272 270 268 270 272 272 273 270 272 271 271 271 272 279 282 280 278 278 280 280 279 279 278 277 276 276 277 273 271 270 269 273 271 271 271 271 270 270 270 269 270 269 268 267 268 269 268 267 266 266
268 268 267 270 271 271 269 270 270 269 267 268 269 271 273 272 271 278 272 269 272 273 273 273 273 271 269 269 270 271 272 270 269 272 273 273 273 273 271 271 272 271 270 270 271 270 268 267 267 266 266 265 265 265

GFSWCAN_sfc_thetae_042.txt.gz
Theta_e
309 309 308 307 306 306 306 305 305 304 304 305 305 305 304 303 303 299 297 299 292 287 288 290 290 285 285 286 282 286 289 293 292 287 287 286 283 285 283 286 285 284 282 283 284 281 276 296 295 290 294 297 297 296
310 309 308 307 306 306 305 305 305 304 304 304 304 303 303 302 301 301 294 297 297 290 288 293 293 293 291 289 286 286 285 285 289 288 289 289 286 286 285 281 289 283 286 284 285 285 292 295 294 297 297 296 297 296
310 309 308 307 306 306 306 305 305 305 304 303 303 303 302 302 302 301 297 297 294 290 288 288 288 292 295 294 294 284 287 290 288 287 286 289 287 289 282 284 287 288 291 287 288 290 291 294 297 297 296 296 297 298
309 308 307 306 305 306 306 306 306 306 304 303 303 303 303 303 303 302 297 297 295 290 281 284 292 290 293 293 293 292 290 291 289 288 284 285 288 293 288 289 288 291 291 288 288 291 293 295 296 297 297 297 297 297
308 308 306 306 306 306 307 307 305 304 303 303 303 303 303 302 302 299 297 298 298 289 282 283 290 291 292 291 291 291 289 287 285 283 282 281 288 288 291 290 288 292 290 287 286 293 292 294 297 299 297 297 295 294
308 307 307 306 306 306 306 304 304 303 302 303 303 303 302 301 299 296 289 295 297 296 285 280 289 288 289 291 289 288 288 287 286 283 282 284 288 286 282 285 292 295 296 296 292 297 296 297 298 297 297 296 294 293
307 307 307 306 305 306 304 303 303 302 302 302 303 302 300 300 297 291 288 292 297 295 285 280 281 288 290 289 288 287 288 288 286 285 282 281 282 287 286 282 291 295 297 296 297 297 294 294 293 294 293 293 294 293
307 307 306 305 305 305 304 302 303 302 302 302 301 298 299 300 298 293 295 297 297 290 286 279 280 284 289 286 284 288 284 285 285 282 283 281 283 283 280 288 294 296 296 296 294 293 291 292 292 292 292 292 291 291
306 306 306 305 304 304 303 302 302 302 302 299 296 299 297 294 290 291 297 297 296 289 283 282 279 280 289 287 288 284 285 279 284 281 281 283 281 279 283 285 291 294 293 293 292 291 290 290 290 291 290 290 289 290
306 306 306 305 304 303 302 301 301 301 301 298 294 290 288 290 295 295 292 288 286 287 286 280 287 282 288 287 286 283 284 282 277 281 286 281 284 287 291 293 293 291 291 291 288 285 284 283 287 288 288 289 290 290
306 306 305 304 303 302 302 301 301 301 300 293 288 287 291 296 292 289 285 284 285 282 285 285 285 283 290 284 285 287 285 283 279 284 283 284 285 288 289 288 290 289 290 289 290 290 289 288 287 286 288 290 291 291
306 305 305 304 303 302 302 301 300 297 293 292 291 293 293 289 286 282 282 286 284 283 287 286 285 286 288 290 286 288 284 284 282 288 285 284 286 286 287 286 287 288 288 289 290 289 288 289 289 288 289 289 289 289
305 305 304 304 303 303 302 300 299 296 295 293 287 283 286 282 275 276 275 278 280 286 286 285 283 286 287 290 286 285 284 284 288 285 283 284 285 285 286 286 286 287 288 289 288 288 288 287 287 286 286 288 289 288
304 304 304 304 304 302 301 300 297 295 291 283 277 271 277 275 278 279 280 281 285 285 285 285 284 284 287 285 287 284 288 287 282 281 283 283 284 284 285 287 287 286 286 286 286 287 286 286 285 286 285 285 285 287
304 304 304 303 303 303 301 298 295 293 287 278 278 272 274 282 281 280 280 281 284 286 285 284 284 284 283 283 287 285 284 280 283 282 284 284 283 285 285 286 285 284 284 284 285 284 284 284 284 284 284 284 283 283
304 303 302 304 303 301 298 295 293 290 283 278 277 275 281 276 277 278 278 278 284 285 284 285 282 282 282 283 282 283 282 281 283 284 286 285 284 284 285 285 284 283 282 284 284 284 284 282 282 282 284 283 283 282
303 297 303 303 301 297 296 290 287 278 277 274 275 282 279 277 277 279 281 282 285 281 280 281 278 278 281 281 282 285 283 284 285 286 284 284 283 283 283 283 283 281 282 282 283 283 283 282 281 280 278 279 279 281
296 300 302 299 297 294 289 287 281 277 273 277 275 278 281 281 280 281 282 283 281 279 282 280 281 276 276 277 281 285 286 285 285 285 285 284 284 283 283 282 281 281 281 281 281 281 281 278 277 277 277 277 278 278
298 301 300 299 298 289 283 283 282 275 276 278 278 279 279 281 282 282 282 282 283 285 281 280 278 277 277 280 281 285 285 286 286 285 286 285 283 283 283 282 280 280 280 280 279 279 278 278 276 276 276 278 277 278
301 300 300 297 296 285 278 279 282 275 272 275 276 274 276 277 279 278 279 280 282 280 278 277 277 279 280 282 281 282 282 285 283 283 284 284 283 280 281 282 281 279 278 276 277 280 276 276 276 276 276 277 277 276
296 296 296 294 290 287 285 281 278 277 274 273 273 273 273 276 273 272 279 281 278 278 275 278 279 281 283 283 283 282 282 282 282 283 282 281 283 282 280 279 278 278 277 277 276 275 277 274 274 275 276 277 277 277
293 295 290 290 286 285 284 283 280 277 273 273 271 272 270 270 271 274 276 274 276 274 277 277 277 278 280 278 278 277 280 280 280 281 285 284 280 278 280 281 279 277 275 275 275 274 274 274 275 275 275 276 279 277
294 291 288 286 283 281 278 277 277 276 272 272 271 268 269 268 267 270 266 270 273 277 278 277 275 275 276 277 275 276 276 276 277 278 280 280 280 279 277 278 279 278 276 276 274 273 271 277 276 276 275 276 276 276
292 285 282 281 282 275 276 270 276 273 274 271 269 266 268 267 268 265 266 271 276 277 275 273 275 276 275 274 273 275 275 275 276 278 279 277 275 276 277 278 278 278 276 274 273 271 271 274 277 275 275 271 271 271
280 280 281 278 281 277 270 270 268 272 269 268 265 265 266 266 265 264 266 271 272 273 274 274 275 274 273 273 274 275 276 275 275 277 280 278 276 273 272 273 275 275 276 271 270 270 269 270 270 270 270 269 268 267
275 278 277 276 272 275 271 266 266 265 266 264 266 266 265 267 265 266 269 271 272 273 274 275 274 274 273 275 273 273 275 275 275 275 279 278 277 275 273 272 271 274 275 274 272 272 271 271 270 268 268 270 275 270
271 271 278 280 277 275 271 271 271 268 264 266 267 267 268 269 265 270 274 273 273 273 274 275 275 274 274 275 276 276 275 275 276 279 275 275 277 278 279 278 276 276 274 274 273 272 271 271 269 269 268 266 267 267
275 274 270 273 271 271 268 269 269 268 270 274 274 270 269 268 269 274 275 274 275 273 271 270 271 273 274 275 276 275 272 272 272 271 273 276 276 276 276 277 275 279 274 274 273 272 271 271 270 269 267 267 265 266
276 274 273 270 267 269 271 272 273 275 277 274 271 268 270 273 273 272 274 273 269 268 267 269 276 275 276 275 274 274 270 271 270 271 273 276 279 279 276 274 274 274 273 272 278 275 270 267 267 267 266 267 267 266
274 274 270 268 269 270 271 276 273 271 273 274 274 271 273 274 274 277 272 269 269 275 279 280 280 276 279 279 278 274 272 274 276 276 275 276 278 276 273 271 271 271 270 270 267 265 275 269 268 264 265 265 265 264
275 275 272 271 268 271 273 268 268 273 268 266 267 269 274 275 277 279 280 281 281 281 280 279 279 279 278 278 276 275 275 272 273 274 275 270 269 270 269 268 269 268 267 265 264 263 262 262 261 261 261 261 261 268
272 270 269 264 265 264 263 264 264 263 264 262 265 265 263 263 265 271 273 277 277 277 279 279 277 277 275 276 270 270 280 266 266 265 266 267 267 266 266 265 263 263 263 262 262 262 262 261 262 263 264 262 263 263
263 263 261 263 263 263 263 263 263 262 261 260 264 267 270 269 268 272 264 262 266 265 263 262 262 262 261 263 263 263 268 262 266 273 274 274 274 269 263 263 264 264 264 264 263 264 265 264 264 261 263 263 263 262

GFSWCAN_sfc_thetae_045.txt.gz
Theta_e
310 309 308 308 307 306 305 305 305 304 304 304 304 303 303 302 302 296 295 296 292 284 285 288 288 284 284 283 280 284 287 289 290 286 285 284 282 283 282 284 283 282 280 279 281 280 275 293 293 288 293 294 294 295
310 309 308 308 307 306 305 305 304 304 304 303 303 303 303 302 302 300 294 298 297 290 285 290 291 291 290 288 284 284 283 285 288 287 288 288 285 283 282 279 285 281 285 282 283 282 289 294 293 295 296 296 294 294
310 309 308 308 306 306 306 306 306 305 305 303 304 304 303 303 303 300 296 296 293 289 284 284 285 290 293 293 293 282 285 289 287 287 286 287 287 288 281 282 284 286 289 285 286 288 290 292 295 295 295 295 297 296
309 309 308 307 306 306 306 306 306 306 304 303 303 303 303 303 302 301 294 294 293 289 281 282 291 289 292 293 292 292 290 290 289 287 283 283 284 290 286 287 285 288 289 287 286 289 291 293 294 295 295 295 295 296
309 308 308 306 306 306 306 306 305 304 303 302 303 303 303 302 301 296 293 293 296 288 281 282 288 289 290 291 290 291 289 287 285 282 280 280 285 285 285 287 286 290 289 286 285 290 290 291 294 296 295 295 295 294
308 308 307 307 306 306 306 304 304 303 302 302 302 302 301 300 299 292 287 291 294 293 283 278 288 285 287 290 288 288 288 286 285 282 281 282 286 283 278 280 289 293 294 295 291 294 294 294 294 296 295 294 293 293
307 307 307 306 306 306 304 304 303 302 302 302 302 301 299 300 292 287 286 291 296 292 284 277 280 287 289 288 287 286 287 286 284 282 281 280 280 285 282 278 285 290 293 293 296 295 293 293 292 292 292 292 293 291
307 307 306 306 306 305 304 303 302 302 302 301 299 297 299 300 297 290 291 297 295 289 284 274 276 282 289 285 282 286 282 283 282 281 281 279 280 279 275 280 284 288 293 293 291 292 292 291 290 290 291 291 290 290
306 306 306 306 305 304 303 302 302 301 301 299 297 299 294 289 286 289 297 297 295 289 282 280 277 276 290 287 288 284 284 278 282 279 279 281 279 277 280 282 283 287 290 291 292 291 289 289 289 290 289 288 287 288
306 306 306 305 304 303 302 302 301 301 301 298 291 287 283 287 295 295 292 288 286 286 286 280 285 281 288 287 286 283 283 278 272 279 282 280 278 285 285 287 292 289 290 291 288 285 284 283 287 286 286 287 288 288
306 306 305 304 303 303 302 301 301 300 298 289 284 283 287 296 289 287 283 280 284 279 284 283 284 283 288 282 283 287 281 282 272 280 279 281 284 286 288 289 290 292 291 290 288 288 288 289 287 287 288 290 290 290
306 305 304 303 303 302 302 301 300 293 289 289 287 290 288 288 284 274 271 281 280 279 285 284 284 285 286 290 286 286 283 284 277 285 282 283 286 286 286 286 286 288 290 290 290 288 288 289 289 289 288 289 289 289
305 305 304 303 303 303 301 300 298 296 294 289 283 277 278 275 272 268 267 271 272 279 279 280 280 285 287 288 286 285 282 283 288 284 283 285 285 285 286 286 286 288 290 289 288 288 288 286 286 285 284 285 286 287
305 304 304 303 303 303 301 299 297 294 287 277 270 269 270 268 270 272 273 271 279 277 279 282 279 281 285 284 286 282 287 286 280 281 281 284 284 284 285 287 286 286 287 286 286 287 286 285 284 284 284 283 282 282
304 304 303 303 303 302 300 297 296 290 281 273 272 269 269 276 271 272 280 275 277 279 278 278 282 284 281 281 285 284 283 280 282 280 284 285 285 285 285 286 285 285 285 285 285 284 284 283 282 282 283 282 282 281
304 303 299 303 302 300 298 295 290 286 276 272 270 270 275 270 269 271 269 272 277 281 277 281 278 280 280 282 280 281 282 277 281 285 286 286 284 285 285 284 284 282 282 283 284 284 283 282 280 280 281 279 280 281
301 295 303 302 300 298 297 286 281 274 271 268 270 278 274 269 272 273 279 279 282 277 271 277 275 273 278 277 278 283 279 283 286 287 286 285 283 284 282 283 282 281 281 283 283 283 282 282 281 278 277 278 278 280
294 301 302 299 296 294 285 281 276 271 270 268 271 272 279 278 276 278 279 281 279 275 275 270 276 276 273 272 277 284 284 285 284 284 284 285 285 283 283 282 282 281 282 282 282 282 281 279 279 278 276 276 276 277
299 300 300 299 295 286 280 280 278 273 271 271 274 275 276 278 279 279 280 280 281 282 281 279 276 275 274 276 276 277 282 283 283 284 285 285 284 283 284 283 282 280 281 281 280 279 279 278 277 276 276 277 277 277
301 301 299 298 294 281 274 276 279 270 268 273 271 269 272 274 276 275 276 279 282 280 277 276 275 277 277 278 277 278 281 281 280 279 280 282 283 280 282 283 282 282 281 279 279 280 278 277 277 276 276 277 276 276
296 296 296 293 287 284 284 280 275 272 267 269 267 268 268 268 268 266 274 278 279 277 274 277 277 278 280 280 280 280 279 279 278 278 280 280 281 279 279 282 282 280 279 278 277 277 279 276 275 275 275 276 276 277
293 295 289 290 285 282 283 282 280 272 269 269 267 266 262 262 263 270 273 274 275 273 275 274 274 276 278 277 276 275 277 277 277 278 280 280 278 275 277 278 278 279 279 278 276 276 275 275 275 275 274 275 277 276
293 289 285 285 281 280 274 277 277 276 268 265 263 264 263 262 263 268 266 266 269 274 277 276 275 272 274 275 274 275 274 273 275 276 277 277 279 278 278 277 278 277 278 278 275 274 272 277 276 276 275 275 276 275
291 281 278 280 278 274 274 266 274 269 272 266 263 262 263 262 263 262 265 266 273 276 277 274 272 273 273 273 272 275 275 272 272 274 275 274 277 279 278 277 278 277 278 276 275 275 274 275 277 275 274 270 270 271
279 278 279 276 277 271 266 267 265 271 264 262 262 263 263 262 261 258 264 271 269 274 278 274 273 274 272 271 272 274 276 274 271 272 274 275 276 277 275 274 275 276 274 272 271 271 271 271 272 271 270 269 269 266
275 277 275 273 271 274 270 263 263 263 263 261 263 263 260 262 263 265 267 270 272 276 274 276 276 272 272 274 273 273 277 275 270 269 273 276 277 277 275 274 276 277 274 276 273 271 271 271 271 271 270 271 277 271
273 272 278 279 275 274 270 269 269 265 260 262 263 262 263 263 263 268 271 272 275 277 276 277 275 274 275 275 275 276 276 272 274 275 272 273 276 278 278 277 277 279 274 274 274 272 272 271 271 271 270 266 267 267
273 272 271 274 269 268 266 264 262 263 265 270 271 264 264 265 267 271 274 275 276 274 273 274 274 274 274 276 277 276 272 267 266 265 269 274 276 277 277 278 279 281 276 274 273 272 272 272 271 271 270 269 268 268
276 272 272 271 264 265 268 268 267 271 275 273 270 268 269 272 272 276 281 280 267 267 269 273 275 274 275 275 275 273 270 267 268 269 270 273 276 277 274 276 276 277 276 274 280 277 272 271 271 270 270 270 268 266
274 271 267 262 265 267 269 273 271 268 272 274 274 272 274 274 275 276 273 269 269 276 279 279 280 279 278 278 278 277 269 272 273 274 274 274 275 271 269 268 270 270 272 273 272 268 278 272 270 268 269 266 265 264
271 266 265 265 266 266 268 267 265 273 266 264 264 270 275 278 280 281 278 280 280 279 278 278 279 279 277 277 276 275 275 270 272 273 274 268 267 267 268 268 268 269 270 269 268 266 265 264 264 261 260 259 260 266
266 267 266 263 264 264 260 262 260 260 260 260 266 260 261 262 264 277 270 273 276 277 279 279 277 278 270 269 270 272 281 271 266 266 266 265 264 265 266 266 267 268 268 267 266 264 263 261 261 261 260 259 260 261
266 266 259 260 262 262 261 262 260 260 258 259 263 265 266 267 268 271 264 260 266 266 262 260 260 259 260 260 261 262 268 260 263 273 274 274 273 269 262 263 265 265 265 263 261 261 260 260 260 260 260 261 261 260

GFSWCAN_sfc_thetae_048.txt.gz
Theta_e
310 309 309 308 307 307 306 305 305 304 304 304 303 303 302 302 302 294 292 296 290 284 283 287 287 283 284 282 279 283 286 288 289 285 285 282 281 282 280 282 282 282 280 280 281 278 275 290 291 287 291 293 293 292
310 309 309 309 307 307 306 305 305 305 304 303 304 304 303 303 303 298 292 298 297 286 285 289 290 290 290 288 284 284 283 285 288 287 287 288 284 282 281 278 283 281 284 281 283 283 288 290 292 295 295 295 294 293
309 309 309 309 307 307 306 306 305 305 305 303 303 303 303 303 303 299 295 291 293 286 282 283 283 288 292 292 292 282 286 288 286 287 285 286 285 289 281 281 282 285 287 284 285 287 288 291 293 294 295 295 296 295
309 309 309 308 307 307 306 306 306 306 304 303 303 303 303 303 301 299 290 291 294 288 277 281 290 288 292 293 292 292 290 290 288 286 282 282 282 289 286 286 285 287 288 286 285 287 289 291 293 295 295 295 294 294
309 309 309 308 307 306 306 306 305 304 303 302 302 303 303 302 300 294 290 291 293 283 278 281 287 290 290 291 290 291 290 287 285 282 280 279 283 283 283 284 282 289 288 286 285 290 290 290 292 295 294 294 294 294
308 308 308 307 307 307 306 305 304 303 302 302 302 302 301 300 298 291 284 289 292 290 280 276 287 287 287 290 288 288 288 286 285 282 280 282 285 282 275 277 284 289 291 292 289 293 294 293 293 294 294 294 293 292
308 307 306 307 307 306 305 304 303 303 302 301 301 299 300 300 290 285 284 288 295 290 280 274 277 287 289 287 286 285 286 285 284 282 281 280 280 282 279 276 283 284 285 289 293 293 292 293 292 292 292 292 293 291
307 306 307 306 306 305 304 303 303 302 301 300 298 299 300 299 295 287 290 297 294 286 282 272 276 281 288 285 283 285 282 283 283 281 281 280 280 279 275 280 281 283 284 286 290 292 292 292 289 290 290 291 289 289
306 306 306 306 305 304 303 302 302 301 300 298 300 300 292 288 284 286 297 296 294 287 275 274 275 275 290 285 288 285 284 278 282 279 280 280 278 275 281 281 282 283 283 288 289 290 292 291 290 290 289 288 287 287
306 306 306 305 304 303 303 302 301 301 299 298 290 286 282 285 295 295 292 288 286 286 281 273 279 275 286 284 284 282 282 277 269 279 281 279 277 284 285 287 286 289 289 287 286 287 287 286 287 288 287 287 288 287
305 305 305 304 303 303 302 301 301 300 297 288 283 280 286 294 289 288 283 279 283 276 282 277 280 281 286 282 282 287 279 279 272 276 278 275 281 288 287 286 287 291 291 291 290 289 289 289 287 287 289 290 289 289
305 305 304 303 303 303 301 300 299 291 287 288 287 289 287 285 283 271 272 279 277 274 282 283 281 283 285 288 286 285 283 284 276 284 279 280 285 286 286 286 287 287 289 290 290 289 289 289 290 289 289 288 288 289
305 304 303 303 303 302 300 299 297 297 294 288 282 275 278 274 270 267 265 270 270 275 276 277 277 280 285 286 285 285 281 282 286 281 282 283 286 286 285 285 286 287 289 288 287 288 288 286 286 285 284 283 284 285
304 303 303 303 303 301 300 298 298 294 285 277 270 269 271 266 268 270 270 269 277 275 276 280 281 277 281 280 285 281 285 286 281 276 276 284 285 285 286 287 287 286 287 287 285 285 286 285 284 284 283 282 282 281
304 303 303 303 302 300 299 298 296 288 280 274 273 270 267 274 269 269 280 275 275 277 277 278 282 282 279 278 282 283 282 278 279 277 281 285 286 285 285 286 285 285 285 285 285 284 284 283 283 282 282 281 281 281
303 302 299 303 301 299 298 294 288 284 276 273 270 270 273 269 267 274 273 273 276 279 276 279 280 278 278 280 277 278 277 275 278 283 287 286 286 286 285 286 284 282 283 284 284 284 283 282 280 279 279 278 280 280
301 295 302 302 300 298 295 285 282 274 273 271 271 277 272 270 272 273 277 278 281 277 271 270 266 270 277 276 274 277 276 278 281 285 284 284 284 284 284 283 282 281 282 283 284 284 282 282 282 278 276 276 278 279
295 301 301 300 295 291 284 281 275 272 272 269 274 272 278 278 275 278 278 280 278 275 274 268 278 274 272 271 272 284 284 284 284 283 284 284 283 283 284 283 284 281 283 283 283 281 281 281 279 279 277 276 275 275
300 300 300 299 294 285 280 280 279 273 272 272 274 274 275 277 278 278 279 280 280 280 276 275 276 273 272 274 272 269 275 279 280 281 281 281 281 282 283 283 284 281 282 282 281 280 279 279 278 277 276 277 276 276
301 300 299 297 293 281 275 279 279 274 270 273 271 271 271 273 275 274 276 279 282 280 277 275 274 276 276 276 275 276 276 278 277 277 277 278 279 277 279 280 282 283 282 281 281 282 279 277 277 276 276 276 276 275
296 296 296 291 284 284 280 280 278 272 268 270 267 268 267 266 265 269 266 273 276 277 271 276 278 278 279 279 278 279 278 277 275 275 276 276 278 277 279 278 278 281 281 281 280 279 281 278 276 276 276 276 277 277
293 295 289 288 281 283 279 282 278 274 269 269 268 267 261 263 261 263 269 275 275 272 275 275 274 276 277 276 276 274 277 276 276 276 280 279 276 274 275 277 275 277 278 280 280 279 278 277 276 276 275 276 278 277
292 289 285 280 277 276 274 279 276 277 269 266 263 263 263 260 262 270 268 266 269 273 276 275 274 274 275 276 274 275 273 272 274 276 276 277 277 277 276 277 277 277 278 279 276 277 276 278 276 276 275 276 275 275
290 281 277 279 274 272 275 269 277 274 272 266 263 264 262 260 265 262 264 266 272 273 273 273 273 273 273 274 274 275 274 272 273 273 274 274 273 277 277 278 277 277 278 277 275 275 275 275 278 276 275 270 270 271
278 276 276 272 274 269 268 270 270 272 264 260 261 263 262 261 261 258 263 273 267 271 275 274 273 275 275 274 273 274 274 273 273 274 277 273 272 272 275 274 276 277 276 273 273 273 273 271 270 271 270 269 269 268
272 274 272 272 271 271 271 266 267 263 261 259 265 261 258 260 265 264 266 267 270 269 272 273 276 275 275 276 275 275 277 274 272 272 275 274 274 273 271 273 275 279 274 276 274 273 272 271 271 270 269 271 277 273
270 270 278 280 276 274 270 268 268 264 258 263 262 260 260 259 261 267 270 269 270 271 271 274 276 277 278 278 276 277 277 271 274 276 274 272 274 275 275 276 276 278 274 275 275 274 274 273 271 271 270 267 268 269
275 274 272 273 270 267 265 263 262 263 265 268 267 261 263 264 267 270 271 272 273 271 272 274 276 279 278 279 280 280 275 267 264 265 269 273 273 275 275 276 278 281 280 275 275 274 274 273 272 272 270 269 268 266
273 272 272 271 264 264 266 267 266 269 273 270 267 266 268 270 270 270 277 274 271 266 271 278 280 275 273 275 276 277 275 269 266 267 268 273 272 271 270 272 273 272 273 275 281 279 274 273 272 272 272 270 268 263
273 271 266 264 265 267 269 271 268 267 270 273 273 272 274 276 280 277 276 278 267 274 278 279 280 277 278 278 278 277 270 271 272 273 271 273 273 268 264 264 265 266 268 270 270 269 280 273 273 270 269 267 266 265
270 265 263 263 264 265 267 264 264 273 266 265 264 270 275 277 280 281 280 280 279 279 278 277 278 277 276 276 276 275 275 269 271 272 273 272 265 264 264 264 263 263 265 267 268 267 268 268 267 265 264 263 263 267
269 265 268 266 264 263 259 260 258 259 259 258 265 258 261 262 264 271 269 266 268 273 278 278 274 276 263 261 261 263 276 267 265 268 267 267 266 264 263 262 261 262 264 265 266 266 265 265 263 263 263 261 260 260
265 263 259 260 261 261 260 261 260 260 258 257 261 260 260 264 266 270 262 259 262 263 261 260 259 259 260 259 260 261 266 259 261 273 275 275 274 268 261 260 261 262 263 262 263 263 261 260 260 260 261 259 259 258

GFSWCAN_sfc_thetae_051.txt.gz
Theta_e
310 310 309 308 307 307 307 306 306 304 304 304 303 303 303 303 303 294 290 295 287 283 282 286 286 281 282 280 278 282 286 286 288 285 284 283 280 281 278 281 281 281 279 279 281 280 275 288 289 285 289 292 293 293
310 309 309 308 308 307 306 306 305 305 304 304 304 304 303 303 303 297 291 297 297 284 283 288 289 289 287 286 282 282 283 285 286 285 286 287 285 281 279 277 281 280 283 281 282 282 289 288 291 293 294 294 293 293
309 309 309 308 308 307 306 306 305 305 305 304 303 303 303 303 302 298 290 290 293 287 281 282 283 287 291 290 290 281 284 287 286 287 284 285 283 288 282 280 280 283 285 284 284 286 287 289 291 293 294 294 294 295
308 309 309 308 308 308 307 306 306 306 305 303 303 303 303 302 301 297 289 292 293 287 276 280 289 286 290 292 291 290 288 289 287 285 283 281 281 287 285 284 285 288 288 285 284 287 288 290 291 292 295 295 294 294
308 308 309 308 308 307 307 306 306 304 303 303 303 302 301 301 299 292 289 289 290 282 278 280 285 287 289 290 290 290 289 286 284 282 280 280 282 282 282 283 282 287 285 283 284 289 286 288 291 293 293 294 294 294
308 308 308 308 307 307 307 306 304 303 303 302 302 300 301 300 297 290 284 288 291 288 277 274 284 284 286 289 287 288 288 286 285 282 280 281 284 282 276 276 283 284 288 288 285 290 289 291 293 292 292 293 293 293
308 308 308 307 307 307 307 305 303 303 302 301 300 301 300 298 289 285 284 289 295 289 279 273 275 284 287 287 285 285 286 284 283 280 280 279 279 280 279 276 281 282 283 283 285 285 285 292 290 292 293 292 294 291
307 307 307 306 307 306 305 304 303 302 301 300 301 300 300 299 294 286 289 296 295 284 279 269 273 278 287 283 282 285 283 283 283 282 281 280 281 279 275 280 282 283 283 283 284 286 288 290 292 291 290 290 289 288
307 306 306 306 306 305 304 303 302 301 300 301 301 299 291 286 283 285 297 296 293 287 272 271 273 272 286 283 286 284 283 278 282 279 279 280 278 276 281 282 283 285 285 284 287 287 288 290 291 291 290 288 287 287
305 305 306 306 305 304 304 302 301 300 301 300 290 285 281 285 294 294 289 287 286 286 278 272 279 276 281 282 281 282 282 279 272 279 281 279 278 283 287 289 287 287 289 289 285 285 287 285 288 289 288 289 288 287
305 305 305 305 304 303 303 302 301 300 296 287 283 281 285 294 287 287 283 279 279 275 283 281 281 278 284 281 282 285 280 280 274 277 278 276 280 286 288 286 288 288 288 290 290 289 287 288 288 288 289 289 289 288
305 305 304 304 303 303 302 301 301 291 288 287 287 288 285 281 276 271 269 275 274 273 280 282 282 281 281 287 285 286 281 282 276 282 279 279 283 287 286 286 287 287 288 289 289 287 287 287 288 289 289 288 288 288
304 304 303 303 303 302 301 301 298 296 292 285 282 275 277 273 269 266 264 268 269 274 275 277 274 278 284 285 284 284 280 280 285 280 280 282 285 287 286 286 286 288 288 288 287 288 287 286 285 285 283 283 284 283
304 303 303 303 302 300 299 298 298 292 285 277 273 270 270 266 267 269 270 270 275 279 275 279 275 279 280 279 283 280 284 285 278 275 276 279 285 286 286 287 285 285 286 286 285 285 285 284 283 284 283 282 282 281
303 303 303 302 301 299 299 298 295 287 280 275 274 269 267 272 273 274 276 277 275 277 278 277 275 281 281 279 280 281 280 270 277 276 279 282 284 286 285 286 285 283 283 284 285 284 283 283 282 282 281 280 281 281
303 302 298 302 300 299 298 293 287 283 275 274 270 269 274 269 265 276 276 273 275 278 277 277 271 275 278 278 277 276 269 267 272 275 279 282 284 285 284 285 285 284 281 284 284 284 284 283 281 280 280 279 280 281
300 296 301 301 299 296 294 284 282 273 274 270 270 277 272 269 270 272 277 278 280 276 271 270 267 270 277 274 274 279 270 272 273 278 279 282 281 283 283 283 283 284 281 282 283 284 283 283 282 281 278 277 278 279
296 300 301 299 294 290 284 281 275 273 271 269 272 272 278 277 275 277 278 279 278 275 274 268 274 274 269 267 269 274 279 281 282 280 281 282 281 280 281 281 283 284 282 282 283 283 281 280 280 279 279 278 277 276
299 299 299 298 293 285 281 281 279 273 271 272 273 274 275 277 278 278 278 279 279 279 275 271 273 272 271 273 272 268 273 278 277 278 279 279 278 278 280 280 280 280 282 282 282 282 282 280 280 279 277 277 277 277
300 300 298 296 292 282 278 277 279 275 271 274 272 270 271 272 273 273 275 278 280 274 274 275 273 275 275 275 275 275 276 277 276 274 276 277 276 274 277 278 279 278 280 281 282 284 281 280 278 277 277 276 277 277
296 295 294 290 284 282 279 278 276 271 272 272 268 270 267 267 265 271 266 273 279 272 272 276 276 278 279 278 278 279 280 278 276 275 274 273 277 274 277 277 275 277 279 281 280 281 284 281 280 277 277 277 276 277
293 295 287 286 280 277 277 278 274 275 273 270 267 271 262 264 261 268 268 274 272 273 275 274 274 277 277 276 276 274 277 277 276 276 280 279 275 274 276 276 274 276 276 278 279 279 281 281 280 277 276 276 278 277
292 289 284 280 276 273 273 279 275 276 270 266 266 264 263 261 263 271 269 266 271 273 273 272 273 272 275 276 272 274 275 275 276 276 276 276 276 275 274 275 275 273 276 278 278 278 278 280 279 278 275 276 275 275
289 281 278 276 273 269 276 270 277 274 273 268 267 266 263 259 266 264 265 267 271 272 272 272 270 273 272 271 272 278 279 277 277 275 275 274 272 275 275 276 277 276 277 278 276 277 277 277 279 276 275 273 272 272
277 274 273 274 273 269 268 271 271 271 269 262 267 265 261 261 260 259 264 268 265 269 271 271 270 272 274 276 278 277 276 277 277 277 277 274 272 271 275 274 276 277 275 270 273 274 276 274 274 274 272 270 269 267
269 273 270 270 272 270 269 267 269 267 263 259 264 259 257 259 265 264 265 266 269 270 270 271 272 271 272 276 277 278 278 276 274 274 277 274 274 273 273 273 275 277 274 274 271 272 273 273 272 272 272 273 277 273
268 272 277 279 276 273 271 269 268 264 260 264 261 260 259 259 260 266 269 268 270 271 272 272 273 273 274 277 278 280 281 277 277 277 273 271 273 275 275 275 275 277 273 272 273 273 274 274 272 272 271 268 270 270
274 274 273 275 270 268 267 264 263 263 265 267 266 261 262 264 267 270 271 271 273 275 273 274 274 275 278 280 282 281 281 275 267 265 266 270 272 274 274 275 276 280 278 274 273 274 273 273 273 272 270 271 271 267
273 274 274 271 266 267 267 267 267 269 272 268 266 265 266 269 269 269 277 274 273 268 272 277 280 278 273 275 275 276 275 269 270 272 272 270 267 274 269 271 269 267 269 270 278 280 274 272 271 271 270 271 271 265
271 271 267 266 267 268 269 270 267 265 269 271 271 270 273 276 281 277 274 280 277 274 276 278 279 275 276 276 276 276 270 272 273 274 273 273 272 269 263 264 264 264 263 264 266 267 277 273 271 266 265 264 265 265
269 266 263 263 263 264 264 262 262 271 266 263 263 270 275 274 276 280 278 279 279 278 276 276 275 269 270 273 272 272 274 269 270 271 272 268 265 264 264 265 265 262 261 262 263 264 265 264 263 263 263 262 262 266
270 264 269 269 266 262 259 259 256 257 258 257 263 258 260 261 263 271 264 264 264 264 269 265 266 268 262 262 262 262 270 267 266 266 265 266 267 267 265 263 259 260 261 261 261 261 261 262 262 263 263 262 261 259
263 262 259 260 261 261 260 260 260 260 257 256 259 259 258 263 266 268 260 257 261 262 263 266 266 267 266 264 264 265 268 265 264 273 277 278 277 270 260 258 260 261 262 261 259 259 259 259 259 260 261 259 258 258

GFSWCAN_sfc_thetae_054.txt.gz
Theta_e
311 310 309 309 308 308 307 307 305 305 304 304 303 303 303 303 301 293 289 292 286 281 281 285 285 280 281 279 276 280 284 286 288 285 284 282 280 279 277 279 279 280 278 278 279 279 274 287 287 283 288 291 292 292
310 310 309 309 308 308 307 306 305 305 305 304 304 303 303 303 301 296 290 294 293 284 283 286 287 287 286 286 281 280 281 286 285 285 285 286 284 283 278 276 281 279 282 280 281 281 287 287 290 291 292 292 293 292
309 309 309 308 308 308 308 306 306 305 305 304 304 303 303 303 301 296 288 289 289 282 282 282 282 286 289 289 289 279 282 286 285 286 284 285 283 288 282 282 279 281 284 282 283 285 286 288 289 289 291 292 294 295
308 309 308 308 308 308 307 306 306 306 305 304 303 304 303 302 300 296 288 289 288 284 277 280 288 285 289 290 290 289 287 287 286 283 279 280 279 284 283 283 283 287 287 284 283 286 287 287 288 289 289 292 293 294
308 308 308 308 308 307 307 307 306 306 304 303 303 302 302 301 299 292 289 288 289 283 278 280 284 286 287 288 288 289 288 285 281 278 276 279 282 282 282 282 281 283 282 280 280 286 284 285 287 287 291 291 293 293
307 308 307 307 307 307 307 307 307 304 303 303 302 301 301 299 296 289 283 288 290 287 277 275 283 283 285 287 286 286 287 285 283 281 280 281 283 282 278 277 281 283 284 285 281 284 284 284 287 288 289 290 292 292
307 307 307 307 307 307 307 306 305 303 303 302 301 301 300 299 288 285 283 288 293 287 279 273 274 283 286 285 284 283 284 283 282 281 281 280 279 280 279 276 281 282 284 285 286 282 282 284 285 288 289 291 293 290
307 307 306 306 307 307 306 305 304 303 302 301 301 300 299 298 293 287 291 295 291 283 278 268 271 277 286 282 282 284 282 283 283 281 281 279 280 279 275 279 283 286 287 286 285 284 285 288 288 289 290 290 290 288
306 306 306 306 306 306 305 304 304 302 301 301 300 300 290 286 283 285 297 295 289 284 273 271 274 270 283 282 287 285 282 278 282 279 279 280 278 275 281 283 285 286 286 286 288 289 289 288 288 289 290 290 289 288
306 306 305 305 306 305 304 304 303 301 302 301 290 285 281 284 294 294 290 283 282 281 278 271 281 274 279 278 279 282 281 278 273 279 282 279 278 283 285 288 287 286 287 287 284 285 287 285 286 287 289 289 289 289
305 305 305 305 305 304 303 303 301 302 299 287 284 281 285 293 286 282 275 275 276 273 280 281 281 276 282 275 278 284 282 278 271 278 278 278 278 284 287 287 287 286 287 286 289 288 287 286 284 286 288 288 288 289
304 305 304 304 304 303 302 302 302 292 289 288 287 287 284 280 274 271 267 274 274 272 278 276 279 280 281 285 283 284 278 280 276 281 279 278 281 283 286 286 286 286 285 285 287 287 287 287 286 286 286 285 286 287
304 304 304 303 303 303 302 302 298 296 292 286 282 276 278 272 269 266 264 267 268 273 276 276 272 278 281 283 280 283 280 279 283 279 277 279 283 285 286 286 286 286 286 286 285 286 287 286 285 284 282 282 282 282
304 303 303 303 303 302 302 301 298 293 284 278 273 270 270 268 268 270 269 270 275 280 275 277 272 278 280 277 279 274 282 284 274 269 271 274 279 283 285 285 285 285 285 284 284 284 284 284 283 283 281 281 281 281
303 302 302 302 302 302 301 299 295 286 281 274 274 270 268 273 274 272 274 276 275 278 277 274 274 277 275 278 279 278 276 271 271 270 271 274 277 281 283 284 284 284 285 283 284 284 282 282 282 281 281 280 281 281
302 301 297 301 300 300 298 293 287 283 276 274 271 271 274 271 267 277 277 273 275 277 277 275 270 268 271 274 277 275 276 268 271 271 275 277 278 279 280 282 282 283 284 284 283 284 284 283 282 281 281 279 279 280
300 296 300 300 300 298 294 285 282 274 275 273 271 278 273 269 272 273 277 277 279 276 270 270 266 269 276 274 273 278 276 272 270 282 280 277 277 278 280 280 280 281 283 283 283 284 284 284 282 281 280 280 279 279
296 299 300 299 294 290 284 281 277 276 273 271 274 273 278 276 276 276 277 279 278 275 273 268 270 266 267 265 267 272 273 281 284 282 278 279 278 277 278 277 280 280 281 283 282 283 283 282 281 281 281 279 278 278
298 298 298 297 292 285 281 280 279 274 274 275 275 274 275 277 277 277 279 279 279 278 275 269 271 266 270 272 271 268 268 275 278 277 277 278 277 276 277 276 277 276 276 278 281 282 283 283 282 281 280 278 277 278
300 299 297 295 291 282 277 276 278 276 273 275 275 273 271 272 273 273 275 278 277 269 269 270 271 274 275 275 274 275 275 276 275 276 278 278 276 272 274 275 276 275 275 275 279 283 283 282 282 280 278 277 276 277
296 294 293 289 284 281 278 276 275 272 272 272 269 269 266 266 266 273 267 273 271 268 268 274 275 277 278 277 277 278 278 277 276 276 277 276 276 273 275 274 271 275 275 277 278 280 282 283 283 282 279 278 278 278
292 294 286 286 281 277 277 278 274 274 271 271 265 268 261 264 262 271 272 276 273 272 273 273 273 274 276 275 275 274 277 277 276 276 280 280 276 275 275 274 273 272 271 273 276 278 280 281 282 281 280 279 278 277
291 288 282 280 277 274 274 277 273 273 267 267 265 264 263 260 260 271 270 270 271 271 273 272 271 270 273 275 272 274 274 274 276 275 275 277 277 276 276 275 273 270 272 276 275 277 278 281 281 280 278 278 276 275
288 280 277 275 274 271 275 271 276 273 272 266 267 264 261 258 265 264 265 268 271 271 270 269 269 271 271 270 269 273 275 273 274 273 275 274 275 277 277 276 275 274 275 276 277 276 276 278 280 278 277 274 274 274
277 275 274 272 273 270 268 270 271 271 268 266 267 264 261 262 260 261 265 268 263 268 270 270 268 271 271 271 272 273 275 274 274 275 277 277 276 273 275 277 275 276 274 274 275 274 274 273 275 275 275 274 273 272
269 271 270 269 271 272 268 266 267 266 265 259 262 260 257 259 264 264 266 266 268 268 270 273 274 271 271 273 274 273 275 275 274 271 275 276 276 274 272 274 276 277 273 275 276 274 274 272 273 274 274 274 278 276
269 273 276 278 275 272 269 267 268 264 261 264 260 260 261 259 260 266 268 268 269 270 271 274 274 274 277 279 279 277 276 273 275 277 272 272 274 275 275 275 276 277 273 273 273 273 274 274 274 273 273 274 273 273
273 274 272 272 268 267 265 263 262 263 264 266 266 261 262 264 267 270 271 270 271 271 269 272 272 274 275 277 278 278 277 271 267 264 265 270 271 273 272 274 276 280 278 274 273 272 273 273 273 273 272 272 273 271
271 273 273 270 265 268 265 266 267 268 272 268 266 265 266 269 268 267 272 270 265 264 269 276 277 272 270 270 271 271 270 266 267 270 271 272 272 273 271 269 271 265 266 268 277 279 273 273 273 272 270 270 269 266
269 268 267 266 266 268 268 269 265 263 268 270 270 269 270 273 277 274 272 271 272 277 275 271 270 266 272 273 274 275 269 268 271 272 272 273 270 270 266 264 263 262 261 263 265 266 275 271 272 270 264 263 263 262
267 265 263 263 264 264 262 261 261 270 264 261 261 267 273 270 271 268 265 262 263 262 264 265 266 263 267 268 267 267 268 267 262 264 265 268 268 269 270 267 264 261 261 261 261 262 263 263 262 261 261 261 261 264
267 263 267 268 265 260 258 257 255 261 256 256 260 255 259 261 262 268 260 258 262 263 266 262 264 268 267 266 264 265 270 268 267 266 266 264 265 267 267 265 260 259 260 260 260 260 260 259 260 260 261 259 258 258
264 261 259 259 262 262 260 260 259 259 257 255 257 256 255 260 265 267 260 257 261 261 262 264 266 266 264 264 264 265 267 266 266 274 276 278 280 274 262 257 258 259 260 260 258 258 258 257 257 257 257 257 256 256

GFSWCAN_sfc_thetae_057.txt.gz
Theta_e
313 311 310 309 309 309 308 308 306 305 304 304 303 303 303 302 300 292 291 290 284 281 281 284 284 279 280 279 276 279 284 286 288 285 283 283 281 279 277 278 279 280 278 278 280 277 274 287 288 284 287 291 292 292
312 310 309 309 308 309 309 307 306 305 304 304 304 303 303 302 300 296 287 292 290 284 283 286 286 286 286 285 281 279 283 286 284 286 285 287 284 284 278 276 280 279 282 280 281 281 286 287 287 288 289 288 290 290
310 309 309 308 308 309 308 307 306 305 304 304 304 303 303 301 300 295 288 288 286 282 281 282 281 286 289 287 288 279 281 285 286 285 284 285 284 287 281 282 279 282 284 283 283 285 285 287 288 287 285 285 289 292
309 309 308 308 308 308 308 307 306 305 304 304 304 304 303 301 299 295 288 288 286 282 278 280 287 284 288 289 289 287 286 286 284 282 281 280 280 282 283 281 280 283 285 282 282 284 285 286 286 285 286 286 290 292
308 308 308 308 308 308 307 307 306 305 304 304 304 303 302 300 298 292 289 288 288 284 279 280 283 285 286 287 287 288 287 284 280 277 275 278 282 281 281 279 278 282 280 279 278 283 283 283 285 286 285 285 289 288
308 307 307 307 307 307 307 307 307 305 304 303 303 302 301 299 295 288 283 288 289 286 280 275 282 281 285 286 285 285 285 283 281 280 278 280 283 281 278 277 281 281 282 282 282 285 286 286 286 285 283 287 288 289
307 307 307 307 307 307 306 306 306 305 303 303 302 301 300 298 290 285 283 287 292 286 280 272 273 282 284 284 282 282 282 281 280 279 280 279 280 282 280 277 281 283 286 288 288 287 284 286 286 289 289 289 290 290
307 306 306 306 306 306 306 306 305 304 303 302 302 300 299 298 293 286 290 294 288 281 278 267 269 276 284 281 283 284 280 280 280 279 280 279 280 279 276 280 284 287 287 287 287 287 287 289 290 289 290 289 288 288
306 306 306 306 306 306 306 304 304 303 302 302 300 299 289 285 282 285 296 292 287 283 272 271 270 266 282 280 286 284 281 277 281 278 278 280 278 275 282 283 285 286 285 285 287 287 288 287 287 287 287 288 288 290
305 305 306 306 306 305 304 304 303 302 302 301 291 285 282 284 295 295 286 282 280 279 278 273 280 270 277 277 278 281 280 277 269 278 280 279 277 283 283 285 287 287 287 286 283 283 285 285 285 283 285 288 289 289
305 305 305 305 305 304 303 303 303 302 299 288 284 283 287 293 285 281 274 274 276 272 276 276 275 273 281 274 276 282 280 274 265 274 276 273 276 281 284 284 285 285 287 286 286 287 286 286 284 284 286 287 286 286
305 305 305 304 304 303 303 302 302 294 289 289 287 288 284 280 275 273 266 273 273 271 277 276 278 280 280 284 282 284 277 279 269 277 272 269 277 280 281 283 284 284 285 286 286 286 285 286 286 284 284 283 283 284
304 304 304 304 303 303 302 302 299 296 293 287 283 278 277 273 269 268 267 267 268 273 276 274 271 278 280 284 279 281 277 275 281 277 272 274 278 283 282 281 282 284 284 285 285 285 285 285 285 284 282 282 282 282
304 304 303 303 302 302 302 300 297 292 286 281 277 271 270 269 269 269 271 271 275 277 278 277 272 277 281 279 281 276 278 283 277 269 268 270 275 280 281 282 282 280 282 282 282 282 283 283 282 283 282 280 280 281
303 303 302 301 301 301 300 298 294 287 283 277 277 270 269 274 273 271 273 274 279 281 278 276 273 277 272 276 281 277 274 275 271 269 270 273 274 277 278 279 279 279 278 278 280 281 281 282 283 282 283 281 280 281
302 301 299 301 301 301 299 293 287 284 278 276 273 273 276 272 273 277 274 272 276 278 279 275 269 268 270 273 274 271 269 266 271 269 274 279 276 277 277 278 278 279 278 280 280 280 284 282 283 282 282 281 279 280
300 296 301 302 300 296 295 285 282 276 276 274 272 279 274 273 273 274 277 278 279 278 272 270 267 269 275 274 273 276 274 272 272 277 281 281 277 277 277 277 278 278 279 279 279 283 283 284 282 281 281 281 280 280
295 298 300 298 294 291 284 282 279 277 273 272 277 274 278 276 276 276 277 279 279 276 274 269 271 266 266 264 267 271 273 272 278 282 282 281 278 278 278 276 278 278 276 276 277 277 280 281 281 281 281 280 279 278
296 297 297 297 291 285 281 280 280 275 275 276 276 275 276 278 278 278 278 279 279 279 275 270 267 266 271 271 270 267 268 271 274 277 277 277 277 277 276 275 275 274 273 273 276 277 279 280 282 282 282 280 279 279
299 298 297 294 290 282 279 277 280 277 273 275 275 272 272 273 273 274 276 278 277 269 270 269 271 273 274 274 274 274 274 275 275 275 277 278 276 272 274 275 275 274 273 272 274 280 278 281 280 281 280 280 278 278
295 293 293 288 283 282 279 275 275 273 273 272 268 269 268 269 273 274 268 274 269 267 268 273 274 276 277 276 276 277 277 276 276 275 277 277 277 273 276 277 272 274 274 275 274 276 277 276 279 280 280 281 280 279
291 293 285 286 280 278 277 279 274 275 272 270 267 268 264 264 266 271 271 276 268 271 273 272 272 273 275 275 274 273 276 276 276 276 280 280 277 274 277 276 275 276 274 272 273 274 276 277 279 279 280 281 282 279
291 287 282 281 277 276 274 277 273 270 269 267 265 266 262 260 262 269 270 271 270 271 272 272 270 270 272 272 270 272 272 272 273 274 276 276 276 276 275 277 277 273 273 276 273 273 274 279 279 279 279 280 279 278
288 280 276 275 276 273 275 272 275 271 267 267 265 265 262 259 264 264 264 266 270 270 269 268 267 270 270 269 269 272 274 272 272 272 274 273 273 275 276 276 276 276 276 276 275 275 272 275 279 277 278 275 276 276
279 275 275 271 272 272 271 268 269 267 265 266 267 263 260 261 260 265 262 266 262 267 268 268 267 269 271 272 272 273 273 272 272 274 276 274 275 273 274 276 277 277 277 272 273 274 273 271 272 272 273 273 274 274
271 273 272 270 271 273 270 267 265 265 264 263 264 258 256 260 263 262 264 265 267 267 268 270 272 271 272 273 275 276 278 273 271 271 277 273 275 276 276 275 275 277 276 276 273 273 273 272 272 272 272 273 278 278
270 271 276 278 274 272 269 268 268 266 262 265 260 259 259 260 260 266 268 267 268 269 270 270 272 272 274 277 277 277 276 269 272 277 279 272 274 275 276 274 273 277 274 272 272 272 273 273 271 271 272 272 272 272
274 274 271 269 268 266 266 264 264 264 265 266 266 261 262 264 267 269 270 269 270 267 264 266 269 271 272 274 275 276 275 273 268 270 270 270 270 273 272 274 276 279 278 273 271 269 270 271 271 271 270 271 272 270
271 273 273 269 270 267 265 267 267 268 271 267 266 264 265 268 267 265 271 268 261 263 267 272 272 265 267 267 269 271 271 271 268 270 269 271 270 269 265 264 266 266 265 266 276 276 270 269 271 271 271 271 268 265
271 272 269 267 267 266 266 266 264 262 267 269 270 268 269 269 270 267 268 267 266 266 265 263 262 261 264 264 267 268 269 269 268 269 268 268 268 267 269 267 267 264 261 263 262 262 274 270 269 267 268 268 264 263
268 264 264 263 264 261 260 260 260 270 262 259 260 264 268 265 268 263 259 258 257 258 262 264 266 258 260 262 260 261 264 263 264 266 267 269 268 268 268 269 265 262 260 261 261 261 261 262 262 263 270 270 264 263
267 262 266 266 263 259 257 257 256 262 255 257 258 254 260 260 262 264 261 257 260 262 266 261 261 265 261 261 261 261 269 267 266 265 265 267 268 269 268 265 259 259 259 260 260 259 259 258 259 260 262 261 260 259
265 258 258 264 264 261 259 259 257 257 256 255 256 255 254 259 264 265 259 256 261 262 262 262 263 264 263 262 261 261 266 263 264 273 274 278 279 276 266 265 261 260 260 259 257 257 257 256 256 256 256 256 256 256

GFSWCAN_sfc_thetae_060.txt.gz
Theta_e
302 304 309 311 309 309 309 308 307 305 305 304 304 304 302 301 300 297 294 295 293 287 287 288 288 285 285 285 286 284 288 290 289 289 289 288 287 286 286 286 286 285 284 284 285 282 279 292 293 288 289 291 291 291
301 304 311 310 309 309 309 308 307 306 304 304 304 304 303 301 300 297 292 296 295 291 288 291 291 291 290 289 287 286 287 287 287 286 289 288 286 288 286 283 287 284 287 286 287 287 291 292 292 292 289 288 289 288
301 303 309 309 309 309 308 307 306 306 305 304 304 304 303 302 300 297 294 294 295 289 287 288 286 290 292 292 293 286 288 288 288 290 289 289 285 287 285 286 287 288 291 288 288 289 288 289 292 291 291 289 290 290
301 305 310 309 308 308 307 307 306 306 304 304 304 304 302 301 299 297 295 293 293 291 285 285 291 289 292 294 293 291 290 290 290 290 288 288 287 287 287 286 287 287 288 284 286 288 288 290 292 290 290 290 289 290
301 305 309 308 308 307 307 306 306 306 305 304 304 303 301 300 298 295 294 294 293 291 286 285 288 289 291 292 291 292 290 289 288 287 286 285 287 287 286 285 284 286 283 282 282 287 285 287 289 291 289 289 290 290
301 303 308 308 307 307 306 306 306 305 305 304 304 302 300 298 294 293 290 294 294 291 289 283 287 288 289 290 289 289 289 288 288 286 284 285 286 285 282 281 285 286 286 287 285 288 287 289 290 290 288 289 290 290
301 304 307 307 307 306 306 306 305 305 305 304 302 300 299 298 296 290 289 292 294 292 288 282 283 286 289 288 288 288 288 288 287 286 284 284 284 285 283 281 284 287 288 289 289 288 285 287 286 289 290 291 291 290
301 307 307 306 306 306 306 305 305 305 304 303 301 300 299 297 295 291 294 294 292 288 287 281 279 284 288 286 284 288 286 287 286 285 285 283 284 284 279 284 286 288 289 288 288 288 287 288 289 289 289 289 287 288
303 306 306 306 306 306 306 305 304 304 303 301 300 298 293 290 289 290 294 293 292 290 282 281 280 278 287 286 288 286 286 282 285 283 283 284 282 280 285 286 286 287 286 286 288 287 287 287 287 287 286 286 287 288
303 306 306 306 306 305 304 304 303 303 301 300 293 288 286 288 295 296 290 288 288 287 286 279 282 280 284 284 284 283 284 282 279 282 285 281 282 287 287 288 288 288 287 287 283 283 284 284 285 285 284 285 287 287
305 305 305 305 305 304 303 303 303 301 298 291 287 285 289 294 289 285 282 283 282 281 283 281 282 281 286 282 282 285 281 281 278 280 281 281 281 286 288 288 289 289 288 288 287 286 286 285 284 284 284 285 285 284
305 304 305 305 304 303 303 302 301 295 292 291 290 290 287 283 280 278 273 279 280 280 282 282 283 284 284 287 283 284 280 281 277 282 279 277 284 286 287 287 288 288 288 287 288 286 286 285 285 285 284 284 283 284
305 304 304 304 303 303 302 301 298 297 294 290 286 282 283 277 274 277 272 275 278 280 281 281 280 283 284 285 282 282 278 278 283 279 278 282 285 287 287 286 285 286 286 286 285 286 286 286 286 286 284 285 282 283
304 304 303 303 302 302 301 299 298 293 289 285 282 275 279 277 277 277 279 280 280 281 280 281 280 281 282 280 281 277 281 283 278 276 277 283 284 285 284 284 283 283 283 283 283 283 283 285 285 286 285 284 282 282
304 303 303 302 302 301 300 298 294 289 286 282 282 275 276 276 277 276 277 280 281 282 281 280 280 282 279 279 281 280 277 275 278 278 281 284 283 283 283 283 282 282 282 281 282 282 282 283 284 284 286 285 283 281
303 302 300 302 301 300 297 293 289 286 282 281 278 276 277 278 276 279 277 278 282 281 281 281 277 276 277 278 277 275 274 273 278 280 284 283 283 282 283 283 282 282 281 282 282 282 282 284 284 285 285 285 283 281
301 297 301 300 299 296 296 287 286 279 281 280 277 281 280 281 280 279 281 280 282 282 280 278 274 274 278 275 274 278 276 281 283 283 283 284 284 283 284 283 282 281 281 281 281 281 281 284 285 284 283 284 283 282
296 299 300 299 295 292 285 284 281 280 276 276 280 278 279 280 280 279 280 282 282 280 279 277 277 274 273 272 274 278 281 283 282 282 283 284 283 283 282 281 281 281 280 279 279 279 279 280 281 282 284 284 283 281
298 298 299 298 293 286 283 282 282 276 276 278 278 278 279 279 280 281 281 281 281 281 278 277 275 275 276 277 279 279 278 278 279 280 281 282 281 281 281 280 278 278 278 278 278 279 280 281 282 282 283 284 282 282
299 298 297 294 291 284 280 279 283 279 277 277 278 276 275 276 276 278 279 280 280 278 277 275 276 278 279 280 280 281 281 280 279 278 280 282 281 280 280 280 280 280 279 278 279 281 280 281 282 283 283 283 282 281
295 293 292 288 284 282 279 278 275 276 275 274 273 274 272 274 276 277 276 278 279 276 276 278 279 281 280 281 280 281 280 279 279 279 279 279 281 280 280 282 280 279 278 278 279 280 280 279 280 281 281 283 283 282
292 293 286 286 281 280 278 279 276 276 274 272 272 271 271 272 272 272 273 278 276 277 278 277 278 279 279 279 280 278 280 279 278 278 281 281 279 280 280 281 279 279 280 280 280 279 279 279 279 280 281 282 283 282
291 287 283 283 279 278 275 279 275 273 275 272 270 271 268 268 267 270 272 275 275 276 277 277 276 274 276 277 275 276 276 276 277 278 278 279 279 280 279 279 280 278 279 280 281 281 280 280 279 279 280 281 281 281
287 280 277 276 277 273 276 272 275 272 272 272 270 268 267 267 266 268 271 271 274 274 274 273 274 276 275 274 275 278 280 277 277 278 278 277 278 279 280 279 280 280 280 281 280 280 280 278 279 279 279 278 278 278
280 276 278 273 275 274 272 270 269 271 267 267 268 267 266 264 269 269 268 272 271 273 275 273 273 274 275 277 277 278 277 277 278 278 280 278 279 279 278 279 279 280 281 278 278 279 279 278 277 277 277 277 277 277
273 274 274 273 274 274 272 270 268 268 267 266 265 262 262 267 267 268 269 272 273 274 276 277 277 276 276 275 276 278 280 278 277 275 278 279 278 277 276 276 277 279 280 279 279 279 279 278 277 276 276 277 279 278
272 273 276 278 275 273 270 270 270 269 266 267 265 263 265 264 265 270 272 272 274 275 275 275 275 276 276 277 278 278 279 277 275 278 278 277 278 278 277 276 276 279 279 278 277 277 277 277 276 276 275 276 276 276
275 276 272 272 270 269 268 267 267 268 269 268 269 267 267 268 270 273 273 275 274 271 271 272 272 272 273 275 276 275 275 275 274 273 274 275 276 275 274 274 274 276 276 275 276 276 275 275 275 275 274 274 275 275
273 275 274 269 268 268 267 270 270 270 272 270 270 268 268 270 271 271 274 272 268 270 271 272 273 270 271 272 271 271 271 271 270 268 268 269 271 272 272 272 273 272 271 270 275 278 274 274 274 275 274 275 275 271
272 273 270 268 267 268 268 268 267 266 270 271 271 270 271 271 271 268 270 269 269 269 268 267 267 267 269 266 266 266 268 268 268 267 265 265 267 269 269 270 270 270 271 269 270 270 275 274 273 272 272 271 272 271
271 270 267 267 266 263 263 261 263 270 263 263 262 266 268 267 269 266 265 263 264 265 268 269 269 264 265 265 264 263 265 266 263 265 266 268 268 269 270 271 271 270 268 267 267 267 268 269 269 269 270 270 271 270
268 267 268 267 265 262 260 260 262 264 260 262 262 260 262 265 265 268 264 264 267 268 270 268 265 267 265 265 264 264 269 267 266 266 265 266 270 273 274 270 268 266 266 267 267 267 265 265 266 267 270 269 267 266
265 262 266 268 268 264 261 261 260 260 260 259 260 258 257 262 265 268 264 261 266 267 267 266 265 264 264 262 262 263 266 264 263 271 272 275 277 276 270 268 268 267 266 266 265 264 262 261 262 261 261 260 260 261

GFSWCAN_sfc_thetae_063.txt.gz
Theta_e
302 302 300 301 303 304 310 309 308 307 305 305 304 304 303 301 301 300 296 298 297 290 289 290 290 288 288 289 289 288 291 293 293 290 289 289 288 288 287 289 287 286 285 284 285 282 279 293 294 288 290 292 291 291
301 302 300 301 303 309 309 308 307 306 306 304 304 303 302 301 300 300 294 298 299 293 289 293 292 292 292 291 290 291 290 290 292 289 291 290 287 290 288 283 290 285 289 287 288 287 293 293 293 293 292 291 291 291
301 301 300 300 306 309 308 308 307 306 306 305 304 303 302 302 299 300 297 298 296 291 290 291 288 293 295 294 295 289 291 291 290 292 292 290 285 289 286 287 288 290 292 289 289 291 292 291 294 293 293 291 292 292
301 300 300 300 302 306 308 307 306 306 306 305 304 303 302 301 300 299 297 297 298 294 287 286 293 290 294 296 294 294 292 292 292 293 291 291 288 290 289 288 288 290 289 287 287 290 290 292 294 293 292 292 292 293
300 300 299 300 303 308 307 306 306 306 306 305 304 303 301 300 300 299 297 296 297 296 287 286 291 291 293 294 293 293 292 291 291 290 290 288 290 289 288 287 286 290 287 284 284 289 288 289 291 292 290 290 291 290
299 299 299 300 308 307 306 306 306 305 305 304 302 301 300 300 300 298 293 296 296 298 291 284 290 290 291 292 291 290 291 290 290 289 287 288 288 288 284 283 287 289 288 289 287 290 289 290 291 291 289 289 290 290
298 298 299 304 307 306 306 305 305 305 305 303 300 299 299 300 298 292 292 294 295 297 291 284 284 289 291 290 291 290 291 290 290 288 287 287 286 287 285 282 287 288 289 291 291 290 287 289 287 290 289 290 291 290
298 299 300 302 306 306 305 305 305 305 304 301 300 299 299 299 297 293 295 294 296 293 293 285 282 285 290 287 286 290 288 289 288 287 287 285 286 285 281 287 288 289 289 289 290 290 289 289 289 288 289 289 287 287
298 300 301 303 306 305 305 305 305 304 302 301 299 298 297 293 292 292 294 295 297 295 287 287 283 281 289 288 288 288 289 285 287 286 285 285 285 281 286 288 287 287 287 286 288 287 287 286 286 287 286 286 284 285
299 300 304 305 305 305 305 304 304 302 301 299 295 292 289 290 296 296 294 292 292 291 290 283 286 282 288 287 284 285 286 285 282 285 286 283 284 290 289 289 289 288 288 288 284 283 284 284 284 284 285 286 285 285
300 300 305 305 304 304 304 304 302 301 298 292 289 286 290 295 292 289 286 287 286 285 287 285 286 283 288 284 283 286 282 283 280 283 282 283 283 287 290 289 289 289 289 288 288 288 288 287 285 284 285 286 286 286
300 302 305 304 304 304 303 302 301 297 294 293 291 292 291 287 285 284 279 282 284 283 285 285 284 286 285 288 284 285 281 281 279 284 280 278 286 288 288 288 287 287 287 287 287 286 287 286 287 286 285 285 285 285
300 304 304 304 304 303 302 301 299 297 296 292 290 286 287 281 280 282 276 279 281 284 283 284 282 285 285 285 283 282 279 279 285 279 279 283 286 286 286 287 286 286 286 285 285 285 285 285 286 286 286 287 286 286
302 304 304 303 303 302 301 299 298 296 293 290 286 279 283 279 283 284 286 285 284 286 285 285 283 283 283 282 282 279 282 283 278 276 278 284 285 286 286 286 285 284 284 284 283 283 283 283 283 286 287 288 287 285
304 304 303 302 302 301 300 299 294 292 289 285 287 280 279 279 280 280 283 283 284 287 285 283 283 285 281 280 282 281 278 276 279 279 283 286 286 285 284 285 285 285 284 283 283 283 282 282 283 284 287 287 287 286
304 303 300 301 301 300 297 296 292 289 286 285 281 278 280 281 279 282 283 281 285 285 286 286 281 280 278 280 278 277 276 275 281 284 286 285 285 285 285 284 284 284 284 283 283 283 283 282 282 283 285 285 286 286
302 298 301 300 299 298 295 291 290 283 284 284 280 284 284 285 283 283 285 284 286 285 283 283 279 277 280 277 276 280 278 283 286 286 286 286 285 284 284 284 284 283 283 283 283 282 281 282 282 282 281 284 285 286
297 299 300 298 296 293 288 288 286 284 279 280 282 281 281 283 282 282 283 284 285 283 284 282 281 277 277 275 277 282 284 288 287 285 285 284 284 284 283 283 283 283 282 282 281 280 280 280 281 282 283 284 284 285
298 298 298 298 295 290 286 284 286 278 278 280 280 281 282 281 283 284 284 284 284 284 283 282 279 279 279 281 283 285 284 283 281 282 283 283 283 283 282 282 282 281 280 281 281 281 281 281 281 282 283 283 282 284
299 298 298 295 293 286 282 280 286 282 280 279 280 278 278 278 280 283 283 283 284 284 281 280 280 282 282 284 285 286 285 284 282 280 281 283 284 283 282 282 282 282 282 282 282 283 282 283 283 282 281 282 282 283
294 293 292 289 286 284 281 280 277 279 278 275 276 278 276 280 280 280 281 282 283 282 281 282 283 284 284 284 283 283 282 282 281 282 281 281 283 283 283 283 283 283 281 281 281 281 283 284 283 282 280 281 282 284
292 293 287 288 283 282 279 280 278 278 276 275 276 278 277 277 277 275 275 280 281 282 282 282 282 282 282 282 282 282 282 282 281 281 283 282 281 282 282 282 282 281 282 282 282 281 283 285 283 281 281 281 283 283
291 288 285 285 280 279 276 280 276 276 278 275 275 276 273 273 271 273 275 279 280 281 281 280 280 278 278 280 278 279 279 279 280 280 281 281 282 282 282 281 282 281 280 281 283 282 283 285 282 281 280 281 281 281
288 281 279 278 279 274 278 274 276 276 277 276 277 272 272 272 270 273 275 278 279 277 277 277 278 279 279 277 279 281 283 282 281 281 281 280 280 280 282 281 281 281 281 281 281 281 282 281 282 280 279 279 279 279
281 277 280 275 278 276 274 273 273 276 273 272 273 271 269 269 273 273 274 278 277 278 279 278 278 278 279 280 281 281 281 281 280 279 281 281 280 280 280 280 281 281 282 280 280 280 280 281 281 279 279 278 278 277
275 275 277 276 275 276 275 274 274 272 272 271 268 267 268 272 271 272 275 278 278 279 280 281 281 280 280 280 279 280 280 281 279 277 279 281 280 278 277 276 276 278 282 280 279 278 279 279 279 278 277 278 280 278
274 274 276 278 276 274 273 273 273 275 273 270 269 267 271 270 271 275 277 277 279 281 281 280 279 279 278 279 280 280 280 279 278 277 278 277 278 278 277 275 275 276 276 276 276 276 276 276 277 277 277 277 277 277
276 278 274 274 273 274 273 272 273 273 273 272 273 270 271 272 274 279 280 280 281 279 279 278 277 277 277 278 277 276 275 275 274 275 277 277 278 278 273 275 275 276 275 274 274 275 275 276 275 276 276 275 276 277
275 276 277 272 274 274 273 274 274 274 274 275 275 273 273 275 278 279 279 278 275 277 278 278 278 275 277 277 276 274 272 271 270 268 268 269 270 272 273 272 271 272 272 272 274 276 277 277 276 276 276 276 277 274
275 276 274 272 273 272 271 269 272 272 273 274 274 275 275 276 277 273 274 276 277 277 275 274 273 272 272 270 270 270 271 270 269 268 266 265 267 269 269 269 271 272 272 271 271 271 275 275 275 274 273 273 273 272
274 275 273 272 269 268 267 266 269 272 269 270 269 273 274 272 274 272 272 272 272 273 275 274 273 271 270 270 268 267 267 270 266 266 267 268 268 268 269 270 272 272 270 269 268 269 269 269 270 269 270 268 268 272
272 270 273 271 269 267 266 268 268 270 269 272 271 268 271 272 271 276 271 270 273 275 275 273 272 272 270 269 268 267 269 268 267 267 266 266 267 270 273 272 270 269 269 268 269 268 268 267 267 267 269 271 267 265
269 270 271 270 270 269 269 269 268 268 270 269 268 265 266 267 268 273 270 268 273 274 273 271 270 269 267 265 266 267 269 267 266 272 273 275 277 279 275 271 270 269 269 268 268 267 265 263 264 262 262 260 260 260

GFSWCAN_sfc_thetae_066.txt.gz
Theta_e
302 302 302 302 302 302 302 303 306 307 307 306 304 303 303 303 303 299 294 297 294 287 287 290 290 287 286 287 286 286 289 290 290 287 288 285 283 283 282 284 283 282 280 279 281 278 274 290 290 284 285 289 289 288
302 302 302 302 302 301 302 305 307 307 306 305 304 303 302 302 302 301 292 297 297 290 287 291 291 291 290 290 287 289 288 289 289 287 287 286 283 285 284 279 286 281 284 282 284 283 288 288 289 289 289 287 288 287
302 302 302 302 301 300 302 308 308 306 306 305 304 303 302 302 301 300 295 295 294 288 287 287 286 291 294 293 293 285 288 290 289 289 288 286 283 286 281 283 283 285 288 285 285 286 288 288 290 290 289 288 289 290
302 301 301 301 301 300 302 307 307 306 305 305 304 303 302 301 302 301 295 296 296 292 283 283 292 288 293 294 293 293 291 291 290 289 287 288 284 287 284 284 284 285 286 283 283 285 286 289 288 288 289 289 289 290
301 301 301 301 300 300 301 306 306 305 305 304 304 303 302 301 301 297 295 295 295 292 283 283 289 291 292 293 292 292 291 289 286 284 283 282 285 284 284 283 282 286 283 280 280 285 284 286 288 289 288 288 289 289
301 301 301 300 300 300 301 306 306 305 305 304 303 302 302 301 300 296 290 294 295 296 286 280 288 288 289 290 289 289 289 287 286 285 283 283 285 282 279 278 284 285 285 286 283 286 287 288 288 289 288 288 289 289
301 300 300 299 299 299 306 306 305 305 304 303 302 301 301 299 295 291 290 293 295 294 286 281 280 287 289 288 287 287 288 286 285 283 283 282 282 282 280 277 284 285 286 287 288 287 285 286 284 287 287 288 289 289
300 300 299 298 298 305 305 305 305 304 302 301 301 301 300 299 298 291 293 296 296 290 289 279 277 281 288 285 284 287 284 285 284 283 283 281 282 281 277 284 285 286 286 286 285 286 285 285 285 285 286 286 285 285
300 300 298 297 304 305 304 305 304 302 301 301 301 300 296 292 290 290 294 296 295 292 281 282 276 273 286 286 287 284 284 281 283 281 282 282 280 275 282 284 284 285 284 284 285 284 284 283 283 283 283 283 284 284
301 300 299 299 300 305 304 305 303 301 301 301 296 292 287 289 296 295 293 289 286 286 286 278 282 277 284 285 283 283 285 283 279 281 282 279 280 286 285 285 285 285 285 285 278 278 281 279 282 282 282 283 284 285
300 299 298 301 301 304 304 304 302 301 300 293 287 285 291 296 291 287 282 282 282 280 283 280 280 278 285 282 282 285 281 282 278 281 277 281 278 283 284 284 285 284 284 284 284 284 284 283 281 282 283 284 284 285
300 298 300 303 303 304 304 302 301 296 293 293 290 292 290 287 285 279 275 280 280 278 282 280 281 283 284 286 283 283 280 280 278 282 279 276 283 282 283 283 283 283 283 283 284 283 283 283 283 283 282 282 283 285
299 300 300 304 304 304 303 301 300 298 296 292 289 283 283 278 277 275 273 276 275 280 280 280 277 282 283 285 282 281 278 278 283 278 276 279 284 282 282 281 282 283 283 283 283 283 283 283 283 283 281 283 285 286
299 300 304 303 303 303 302 300 299 297 292 287 280 273 276 274 278 282 282 279 281 282 283 282 279 279 282 281 281 272 280 282 275 270 272 280 282 282 282 283 282 281 282 281 278 278 279 280 280 282 282 282 283 284
299 301 303 303 302 302 300 300 298 291 288 281 282 272 276 279 279 280 281 280 281 284 282 280 279 280 279 275 279 276 276 267 272 271 276 277 279 280 281 281 281 280 278 277 278 277 277 277 279 280 281 281 282 283
300 303 301 302 301 301 300 296 291 289 285 282 280 276 280 279 277 279 280 279 282 283 282 282 276 273 273 274 272 269 268 267 273 275 278 279 278 280 280 280 281 281 280 280 278 278 277 276 277 278 279 279 281 281
302 298 301 301 300 299 297 290 288 283 282 280 278 283 282 282 280 282 282 280 283 282 278 278 271 272 276 271 270 273 270 274 277 277 278 280 279 279 280 280 280 280 280 280 278 279 277 276 275 275 276 279 279 281
297 300 301 300 297 294 287 286 284 281 277 279 280 279 281 282 281 280 281 282 282 280 281 278 278 272 270 268 271 275 276 277 279 279 279 280 279 279 279 278 279 279 278 277 277 276 273 274 274 277 277 279 278 279
299 299 299 298 295 289 283 281 283 276 277 279 280 280 280 281 283 282 281 281 281 282 281 277 273 271 274 274 274 275 275 276 277 277 278 279 279 278 279 277 277 276 275 274 277 278 278 277 277 278 279 279 278 279
300 299 299 298 294 285 281 279 284 280 277 278 279 277 277 278 280 280 280 281 282 280 274 273 276 278 277 278 277 277 277 279 277 275 276 278 278 275 276 276 277 276 276 275 276 282 277 277 279 279 279 279 277 278
297 297 295 289 285 283 281 279 277 278 278 275 276 277 276 279 278 277 276 279 277 273 273 276 277 278 279 279 279 279 278 278 276 276 276 274 278 275 275 276 276 278 277 278 277 278 280 278 280 280 277 277 276 278
292 294 287 287 282 281 278 279 278 278 276 275 275 278 276 273 271 270 273 272 273 275 276 275 275 276 277 277 277 275 278 278 277 277 281 280 276 274 276 277 275 275 275 276 277 278 279 280 280 279 276 277 279 278
293 288 285 284 279 278 274 279 275 276 276 273 275 274 271 269 268 270 269 272 273 274 275 274 272 272 273 274 273 273 273 273 275 275 276 276 277 277 275 276 276 275 274 276 276 276 277 281 281 280 278 278 277 276
289 281 279 278 278 273 277 273 277 276 276 276 274 270 270 267 268 267 269 271 274 274 273 270 271 272 273 272 272 273 274 272 273 274 276 273 274 276 277 277 276 275 276 277 276 276 276 278 280 278 278 272 273 274
282 277 278 274 277 275 273 273 273 275 272 273 271 268 265 265 266 265 267 269 270 271 272 271 271 272 272 272 272 273 274 273 271 273 276 274 275 276 274 274 276 277 277 276 276 275 275 274 277 275 272 270 272 271
274 274 275 274 274 276 274 273 273 272 272 269 265 264 264 266 264 265 268 270 271 271 271 271 273 273 272 273 272 272 273 273 272 272 275 273 272 273 272 273 273 274 274 274 273 272 272 273 273 273 273 274 278 275
272 272 275 278 276 275 273 273 274 274 269 266 266 264 264 263 264 269 272 271 271 271 272 271 271 271 270 271 273 274 272 269 269 272 274 273 272 271 271 272 271 272 273 273 272 271 271 271 272 273 273 271 270 270
276 276 274 273 273 274 273 272 271 268 268 270 270 264 267 269 270 272 271 271 270 269 269 269 269 268 268 268 269 270 268 266 268 269 270 269 268 266 265 266 267 275 273 270 272 272 272 272 273 273 273 272 272 270
275 276 277 273 274 272 270 269 269 270 272 270 268 268 269 271 270 270 271 269 267 268 267 267 267 265 266 267 266 265 264 263 262 260 260 262 262 264 267 267 267 268 269 270 274 274 273 274 275 276 276 276 276 273
274 276 274 273 272 268 265 266 266 267 270 271 272 270 271 271 269 267 267 266 266 266 265 265 264 263 263 262 265 265 263 262 262 261 259 261 263 266 266 266 267 269 270 270 269 268 272 271 272 270 270 268 265 265
275 276 273 270 267 265 264 264 266 272 267 265 265 268 268 265 268 266 264 263 263 263 264 264 263 261 262 261 259 259 260 261 259 260 262 266 266 265 266 267 268 270 268 267 267 267 267 266 266 266 266 263 264 266
272 271 271 268 265 265 264 264 264 264 265 265 264 262 264 264 264 266 263 262 262 264 270 265 263 264 262 262 261 261 269 262 260 262 263 265 266 268 271 272 269 266 265 267 267 266 264 263 263 263 261 260 261 261
271 270 269 267 265 264 265 265 264 263 263 260 260 259 259 261 264 266 263 262 265 265 264 264 263 262 261 260 260 260 265 259 262 272 272 274 276 276 275 269 266 263 263 266 266 265 263 262 261 259 257 257 256 255

GFSWCAN_sfc_thetae_069.txt.gz
Theta_e
302 303 303 303 303 303 303 302 302 305 308 307 306 305 305 306 305 296 292 294 289 283 284 287 287 284 284 284 284 285 287 288 287 284 283 282 280 281 281 283 282 281 278 278 279 276 274 287 288 283 284 286 288 288
303 303 303 303 303 302 302 301 303 306 306 305 304 304 304 306 302 298 291 295 293 286 284 289 289 289 289 287 286 287 286 286 287 284 284 283 281 282 281 277 283 281 283 281 281 281 286 288 286 286 287 285 286 285
302 303 303 303 303 302 301 301 302 307 305 304 303 303 304 304 303 298 292 292 290 285 283 284 284 288 292 291 291 285 286 289 287 287 285 284 282 284 279 280 280 283 286 283 285 285 285 285 286 287 287 286 287 287
302 302 302 302 302 302 301 300 303 306 305 304 304 303 303 303 302 298 292 293 291 287 280 282 290 287 292 292 291 291 289 289 288 287 283 283 282 285 282 283 282 285 285 282 282 282 284 285 286 286 287 288 288 288
302 302 302 302 302 301 301 301 304 306 305 305 304 303 302 303 301 295 292 293 293 288 280 281 287 289 290 290 290 290 289 286 284 282 279 280 282 283 282 281 280 284 283 280 279 283 282 283 285 287 285 286 287 287
302 302 302 302 301 301 300 302 305 304 304 304 303 302 302 301 299 294 287 292 294 292 283 277 287 286 288 288 287 287 287 285 284 282 280 281 284 280 277 277 282 283 284 285 282 285 285 285 286 285 285 286 287 287
302 302 302 302 301 300 300 304 304 304 305 304 303 302 302 299 292 290 287 290 295 293 283 277 276 286 288 287 285 285 286 284 283 281 281 280 280 279 278 276 282 283 285 285 286 284 283 284 282 284 284 285 286 285
302 302 302 301 301 300 300 304 305 305 304 303 302 301 300 299 295 288 291 295 295 289 284 274 277 279 286 282 281 285 282 283 282 281 281 279 280 279 276 281 282 284 284 283 283 283 283 283 282 282 283 283 282 282
301 302 301 301 300 300 300 305 305 304 303 302 301 301 295 291 288 288 295 296 292 286 279 276 272 270 284 285 284 283 282 280 282 280 280 281 279 274 280 282 282 283 282 282 283 282 282 282 282 282 282 281 280 281
302 302 301 300 298 302 305 304 303 302 302 302 296 290 286 288 296 296 291 285 284 283 282 275 276 276 285 284 283 283 283 281 273 280 281 279 278 282 282 283 283 284 284 283 275 278 279 278 280 280 281 282 281 282
302 301 300 298 302 304 303 303 303 302 300 291 286 285 290 296 289 286 280 277 280 277 278 276 276 278 283 279 281 284 281 282 277 278 276 279 280 282 282 281 282 281 282 282 282 281 281 281 278 279 280 281 282 281
301 301 300 299 303 303 302 302 302 295 292 291 290 291 289 285 280 276 271 279 279 276 279 278 280 280 281 283 279 281 279 280 277 281 278 276 281 284 283 281 280 281 281 282 282 281 281 281 281 280 279 278 279 280
301 301 300 301 301 302 302 301 300 298 295 291 286 281 279 274 271 270 271 274 272 277 278 278 274 279 281 284 282 281 276 277 282 278 276 279 282 283 281 279 280 281 282 282 282 282 281 281 281 280 279 280 281 280
301 301 301 300 302 303 302 301 299 296 291 284 278 273 272 269 273 278 278 276 278 279 280 279 277 278 281 279 281 267 279 280 269 266 268 276 282 280 281 281 280 279 280 280 278 277 277 278 279 280 280 280 279 279
301 300 299 303 302 302 301 300 298 290 286 276 276 271 270 277 277 278 278 280 279 281 280 278 277 278 277 273 277 274 273 263 269 269 276 275 278 278 279 280 279 278 275 275 276 275 276 276 276 278 279 278 278 278
301 300 300 303 302 301 300 295 290 288 284 276 274 274 278 275 273 277 279 280 280 281 278 279 275 271 272 272 270 266 266 265 270 271 276 276 276 278 278 279 279 279 278 278 277 277 277 275 276 277 277 277 277 278
299 298 302 302 301 300 297 289 285 282 280 276 276 280 278 277 276 277 279 280 281 280 275 275 270 271 275 269 270 270 268 271 274 274 275 278 278 278 278 278 278 278 278 278 276 276 276 277 273 272 272 277 276 278
296 301 301 300 298 295 286 286 283 278 275 276 275 276 279 280 279 280 281 281 279 278 278 273 276 270 268 267 268 274 273 272 275 276 277 280 278 278 278 277 278 278 276 274 275 273 272 273 274 276 276 276 276 277
300 300 300 299 294 286 282 281 281 274 275 276 277 278 279 280 281 281 280 279 279 280 279 275 271 268 272 272 272 269 270 273 276 276 276 277 277 277 278 277 276 274 273 273 276 277 278 278 278 278 278 277 276 277
301 300 299 297 293 284 278 278 282 277 273 276 276 274 277 278 279 279 278 279 280 275 273 271 274 276 276 276 274 275 275 277 276 274 275 276 276 272 274 274 276 276 275 273 274 281 277 277 278 277 278 278 276 277
297 297 295 288 284 282 279 277 276 274 276 274 275 274 275 277 276 274 271 276 274 269 272 275 275 276 277 277 277 277 277 277 275 275 274 273 277 274 276 276 274 275 275 278 277 277 279 277 277 278 278 279 279 277
294 294 286 287 281 278 276 279 276 277 275 274 274 276 275 273 270 266 269 270 267 272 274 273 273 274 276 276 276 273 277 277 276 275 279 278 274 274 276 276 273 273 272 275 276 276 277 278 278 279 278 278 279 277
293 290 285 283 278 276 274 278 275 275 275 272 273 273 271 268 266 269 268 266 270 271 273 272 270 269 272 271 271 272 271 271 274 274 275 275 275 276 275 275 274 272 274 274 274 276 276 280 279 278 278 277 277 276
290 282 279 277 275 272 276 271 275 274 275 275 273 270 269 267 268 267 267 267 272 273 272 268 269 271 271 271 271 272 272 270 270 272 273 271 273 275 275 275 275 274 274 276 275 275 275 275 277 276 275 274 273 271
283 276 276 269 272 273 271 271 272 273 272 272 271 269 268 267 266 264 266 268 267 270 269 268 269 270 271 270 269 271 272 271 270 271 274 270 272 272 271 271 273 273 274 271 270 271 271 272 272 272 272 272 271 271
275 273 272 271 271 273 273 272 272 272 272 270 267 266 266 267 265 267 268 268 270 269 269 270 272 271 271 271 270 270 271 269 268 267 270 269 271 269 270 271 271 271 271 269 270 270 269 270 269 269 270 272 275 273
270 268 273 277 275 274 274 274 275 274 272 270 267 266 269 267 266 269 270 268 269 267 267 268 269 268 268 269 271 271 270 265 265 267 270 269 269 268 271 269 266 268 271 272 270 269 269 269 269 270 270 272 272 271
275 274 272 271 273 274 273 273 273 272 269 269 271 268 270 270 270 270 269 267 266 263 265 264 265 265 265 266 265 267 265 261 264 263 264 265 265 262 261 265 267 273 272 269 271 272 271 270 270 270 270 271 272 272
272 275 276 273 272 271 270 272 271 270 272 270 269 267 268 269 267 266 269 267 262 268 266 265 265 260 262 262 261 262 260 261 260 259 258 261 260 263 261 265 265 266 266 267 273 273 272 273 273 273 271 270 270 267
272 275 273 271 271 269 267 266 265 267 270 270 271 269 270 268 267 264 266 264 265 264 263 261 260 261 261 261 262 261 259 259 260 261 258 258 260 264 266 266 266 267 267 268 266 265 271 269 266 264 264 265 266 265
276 275 271 269 267 265 264 264 265 271 265 263 263 266 267 265 267 265 263 261 261 263 265 262 261 257 260 259 258 257 260 259 257 259 261 264 265 265 266 267 267 267 267 263 263 263 262 261 260 260 262 262 264 265
273 271 271 268 266 264 262 263 262 262 263 263 264 262 264 265 266 266 263 262 262 264 269 263 262 263 261 259 258 258 269 260 259 260 262 264 266 267 269 272 265 263 260 261 260 259 259 259 259 259 260 259 259 258
272 271 270 269 267 265 264 264 263 263 263 261 261 259 258 262 266 267 262 260 264 264 265 264 261 260 260 259 258 258 264 258 261 271 272 275 276 277 271 266 265 264 260 259 259 258 257 256 257 257 257 256 256 257

GFSWCAN_sfc_thetae_072.txt.gz
Theta_e
303 303 303 304 304 304 304 303 303 305 309 308 307 306 305 306 303 296 291 293 288 282 283 286 286 283 284 285 284 285 287 288 287 284 282 281 279 281 279 281 280 280 277 277 278 277 275 286 287 283 283 285 286 285
302 303 303 303 303 304 304 303 302 305 307 306 305 304 305 306 303 298 288 293 292 285 284 288 287 288 288 287 286 285 285 285 287 284 283 282 281 280 279 277 282 279 282 280 281 281 284 284 284 285 286 285 284 284
302 303 302 303 303 303 303 302 302 305 306 305 304 303 305 305 302 298 291 290 288 283 283 284 283 288 291 290 290 285 285 288 286 286 284 283 282 282 278 279 279 281 284 282 283 283 282 284 285 286 286 284 285 286
302 302 302 303 303 303 303 302 302 306 304 304 304 304 305 303 302 297 292 291 289 285 280 282 290 287 291 291 290 290 289 288 288 286 282 282 282 283 281 282 281 283 284 282 280 281 282 283 284 284 285 286 286 286
302 302 303 303 303 303 302 302 301 304 305 304 303 304 304 302 301 295 293 292 292 286 280 281 286 288 289 289 289 289 288 286 284 282 279 279 281 282 280 280 279 283 282 280 280 282 282 282 285 285 283 284 285 285
302 302 303 303 303 302 302 301 301 305 303 304 303 302 303 302 298 291 288 292 294 291 282 278 286 286 288 288 287 286 286 285 283 282 279 280 282 280 277 276 281 282 283 284 282 283 284 284 285 284 283 284 285 284
303 303 302 303 302 302 301 303 306 305 304 303 302 303 302 299 293 289 287 290 295 291 283 278 279 285 287 286 285 284 285 283 282 281 280 279 280 279 278 276 281 282 284 284 284 283 282 283 281 282 282 284 284 284
303 302 302 302 302 302 300 301 304 305 304 303 302 301 300 299 295 288 290 296 294 287 283 275 279 279 285 281 281 283 281 282 281 280 280 279 280 279 276 280 281 282 282 281 281 282 282 281 281 282 282 282 281 280
303 302 302 302 302 302 301 299 304 304 303 302 301 300 293 290 285 287 296 296 291 287 278 274 273 273 283 282 282 282 282 279 282 279 280 280 278 274 280 281 281 282 281 281 281 281 280 280 280 280 279 280 279 279
303 302 302 302 303 302 301 301 305 304 303 302 295 289 285 286 297 296 290 284 282 281 280 272 276 276 280 280 281 278 282 277 269 279 280 279 278 281 281 281 282 282 281 281 275 276 278 276 278 278 278 279 279 279
302 302 302 303 302 301 300 303 304 303 300 290 287 285 289 295 288 285 278 276 278 274 277 274 275 278 283 277 280 282 280 281 277 279 276 274 279 280 282 280 281 280 280 279 280 281 279 279 277 278 279 280 280 279
302 302 302 301 300 300 301 304 303 295 291 291 290 291 289 284 281 278 275 277 275 273 278 277 279 280 281 283 278 280 276 280 272 281 278 275 277 280 280 280 280 280 279 280 281 280 280 281 280 279 278 277 277 277
302 302 302 300 300 304 303 303 301 298 295 291 285 282 281 276 271 270 269 270 274 277 276 277 275 278 280 281 280 280 271 272 281 277 274 275 279 281 280 278 279 280 279 280 280 280 280 279 280 279 278 279 278 278
302 302 300 299 303 303 302 301 300 296 290 283 277 273 275 273 273 275 276 274 277 278 279 277 276 277 279 276 278 269 278 278 268 264 268 272 279 279 279 279 279 277 279 279 276 275 276 277 278 279 279 278 277 276
301 301 299 302 302 302 301 300 297 290 286 280 277 276 270 278 279 275 272 277 277 281 278 276 276 277 273 273 277 275 273 265 269 269 272 274 277 277 277 278 278 277 274 272 273 272 272 274 275 277 278 277 276 277
301 300 297 299 301 301 301 296 290 288 284 278 273 272 278 276 275 275 276 277 278 279 277 278 273 270 271 273 270 267 267 267 270 271 275 276 276 277 277 278 278 277 277 277 275 274 275 274 275 276 276 276 276 276
300 295 300 300 301 301 298 288 286 281 279 274 273 279 278 272 272 275 279 279 281 278 273 273 269 270 274 269 270 270 270 271 273 274 274 277 277 277 277 278 278 278 277 276 275 275 274 275 271 271 272 276 275 277
293 297 301 302 300 296 287 286 282 278 275 276 273 277 279 277 277 279 279 280 279 277 275 270 274 268 269 268 269 274 274 271 274 275 276 279 278 277 278 277 278 277 276 273 274 272 270 272 273 275 275 277 275 275
295 301 302 300 295 287 283 282 280 275 276 277 278 278 278 278 279 279 280 280 279 280 276 271 269 267 272 272 272 269 269 272 277 276 275 276 276 275 276 274 274 273 272 272 275 277 277 276 277 277 277 276 276 277
300 301 299 298 293 284 280 278 280 278 275 277 277 276 279 277 278 278 279 279 279 272 272 269 273 275 276 276 275 276 274 277 275 274 274 274 275 271 273 273 274 273 273 271 273 279 276 275 276 276 276 276 277 277
299 297 298 288 283 282 279 276 276 277 276 274 273 274 273 274 273 274 269 274 274 267 270 273 274 276 277 276 277 277 276 276 274 274 273 272 275 272 273 273 270 274 273 276 275 275 277 275 276 277 277 277 277 277
294 295 286 286 280 279 277 279 277 278 274 272 272 274 272 272 272 268 268 271 268 271 272 273 272 274 275 275 275 272 276 276 275 274 278 277 273 272 274 275 272 272 269 271 273 274 275 276 277 278 278 278 279 277
292 290 284 282 278 277 274 279 276 275 275 272 272 271 269 270 269 269 269 267 270 271 273 272 269 268 272 270 270 271 270 271 273 274 274 274 274 273 272 272 271 267 272 273 274 274 273 276 275 275 275 275 275 274
290 283 279 277 276 272 276 272 276 275 274 272 270 268 269 270 268 267 268 267 271 273 272 268 269 271 271 271 270 271 271 268 268 269 272 270 268 271 272 271 271 271 272 272 271 270 270 271 273 272 272 271 271 271
282 277 277 271 271 271 269 268 269 271 270 270 270 269 269 268 268 266 268 269 268 270 269 268 269 270 271 269 268 270 270 269 268 269 269 268 268 267 266 269 270 270 272 267 267 269 269 269 269 269 269 268 270 272
277 274 274 272 269 272 272 271 270 271 272 269 268 267 266 269 270 269 269 270 271 269 270 272 273 271 270 270 270 269 270 268 266 265 265 266 266 265 267 269 267 267 268 266 268 268 268 268 268 268 269 270 273 272
271 269 273 277 275 275 274 275 276 275 273 271 268 268 270 269 269 270 270 269 269 267 270 272 271 270 270 268 270 270 268 262 264 265 267 266 265 267 268 265 263 267 269 270 269 268 268 268 269 269 269 269 270 271
274 273 272 273 272 273 273 273 274 272 271 271 273 271 273 273 271 270 270 267 266 267 267 264 264 265 265 265 264 266 262 260 260 260 262 263 262 259 259 262 264 272 270 266 269 271 270 269 269 269 269 269 271 272
272 275 276 272 272 270 269 272 271 272 273 272 271 268 268 268 266 266 268 267 263 271 270 268 264 258 260 260 259 259 258 260 262 260 259 259 259 262 259 264 265 265 263 264 271 272 271 272 271 270 269 268 269 267
273 275 272 270 270 268 267 268 270 270 271 271 272 269 269 268 266 264 266 266 268 266 264 262 260 261 261 261 260 260 258 258 259 261 257 257 259 261 264 264 265 266 264 264 266 264 269 267 264 263 264 265 265 262
275 273 270 269 266 267 267 267 268 271 267 266 264 267 266 265 267 265 264 261 260 263 265 261 259 255 260 259 258 258 260 258 256 258 259 262 263 263 264 266 267 267 265 261 261 261 258 258 257 257 259 258 259 260
272 271 272 269 268 268 268 266 265 266 265 266 263 262 264 267 267 267 264 262 261 263 269 264 263 264 261 258 258 258 268 259 257 257 259 262 264 266 268 268 265 264 259 258 258 258 256 255 256 256 257 256 257 257
273 273 271 270 270 269 265 266 265 264 263 261 262 260 259 263 267 268 261 259 264 266 266 265 259 260 261 260 259 258 264 256 260 271 272 275 277 276 268 264 265 261 259 258 257 255 255 254 255 254 256 257 257 257

GFSWCAN_sfc_thetae_075.txt.gz
Theta_e
301 302 303 304 304 304 305 305 304 304 308 308 307 307 307 306 302 297 291 291 287 282 283 285 286 283 285 286 284 286 287 288 286 283 282 281 279 280 278 279 279 280 277 277 279 278 274 285 286 281 282 283 285 284
301 302 303 303 304 304 304 304 304 304 308 307 306 305 305 305 302 298 289 292 291 285 283 287 286 287 287 286 286 284 284 285 286 283 282 282 281 279 278 276 280 279 281 280 280 280 283 283 283 284 285 284 283 283
301 302 303 303 303 304 304 304 303 306 306 306 304 303 304 306 302 298 290 289 287 283 283 283 283 288 290 289 290 285 285 287 286 285 283 282 282 282 278 278 277 280 283 281 282 281 281 282 284 284 285 284 284 285
300 301 303 303 303 303 304 303 303 305 305 304 303 303 305 303 301 298 291 291 288 285 280 281 289 286 290 289 290 289 288 288 287 285 282 282 282 283 280 281 280 282 283 281 280 279 280 283 283 283 284 285 284 285
300 302 303 303 303 303 303 303 302 302 304 304 303 304 303 302 300 296 292 291 290 286 280 281 285 287 288 288 288 289 288 286 284 282 279 279 281 281 279 280 278 281 281 280 279 282 281 281 284 285 282 282 283 283
301 302 303 303 303 303 303 302 302 303 303 303 304 304 303 302 298 291 288 291 292 289 282 278 285 285 287 287 286 286 286 284 282 282 279 280 282 280 277 277 280 280 282 283 281 282 283 283 284 283 281 282 283 283
300 301 302 303 303 303 303 302 303 305 304 303 302 303 301 299 292 288 287 290 294 289 282 278 278 284 286 284 284 284 284 282 282 280 280 279 279 279 278 276 280 281 282 281 281 282 281 281 280 281 280 282 283 281
300 301 302 303 303 303 302 302 305 304 303 302 303 302 300 299 295 287 290 297 292 285 282 276 278 279 285 281 281 283 282 282 281 280 280 279 279 278 276 279 280 282 281 280 280 281 280 280 280 280 280 280 279 279
300 301 302 303 302 303 302 301 304 304 303 303 301 300 292 289 285 286 296 295 291 287 278 275 274 273 283 281 282 282 282 279 281 279 279 280 278 274 279 279 280 281 281 280 281 280 279 278 278 279 278 278 277 278
300 301 302 302 303 303 303 299 304 304 303 302 294 289 283 286 296 295 288 283 282 282 280 276 279 276 279 278 278 278 281 278 270 278 280 278 277 281 280 281 282 282 282 281 275 275 277 275 277 277 278 278 278 278
301 301 302 303 303 303 303 299 304 303 301 290 286 284 287 295 287 283 278 277 278 275 279 276 276 277 282 275 277 281 276 279 270 275 275 271 274 279 280 280 280 280 279 278 279 279 278 278 276 277 278 279 279 278
302 302 303 303 303 303 303 300 304 296 291 291 290 291 287 283 278 275 270 276 277 275 277 277 278 280 280 282 278 278 275 278 270 280 273 270 277 279 280 279 279 278 278 279 279 279 279 280 278 278 277 276 276 277
302 303 303 303 303 303 302 302 302 298 295 290 286 282 281 276 270 268 268 270 271 277 278 277 276 278 280 281 277 274 270 271 281 277 271 274 278 280 279 277 279 279 279 279 279 279 279 278 279 278 277 278 277 277
302 303 302 303 303 302 302 302 301 297 290 284 278 276 277 270 271 272 275 276 279 279 277 277 277 277 279 275 276 269 278 276 270 265 268 272 278 280 279 279 278 276 278 278 276 275 276 277 277 278 278 277 276 276
303 303 302 302 302 301 302 302 299 291 285 281 278 275 270 277 278 277 274 277 277 280 277 276 275 277 274 274 277 276 274 265 270 270 273 274 276 277 278 278 277 277 273 273 272 271 271 272 274 275 277 276 276 276
303 301 297 299 303 303 302 298 291 288 283 277 272 272 277 276 277 274 270 273 276 278 277 278 273 272 271 273 270 267 269 268 271 271 275 276 275 277 277 277 277 277 276 276 274 273 274 273 274 274 273 274 275 275
300 291 299 302 301 299 297 289 287 282 280 274 274 279 279 277 276 276 278 278 279 277 273 273 270 271 274 269 269 269 269 271 272 273 274 277 277 276 276 277 278 278 276 275 274 275 274 273 268 270 271 275 274 276
293 296 300 301 297 293 288 286 282 279 274 273 276 277 280 278 277 277 278 279 279 276 275 272 274 269 269 268 269 272 272 269 273 275 276 279 277 276 277 276 276 276 275 273 273 272 268 271 272 275 274 275 273 274
295 297 300 298 294 288 284 283 282 274 273 277 279 279 279 279 279 279 279 279 279 279 274 269 269 268 272 272 270 267 268 272 277 276 275 275 274 274 275 273 273 271 270 269 273 274 275 275 275 276 276 275 274 276
300 300 299 298 294 285 281 280 282 276 274 277 278 277 278 277 277 276 277 278 278 270 270 269 273 275 276 275 274 275 275 276 275 273 273 274 273 269 271 271 273 272 272 271 271 278 274 274 275 275 275 277 278 276
297 297 298 291 284 283 281 278 276 276 276 276 277 277 274 272 271 270 270 274 270 267 271 273 274 275 277 276 277 277 276 275 274 273 273 269 274 271 270 271 268 272 271 273 273 274 275 274 275 276 276 277 277 277
294 296 285 285 281 280 278 279 277 277 275 276 275 275 271 270 269 268 267 267 268 272 274 273 273 274 275 275 274 272 275 275 274 274 277 276 272 271 272 272 271 269 268 268 271 272 272 273 274 274 273 273 275 274
292 289 284 283 278 278 275 279 276 276 275 274 273 273 270 266 266 269 268 266 269 271 272 272 270 269 273 270 271 270 270 271 273 273 273 273 273 271 269 269 269 263 267 271 271 270 269 273 272 272 272 271 271 271
290 284 280 278 277 273 277 274 277 275 275 273 270 269 268 268 269 270 271 268 272 273 272 268 274 272 271 271 270 270 269 267 267 268 271 269 266 269 270 269 269 268 270 270 268 268 268 269 272 270 269 268 268 268
281 277 278 272 275 273 272 272 272 273 271 269 270 267 266 269 271 270 270 269 268 271 271 271 270 271 272 269 268 269 269 268 267 267 266 267 266 265 264 267 268 269 268 264 266 267 267 268 267 267 268 268 269 270
276 275 275 274 271 273 272 271 272 271 271 268 268 268 268 271 272 272 271 272 271 271 271 274 273 271 270 270 270 268 269 267 266 264 264 265 265 263 259 264 262 265 266 264 266 267 267 267 267 267 267 268 272 270
272 271 274 277 276 276 274 275 276 275 272 270 268 268 270 272 270 272 271 270 271 270 273 274 274 272 272 269 269 268 266 262 264 264 264 264 264 264 263 261 261 265 268 268 267 266 266 267 267 267 268 268 269 269
275 273 272 273 273 274 274 273 274 274 272 272 273 272 273 273 273 272 271 267 267 270 267 265 266 269 269 265 264 266 261 259 258 258 260 262 260 258 258 260 263 271 271 266 269 269 269 268 268 268 268 268 268 269
272 274 275 270 271 270 270 273 272 272 274 273 273 270 270 270 268 265 267 267 264 273 272 269 263 261 262 260 259 257 258 260 261 259 259 258 258 261 257 260 261 263 262 262 270 272 270 272 269 269 266 265 266 265
272 275 272 269 270 268 267 268 270 271 272 272 273 271 271 269 266 264 267 268 271 271 267 268 266 265 264 264 261 260 257 256 259 261 259 258 259 259 259 262 264 264 263 262 262 261 268 263 261 258 259 260 260 259
275 273 269 268 267 267 268 268 271 272 269 269 268 269 268 268 268 265 263 261 263 265 267 264 258 255 263 258 258 258 260 258 255 257 257 257 257 259 264 265 265 265 262 257 257 257 256 256 255 255 257 256 257 259
273 271 271 268 268 269 269 270 269 269 268 268 266 264 264 267 268 268 265 264 265 267 270 269 267 265 262 258 258 258 269 260 259 258 257 258 260 265 266 264 263 259 257 257 256 255 255 254 255 256 257 257 257 257
273 273 271 271 270 271 270 271 269 268 266 264 262 259 259 265 269 271 263 261 267 272 270 267 260 260 263 261 260 258 264 256 260 269 272 274 277 276 267 262 261 259 259 258 256 255 255 253 254 255 257 258 259 258

GFSWCAN_sfc_thetae_078.txt.gz
Theta_e
300 301 302 303 304 304 305 305 305 306 308 308 308 307 306 305 304 295 289 289 286 281 283 285 286 286 287 288 285 285 286 287 286 282 281 280 278 279 276 277 277 279 276 276 280 278 273 283 285 280 282 282 284 283
300 301 302 303 304 304 304 305 304 307 307 306 306 306 306 304 304 298 288 291 290 284 283 286 286 289 286 285 285 284 284 285 286 283 281 281 281 278 277 276 279 278 281 279 280 279 282 281 282 283 284 284 282 282
300 300 301 303 304 304 304 305 304 307 306 306 305 305 305 304 303 296 288 288 287 283 282 283 282 288 289 288 289 285 285 287 286 285 283 282 281 281 277 278 276 279 282 281 281 280 280 281 282 283 283 283 283 283
300 300 302 303 304 304 304 304 303 305 305 305 303 305 306 304 302 297 290 289 287 284 280 281 288 285 289 289 289 289 288 288 286 284 281 282 282 281 279 280 280 282 282 280 280 280 280 283 283 283 283 283 283 283
299 300 301 302 303 304 304 304 303 302 304 303 304 304 303 302 301 294 291 290 289 286 280 280 284 287 288 288 288 288 288 286 283 282 278 279 281 280 278 279 278 281 281 280 280 282 281 281 283 284 282 281 282 281
299 300 300 302 303 304 304 304 303 302 304 303 304 304 302 300 298 291 286 290 291 289 283 277 283 283 286 286 285 285 285 284 282 282 279 279 281 279 277 277 280 280 281 282 281 281 282 282 283 282 280 281 280 281
299 299 301 302 303 303 304 303 303 303 304 303 303 302 301 299 294 288 286 289 294 289 282 275 276 284 284 284 283 283 283 282 282 280 280 279 279 278 278 276 279 280 281 281 281 281 279 281 279 281 279 280 282 280
299 299 300 301 303 303 303 302 305 305 304 303 303 301 300 299 295 289 290 297 291 285 283 275 276 278 284 281 281 283 281 282 281 279 279 278 279 278 276 279 279 281 281 280 279 280 279 280 279 278 278 279 278 278
299 299 300 302 303 303 302 301 305 304 303 303 302 299 293 289 286 286 297 294 289 285 276 276 273 271 283 282 282 282 282 279 282 279 279 279 277 275 279 279 279 281 280 280 281 279 278 277 277 277 276 276 276 277
299 299 300 301 302 303 303 300 304 304 303 302 293 288 284 286 296 294 288 284 283 283 281 273 276 274 279 279 279 278 280 278 272 279 279 278 277 281 280 280 281 282 282 281 274 274 276 274 277 276 276 277 277 277
299 300 301 302 303 303 303 300 304 303 299 290 285 283 287 294 287 283 278 276 278 275 280 278 276 277 283 277 277 280 274 276 270 276 275 271 273 278 280 280 280 280 280 278 278 279 278 277 275 276 277 278 278 278
299 301 302 302 303 303 303 301 303 297 292 291 289 290 287 282 278 275 271 276 275 274 277 276 278 280 280 281 278 278 273 273 271 278 271 268 275 278 278 279 278 278 277 278 278 279 279 279 277 277 276 275 275 276
300 301 302 303 303 303 303 302 303 298 296 290 286 282 280 276 271 269 269 269 273 277 279 279 276 278 279 280 277 273 269 271 279 276 268 272 277 280 278 276 278 278 278 279 279 279 279 277 278 277 276 276 276 275
300 301 302 303 304 303 303 302 302 297 291 284 279 275 274 269 272 274 274 276 278 279 278 277 277 277 279 275 275 268 278 277 269 264 267 271 276 279 278 279 278 276 277 278 276 275 276 278 277 277 277 276 275 274
300 302 302 303 303 303 302 303 300 292 286 282 278 272 272 276 276 275 273 275 277 280 277 276 275 276 273 273 276 277 274 268 270 270 272 272 274 276 277 277 277 276 272 272 272 271 271 271 273 274 276 276 275 275
301 301 300 302 303 303 302 299 292 289 284 279 273 269 276 273 276 278 272 276 278 278 277 277 272 269 271 272 270 271 269 268 272 271 274 274 274 276 277 277 276 276 275 275 273 272 273 272 273 273 272 273 275 275
300 295 301 302 302 302 299 290 287 284 283 278 271 277 278 277 278 278 278 278 279 278 273 273 268 270 273 267 270 270 270 272 271 272 273 276 277 275 275 277 276 276 275 274 272 272 271 273 267 268 270 273 273 275
296 297 301 301 300 298 288 286 285 282 278 275 273 275 280 279 279 279 279 280 279 277 275 272 273 267 268 269 270 272 272 269 273 274 275 278 276 275 276 275 275 275 272 269 270 269 267 268 271 273 273 274 273 273
296 299 301 300 296 288 285 283 284 278 275 275 277 279 279 280 280 280 280 279 279 278 275 269 268 268 271 272 270 268 269 274 277 276 274 274 274 274 274 271 271 270 268 268 272 273 273 273 273 274 275 275 274 275
300 299 298 297 293 285 281 279 283 278 274 276 278 278 278 278 278 278 278 278 278 271 271 270 273 275 275 275 274 276 275 276 275 273 273 272 272 268 271 269 270 269 269 268 269 276 272 272 273 273 274 275 274 274
298 297 296 290 285 284 282 279 276 278 276 276 277 278 276 276 275 273 271 274 272 269 270 273 274 275 277 276 277 278 276 275 273 273 272 269 273 269 269 269 267 271 270 271 271 271 272 270 271 272 272 273 272 273
294 293 286 287 281 280 279 279 276 277 277 276 276 277 275 275 274 272 269 269 269 273 273 273 273 274 275 274 274 272 275 274 274 275 276 276 271 269 269 269 267 262 263 265 269 269 269 270 272 272 271 271 271 270
292 289 284 283 279 278 275 279 276 276 275 274 274 274 273 272 271 271 271 269 270 271 273 272 270 270 273 270 272 271 271 271 272 272 273 272 272 270 268 268 267 262 264 268 269 268 267 272 270 271 270 269 269 269
291 284 281 279 278 274 277 275 277 275 275 274 274 272 271 271 271 268 271 270 272 272 272 271 274 272 272 271 270 270 269 268 267 268 269 268 265 268 268 268 268 267 268 268 267 266 267 268 270 268 268 267 267 268
281 278 278 273 276 273 269 271 273 274 272 272 271 271 271 270 269 267 270 270 268 272 273 272 272 273 273 269 268 269 268 268 267 267 266 266 266 264 264 265 267 267 267 262 264 266 266 266 266 266 266 267 268 269
276 276 276 275 273 270 270 270 271 271 272 270 272 270 269 271 270 271 273 273 274 274 274 275 274 271 270 271 271 269 270 267 267 265 263 264 264 262 257 260 260 264 266 264 264 265 265 266 266 266 266 267 270 268
272 273 275 278 275 274 273 274 275 274 272 271 270 268 270 272 273 273 272 273 273 272 277 277 276 275 273 271 270 270 268 263 264 264 265 264 264 264 262 260 260 265 267 267 266 265 266 266 267 267 267 267 267 267
277 274 268 269 270 270 272 273 273 275 273 273 273 271 273 273 274 274 274 271 271 275 271 268 268 273 273 269 270 268 262 259 259 260 262 262 260 257 258 259 260 270 270 265 269 268 267 267 267 267 266 265 265 266
271 272 272 264 265 268 270 274 274 273 275 275 274 271 270 270 269 270 270 269 273 274 272 270 265 266 264 263 261 259 261 264 263 260 260 259 258 260 257 258 260 259 259 260 269 271 270 272 267 266 262 262 263 262
270 269 269 265 267 268 267 269 270 270 272 273 273 271 271 270 269 268 269 271 275 276 274 273 268 270 267 268 262 261 258 257 260 263 261 259 260 259 256 258 260 259 259 260 259 258 268 261 260 256 257 258 258 258
271 270 267 267 266 266 268 269 272 273 271 270 270 271 270 270 270 268 266 264 268 271 270 267 261 262 267 264 263 263 262 259 255 257 257 257 256 257 259 260 260 260 258 256 256 256 255 255 254 254 256 256 257 259
270 270 269 267 267 269 269 269 270 270 270 271 269 268 269 271 270 270 266 266 268 269 273 272 270 268 264 261 262 259 270 264 262 260 258 258 258 262 262 260 258 257 257 257 256 255 254 253 254 255 257 257 258 258
271 271 270 270 269 269 269 271 271 270 270 269 267 266 265 268 270 272 265 263 269 273 272 271 264 268 266 264 263 263 266 259 262 269 270 273 276 274 265 259 260 259 259 258 256 255 255 254 254 255 257 258 259 260

GFSWCAN_sfc_thetae_081.txt.gz
Theta_e
300 300 301 303 304 305 305 305 306 308 308 309 308 307 307 304 301 292 288 288 286 282 283 286 286 283 285 285 284 285 286 287 285 282 281 279 278 278 276 277 277 279 276 277 278 275 273 283 285 281 283 284 285 285
299 300 301 302 303 304 305 305 305 308 307 307 307 307 306 306 302 296 287 290 289 284 283 287 288 287 285 285 285 284 284 284 285 283 281 281 280 277 276 276 278 278 281 279 280 280 283 283 283 284 284 284 284 284
299 300 300 302 303 304 305 305 305 307 306 306 306 305 305 304 302 296 287 287 287 283 283 284 285 288 288 287 288 285 285 287 285 284 282 282 281 281 277 277 276 279 282 281 282 281 282 283 283 284 284 284 285 285
299 300 300 301 302 304 304 304 304 304 306 305 305 306 305 304 302 297 289 288 287 284 281 282 288 285 289 288 288 288 288 287 286 284 281 282 282 282 279 279 279 282 282 281 280 282 281 283 284 284 284 284 284 284
298 299 300 300 302 303 304 304 304 303 304 304 305 304 303 302 300 293 290 289 288 286 280 281 284 286 287 287 288 288 288 285 284 281 278 279 280 280 277 278 278 281 282 281 280 282 282 282 283 285 283 282 282 282
298 299 299 300 301 302 304 304 304 303 303 304 304 303 301 301 298 291 286 290 290 288 281 276 283 283 286 286 285 285 284 282 282 282 279 279 281 279 277 276 281 280 281 282 281 281 282 282 283 283 281 281 282 282
298 299 299 300 301 303 304 304 303 303 303 304 304 302 300 300 292 287 286 289 293 289 282 275 275 284 284 284 283 283 282 281 281 280 280 279 279 278 277 276 280 280 282 281 282 282 280 282 280 282 280 280 281 280
298 299 299 299 301 303 303 303 304 304 304 304 302 301 300 299 295 288 289 295 290 285 282 274 274 278 284 281 281 282 281 281 281 279 279 278 279 278 276 279 278 281 281 279 280 280 279 281 279 279 279 278 277 277
298 298 299 299 301 302 303 302 305 305 304 304 301 299 291 288 284 286 296 293 288 284 276 275 274 272 283 281 281 282 282 279 281 279 278 279 277 274 280 279 279 281 280 280 280 279 279 278 277 277 276 276 276 276
298 298 299 300 301 302 303 301 305 304 303 300 294 287 282 285 296 294 287 284 281 280 280 273 278 276 280 279 278 278 280 277 270 278 279 277 276 280 280 280 281 281 281 280 275 275 276 274 276 275 277 277 277 277
298 298 298 300 301 302 303 301 304 302 298 291 286 283 287 294 286 282 277 276 278 275 278 276 277 279 282 276 278 280 275 274 268 275 275 272 273 278 279 279 280 280 280 279 278 278 277 277 275 276 277 278 278 277
298 299 299 301 301 302 303 302 303 296 292 291 289 289 286 282 277 273 270 275 274 274 277 278 279 280 280 281 278 278 274 273 270 276 271 269 274 278 278 278 277 277 277 277 277 278 278 279 277 277 276 275 275 275
298 299 300 301 302 303 303 302 303 299 295 290 286 282 280 276 270 268 269 271 271 277 278 279 278 279 279 280 276 273 270 271 277 274 269 272 276 279 278 276 277 277 277 278 278 278 278 277 278 277 276 276 275 275
298 299 300 301 302 303 304 303 300 297 293 284 281 278 277 270 272 274 275 277 279 279 278 277 278 277 279 275 275 269 277 277 270 266 268 270 275 278 278 278 278 276 277 277 274 273 275 276 276 277 277 276 275 274
298 299 300 301 302 303 303 303 299 293 288 283 280 274 274 276 274 275 274 277 279 282 279 277 276 277 273 273 276 277 273 268 270 269 271 271 273 276 277 277 277 276 272 270 270 269 268 270 272 273 275 275 275 275
298 299 297 301 303 304 302 298 292 290 284 280 273 269 273 271 272 277 275 277 279 281 279 279 275 272 271 272 270 269 268 268 272 271 273 275 274 276 276 277 276 275 274 273 271 270 270 270 271 271 271 272 273 274
298 296 301 302 303 302 298 290 287 285 284 280 273 276 276 277 276 278 278 279 280 279 277 275 271 272 273 267 268 271 270 272 272 272 273 276 276 275 275 276 275 275 273 272 269 270 269 270 266 266 269 272 272 274
294 297 302 303 301 296 288 287 286 283 280 275 271 272 279 280 279 279 280 280 280 278 276 272 274 269 270 268 270 273 273 269 273 275 275 276 275 274 275 274 274 274 270 267 268 266 265 266 269 272 272 273 273 273
297 298 302 302 296 289 285 283 285 276 274 271 274 276 278 280 281 281 281 281 279 279 275 272 269 269 272 274 272 270 272 274 276 275 273 273 273 273 273 271 270 268 265 265 270 271 272 271 271 271 272 272 272 272
300 300 302 301 296 286 282 280 282 272 269 273 273 273 277 279 279 279 280 280 279 275 272 270 274 275 275 275 274 276 277 277 276 273 272 272 271 268 270 269 269 268 267 265 267 273 270 270 271 271 271 273 271 270
299 298 300 291 285 286 283 279 275 277 274 272 271 274 276 277 277 276 277 277 274 271 272 275 275 276 277 276 278 279 276 275 274 273 272 269 272 270 268 267 265 269 269 269 268 269 270 268 269 271 271 271 270 270
294 294 286 287 282 281 279 281 279 278 275 273 273 275 275 275 276 275 275 273 271 276 275 275 275 276 276 275 274 274 275 274 274 276 278 276 271 268 268 268 266 264 262 263 267 267 267 269 271 272 270 270 270 269
293 289 284 283 279 279 276 275 276 275 274 274 274 275 275 275 274 273 275 274 275 275 275 274 273 273 274 272 273 272 271 273 272 272 272 271 271 269 267 267 266 262 262 266 266 266 265 271 269 270 269 268 268 268
292 285 281 279 279 274 278 275 277 276 275 274 274 274 272 273 272 272 272 272 275 274 273 273 275 273 273 273 272 272 270 270 270 268 269 269 266 268 268 267 267 265 267 267 265 265 265 267 269 267 267 266 266 267
282 279 279 274 276 270 266 269 271 274 272 273 271 270 271 271 272 271 270 275 273 274 274 275 275 276 275 272 271 271 269 270 270 268 264 265 266 264 263 265 265 266 266 260 262 264 263 264 264 264 265 265 267 268
278 277 276 272 270 269 269 267 269 269 267 267 271 270 270 272 271 272 273 275 274 276 275 276 276 274 273 273 273 271 271 267 268 267 263 266 265 263 259 261 260 263 265 265 263 262 263 264 264 264 265 265 269 266
273 273 276 277 275 273 271 272 273 271 269 268 268 268 271 273 272 275 273 274 276 278 280 280 278 278 276 272 271 270 268 264 264 265 267 265 264 264 263 261 260 264 265 265 265 265 265 265 265 265 265 265 263 264
277 274 271 271 269 269 268 269 271 272 272 274 273 271 274 275 276 273 273 272 274 279 276 273 274 276 275 274 271 267 262 260 261 263 264 262 260 258 258 259 260 270 268 263 267 269 266 265 266 265 264 262 261 261
268 271 274 265 266 269 270 272 273 273 275 274 275 273 274 272 270 270 270 271 275 276 274 271 267 269 267 265 263 262 264 266 266 263 263 261 259 261 258 257 257 258 258 259 268 269 269 270 264 263 258 258 259 257
268 271 269 266 270 270 269 269 269 265 270 272 273 272 272 271 270 269 269 271 275 276 275 273 271 273 270 269 264 261 258 260 262 266 264 262 262 259 256 257 257 257 257 257 256 256 268 259 260 255 256 256 257 257
272 270 268 268 267 265 264 267 268 273 271 270 272 273 271 271 270 269 269 268 272 273 272 271 271 273 271 269 268 265 264 262 259 260 260 261 260 258 258 257 258 257 256 256 256 256 255 255 253 253 256 256 257 259
272 269 269 266 264 267 268 270 270 270 270 271 270 269 269 271 270 270 268 269 273 273 276 274 273 271 269 267 266 264 273 268 263 262 263 260 259 259 260 259 257 257 257 256 255 255 254 253 254 254 255 255 257 258
269 268 267 267 267 266 268 271 271 268 270 269 268 268 268 270 271 272 267 269 273 275 275 274 273 270 267 266 266 266 268 266 266 271 272 271 271 269 261 260 260 259 259 258 255 255 254 253 254 253 254 255 257 259

GFSWCAN_sfc_thetae_084.txt.gz
Theta_e
302 300 300 302 303 304 306 306 306 308 308 308 308 308 308 305 300 297 293 294 295 289 288 288 289 290 292 292 292 292 293 293 294 289 288 287 286 286 285 285 285 285 284 284 284 282 279 290 290 287 289 289 291 290
300 299 300 301 302 303 305 305 305 308 307 307 307 307 306 306 301 297 294 294 294 292 288 290 290 291 289 290 291 291 291 291 293 291 290 289 286 286 285 283 287 284 287 286 286 286 289 290 290 290 290 290 290 291
300 299 299 301 302 303 304 305 305 305 307 306 305 307 306 305 302 298 294 294 294 291 289 289 288 291 292 291 292 292 292 292 292 292 293 291 287 289 285 286 286 288 288 288 287 288 289 290 290 290 290 290 290 290
300 298 299 300 301 302 303 305 304 304 305 305 305 306 305 304 302 297 295 294 294 292 290 288 291 290 293 292 291 292 292 292 292 293 292 291 289 289 288 286 286 289 289 288 288 290 288 289 290 290 289 289 288 288
300 298 299 299 300 301 303 304 304 304 303 305 305 304 303 302 298 296 295 293 293 292 288 286 288 290 291 292 291 292 293 292 293 292 292 290 289 288 286 286 286 289 290 288 288 289 290 289 289 290 289 287 287 286
300 298 299 299 300 300 302 304 304 304 303 305 304 303 301 301 299 296 292 294 294 293 290 285 288 288 290 290 289 289 289 289 291 291 289 287 286 288 286 285 289 289 289 289 289 288 288 288 289 289 288 286 286 286
300 298 299 299 300 301 303 304 304 303 303 304 304 302 301 300 297 292 290 294 295 293 289 283 284 287 288 288 288 289 288 288 289 287 287 287 286 287 286 284 289 287 288 287 288 288 286 287 287 288 287 285 285 284
299 299 299 299 299 301 303 304 304 305 304 305 302 301 300 300 297 292 294 297 294 290 288 281 282 284 288 286 286 287 287 288 287 286 285 285 284 284 282 287 285 286 287 287 288 287 285 287 286 285 284 283 282 282
299 299 299 299 299 301 302 303 304 305 305 303 301 298 296 293 290 291 297 295 293 290 286 283 283 281 287 285 286 287 287 285 285 284 284 284 283 281 287 286 285 286 286 286 284 284 284 284 283 283 282 282 281 282
299 299 299 299 299 301 302 303 304 304 303 299 296 291 288 290 296 294 291 288 288 287 285 284 283 282 286 284 284 285 284 284 281 283 283 281 283 287 286 286 287 287 286 285 282 281 281 281 282 282 281 282 282 282
299 299 299 299 300 301 302 303 304 301 299 294 289 288 291 294 291 287 284 283 283 281 283 282 283 282 286 283 284 284 282 281 278 281 280 281 280 284 285 285 285 287 286 284 284 283 283 283 282 281 282 282 282 282
298 299 299 299 300 301 302 303 303 297 294 294 292 291 290 286 283 281 278 279 278 279 281 282 282 284 284 286 284 282 280 279 278 282 279 278 283 283 283 283 283 285 284 283 283 283 282 282 282 281 281 281 281 281
299 299 299 300 300 301 303 303 303 299 296 292 288 285 284 281 277 276 275 277 276 281 281 282 282 283 283 284 281 280 277 278 281 278 278 281 282 283 283 282 281 282 282 283 282 282 282 281 281 281 280 281 281 280
299 299 299 300 301 302 303 303 301 297 293 287 284 279 280 277 277 279 280 281 282 282 282 283 281 282 282 281 280 277 279 280 274 272 276 282 282 283 282 282 281 281 282 281 279 278 278 278 278 279 279 279 278 278
299 299 300 300 301 302 302 302 299 294 289 285 282 278 279 282 279 280 279 279 282 284 282 281 281 281 280 277 279 278 275 272 275 277 282 281 280 282 281 280 281 280 279 278 277 276 274 275 276 277 278 277 277 277
299 299 297 299 301 302 302 298 293 291 286 284 280 277 277 277 277 279 279 280 283 283 282 283 280 278 279 278 275 275 274 274 281 280 281 280 280 280 280 280 280 279 278 278 277 276 275 274 275 275 275 276 276 276
299 294 299 300 301 302 299 291 289 286 285 283 279 280 280 279 281 282 281 281 284 283 281 280 277 279 277 275 274 278 276 283 281 279 280 281 280 280 279 278 278 277 277 276 275 275 275 274 273 274 273 274 274 275
294 296 301 301 301 297 290 289 287 285 283 281 280 280 280 281 281 282 282 282 283 281 279 279 278 276 276 275 277 280 279 277 279 280 280 279 278 278 278 277 277 276 275 273 273 273 273 273 273 273 273 273 274 274
296 297 301 301 297 289 286 285 286 283 280 278 278 279 281 281 283 283 283 282 282 281 280 278 275 276 278 279 281 279 279 280 279 278 277 277 277 276 276 275 274 273 272 273 274 274 274 273 273 273 273 274 273 273
299 300 301 299 296 286 284 282 285 278 276 279 278 278 280 280 281 281 282 281 282 280 277 275 276 279 279 280 280 281 281 281 278 276 275 275 275 274 275 275 275 273 273 272 273 274 273 273 273 272 273 273 272 271
298 298 299 294 287 287 285 279 278 277 275 277 276 279 277 277 277 278 279 280 279 279 277 279 279 280 279 279 280 282 281 280 279 279 276 274 275 275 273 273 272 273 273 272 272 272 272 271 271 272 272 272 272 273
295 295 286 288 283 282 282 282 278 278 276 276 276 276 275 274 275 276 278 277 279 281 280 279 279 279 279 279 278 278 278 276 277 278 279 278 273 273 272 273 272 270 271 271 271 270 270 271 272 273 272 272 272 272
293 290 285 284 280 279 278 281 276 275 273 275 275 272 273 274 275 275 277 280 281 281 279 278 277 276 278 275 275 275 276 277 276 276 276 275 274 273 272 272 271 270 269 270 270 270 270 271 270 271 271 270 270 270
292 286 283 281 280 276 277 274 278 276 276 274 273 272 272 273 273 274 276 278 278 276 276 275 276 275 274 275 275 275 275 276 274 273 274 273 272 271 271 271 271 271 271 270 270 269 269 269 270 269 269 268 269 269
282 280 281 277 277 272 270 272 272 273 271 272 270 269 270 271 272 272 272 278 277 276 277 276 277 279 278 277 275 275 273 275 274 273 272 272 270 269 269 269 269 270 270 269 268 268 268 268 268 268 268 268 269 270
279 280 277 275 271 271 270 268 269 269 269 268 271 270 270 271 269 271 274 279 277 278 277 277 277 276 276 277 276 274 274 273 274 274 271 271 272 271 269 268 268 268 269 269 268 267 267 267 267 267 268 268 269 267
278 276 277 278 275 273 272 272 273 271 267 267 268 267 269 267 269 274 277 277 279 280 281 281 281 280 279 275 275 274 273 273 273 273 272 270 270 270 270 268 267 269 269 268 268 267 267 267 267 268 267 268 267 266
279 276 271 273 270 271 269 270 269 270 272 272 272 266 269 272 275 278 276 274 276 282 282 282 282 282 279 277 273 270 267 267 267 268 268 267 266 266 266 267 267 271 270 268 268 268 269 268 268 268 267 266 265 265
275 274 274 265 265 268 272 272 273 274 276 274 275 273 272 275 271 271 272 273 277 276 276 274 271 272 271 271 270 268 268 270 269 267 268 268 266 267 265 265 265 265 265 265 269 272 269 270 268 267 265 264 264 263
271 273 269 265 270 272 272 270 272 270 272 275 275 271 271 270 269 269 270 273 276 277 278 277 273 274 272 271 267 266 267 270 270 272 270 268 269 267 266 265 266 265 264 264 264 264 270 265 265 262 263 263 264 264
271 269 266 267 270 267 267 269 272 273 272 270 271 271 270 268 269 270 271 273 275 274 273 273 274 275 275 272 272 269 268 267 265 266 266 268 267 267 266 265 265 264 263 263 264 264 263 262 262 262 262 261 261 263
271 267 268 266 266 268 269 270 271 270 267 267 266 265 267 268 271 271 271 272 274 274 276 276 275 274 276 276 274 275 276 269 266 266 268 268 268 267 266 264 263 263 263 263 262 262 261 261 262 261 262 261 261 261
264 264 264 266 266 266 269 270 268 267 265 264 265 266 268 272 274 272 270 272 275 276 276 277 276 274 273 273 272 272 271 269 270 273 275 274 272 269 265 264 264 263 263 263 262 261 260 259 260 259 259 258 260 261

GFSWCAN_sfc_thetae_087.txt.gz
Theta_e
305 302 300 300 302 304 305 306 306 308 308 308 308 308 308 307 303 302 298 299 298 295 292 292 292 294 295 296 294 296 295 296 296 291 289 289 287 289 286 288 287 286 285 285 286 283 280 293 292 288 291 292 294 293
306 302 300 300 301 303 304 305 305 305 307 307 307 308 306 307 304 302 298 299 299 296 292 293 293 293 292 293 296 296 294 295 297 294 292 292 288 289 287 284 290 285 289 287 287 288 292 294 293 294 293 293 293 293
306 302 300 300 301 301 303 305 305 305 305 307 306 307 306 304 303 301 299 298 300 296 293 293 292 293 294 294 295 295 297 296 296 296 296 294 289 292 286 287 288 291 292 289 289 292 292 293 294 293 293 293 293 293
305 302 300 300 300 301 302 303 305 304 304 305 306 305 304 303 301 300 298 297 297 296 293 291 294 292 295 295 294 295 295 296 296 297 296 294 290 292 290 289 288 291 291 290 290 293 292 293 294 294 292 292 291 291
305 302 300 299 300 300 301 302 304 304 304 304 305 303 302 300 300 301 299 297 296 294 290 291 292 293 294 294 294 295 295 296 296 295 294 292 293 291 291 289 288 292 291 288 288 293 293 292 293 294 292 290 290 289
305 302 300 299 300 300 300 302 304 304 304 304 304 303 301 301 299 300 295 297 297 296 293 288 292 290 292 292 292 292 293 294 295 295 294 292 290 290 289 287 293 295 294 295 293 292 291 291 292 292 291 290 289 288
304 302 300 300 300 300 301 303 304 304 304 303 304 303 301 301 301 296 293 297 298 297 292 289 288 290 290 291 292 292 292 292 292 293 290 292 289 290 289 286 293 293 293 292 292 291 289 290 290 291 290 289 288 287
304 302 300 300 300 300 300 303 304 304 305 304 303 301 300 300 299 296 297 297 297 294 292 287 286 287 290 289 289 291 290 291 291 291 288 288 287 288 285 291 291 290 291 290 290 291 288 290 289 289 288 286 284 284
304 302 300 300 300 299 301 303 304 305 305 304 301 299 298 296 295 295 297 298 297 294 289 287 285 284 289 288 289 289 289 286 289 287 287 287 287 283 289 291 289 288 288 289 289 287 286 286 286 285 284 284 282 283
303 301 300 300 300 300 301 302 304 305 303 300 299 294 291 293 296 297 295 292 292 291 289 286 289 285 288 287 287 288 288 287 284 286 287 283 284 290 292 291 292 290 290 288 283 282 284 284 284 284 283 284 283 283
302 301 300 300 300 301 301 303 304 303 300 298 293 291 295 295 294 290 287 287 287 285 287 286 287 286 288 286 287 288 286 286 281 284 282 283 283 287 290 289 289 290 289 288 287 285 285 285 284 283 283 284 284 284
302 301 300 300 300 301 302 303 304 300 298 297 295 294 294 290 287 284 284 283 281 283 284 284 285 287 287 289 287 286 284 282 279 284 281 279 287 286 287 287 287 289 287 285 285 284 284 283 283 283 282 281 281 282
301 300 300 300 300 301 302 303 302 299 297 295 292 288 287 285 280 279 278 281 281 283 284 285 284 286 285 287 285 283 279 280 284 280 279 284 285 286 285 285 285 287 286 284 283 283 283 282 282 281 280 281 281 280
301 300 300 300 301 301 303 304 301 297 296 290 286 281 283 281 281 285 285 286 286 285 285 286 284 284 285 283 284 279 283 281 277 275 278 287 285 285 285 285 283 282 283 282 280 279 279 279 279 280 280 280 279 278
301 300 300 300 301 302 303 303 300 296 292 286 286 281 283 287 285 285 284 284 285 287 285 283 284 284 283 281 281 280 277 275 277 280 286 286 285 284 283 283 283 282 281 280 280 278 275 277 278 278 278 278 278 277
300 300 299 300 301 302 302 300 295 292 287 286 285 282 283 282 284 283 283 283 286 286 286 285 283 280 280 281 278 277 277 277 283 284 286 283 283 284 283 283 283 282 281 279 278 278 277 276 276 276 276 277 276 276
299 295 299 300 301 302 300 292 290 287 286 285 283 286 286 284 287 286 285 285 287 285 283 284 279 280 279 278 277 282 279 285 284 284 284 284 284 283 282 281 280 279 278 278 277 277 276 276 275 275 274 275 275 275
294 296 300 301 301 299 291 290 288 286 284 285 283 285 284 286 285 285 286 285 285 284 283 282 282 278 278 278 281 284 284 283 282 284 283 282 282 281 280 279 278 278 277 276 276 275 274 274 275 275 274 275 275 275
295 297 299 300 298 291 287 286 287 283 284 284 284 283 284 285 286 287 287 286 286 286 283 280 280 279 281 283 283 285 284 282 282 281 280 280 280 279 278 278 277 275 274 275 276 276 275 274 274 274 274 275 274 274
298 299 300 300 297 288 285 284 286 285 281 283 282 283 284 284 285 285 285 284 283 284 281 279 280 283 283 284 284 283 283 284 280 278 277 277 278 277 277 277 277 275 275 274 275 275 275 274 275 274 274 274 273 273
294 298 299 298 288 288 289 284 283 284 282 281 282 282 282 281 281 281 281 284 282 282 281 285 284 285 283 282 282 282 283 282 281 281 279 277 277 278 275 275 275 275 274 274 274 273 273 273 273 274 274 274 273 274
295 297 287 289 284 284 286 285 284 282 280 279 279 281 279 278 279 280 283 280 280 284 285 287 286 286 282 280 281 282 283 282 279 280 281 280 275 275 275 275 274 274 274 274 273 272 273 273 273 274 273 273 274 273
294 291 285 285 282 281 282 284 280 279 276 277 278 277 278 278 281 282 279 281 283 287 287 285 283 281 282 279 278 278 279 280 278 278 279 278 277 277 276 275 275 273 272 272 273 272 272 272 272 272 272 272 272 272
293 287 284 282 284 279 279 276 280 278 278 276 276 275 277 279 277 276 276 282 285 283 281 280 280 278 277 277 278 278 277 279 278 276 277 276 274 273 274 274 273 274 274 273 272 272 271 271 271 271 271 270 270 271
283 282 283 280 281 275 274 274 275 276 274 275 275 276 274 275 275 275 276 281 284 282 283 282 280 281 282 280 279 278 277 279 277 276 275 276 274 272 272 272 272 272 272 271 270 271 271 270 270 270 269 269 270 271
280 282 281 281 276 274 274 272 273 273 274 274 275 275 275 275 273 274 278 283 285 285 283 280 280 280 281 281 278 277 276 277 278 277 274 274 274 274 272 270 269 270 272 272 271 270 270 269 269 268 269 270 271 269
279 279 279 280 278 276 275 276 277 275 273 274 273 271 273 272 272 278 283 284 286 287 287 285 284 283 283 281 280 278 277 278 277 276 275 275 274 275 274 272 271 273 272 271 270 270 269 269 269 269 269 270 269 268
282 279 273 275 275 277 273 274 273 273 275 276 275 271 271 274 277 284 285 279 279 282 285 285 284 285 283 281 277 274 271 270 270 271 270 270 269 270 270 271 271 274 271 271 270 270 269 270 269 269 269 268 268 268
277 277 277 270 271 273 274 274 275 278 279 277 277 278 277 280 281 280 276 276 280 280 278 277 276 277 275 274 274 274 271 272 272 270 271 271 268 268 269 269 269 269 269 270 272 273 270 269 269 269 267 267 267 266
274 279 274 271 271 272 277 278 281 281 279 281 280 278 277 277 274 273 273 276 277 278 279 278 275 276 273 272 270 270 273 275 277 276 274 273 272 272 268 267 268 268 268 268 268 267 272 268 268 265 265 266 266 267
277 275 274 275 274 276 273 273 275 275 274 275 274 276 277 275 274 273 273 275 279 277 276 274 275 277 275 273 272 271 270 271 271 272 273 273 271 270 269 269 269 268 267 267 267 267 267 265 265 264 264 262 261 264
274 275 273 270 271 269 271 273 273 274 273 273 274 272 273 273 273 275 272 274 275 275 278 277 276 275 278 277 277 278 279 273 270 270 272 271 271 270 269 268 267 267 266 266 266 265 263 264 264 264 264 261 261 260
270 270 269 269 268 268 270 271 271 269 270 271 272 271 273 274 273 276 272 276 277 277 278 279 279 279 278 277 276 275 274 273 273 275 276 275 274 271 268 267 267 267 266 266 265 264 262 261 262 260 260 258 259 260

GFSWCAN_sfc_thetae_090.txt.gz
Theta_e
311 308 303 301 301 303 304 306 306 306 307 307 307 308 308 307 305 302 296 298 296 292 290 292 293 290 292 293 290 292 291 292 291 286 284 283 281 283 281 283 281 281 279 279 280 276 274 289 288 283 286 287 289 289
311 309 304 301 301 302 303 305 305 305 306 307 307 307 307 307 305 304 296 299 298 293 289 293 293 292 291 290 288 293 291 292 292 288 287 285 283 283 283 278 285 280 284 282 283 283 288 289 288 289 290 289 288 288
311 309 305 302 301 301 301 303 305 305 305 305 307 306 306 305 304 302 297 296 297 293 289 290 290 292 294 293 293 288 292 293 293 291 289 288 284 286 280 282 282 286 288 284 285 286 287 289 289 289 289 288 289 289
310 309 305 302 301 301 301 302 303 305 305 305 306 305 304 302 303 303 296 295 295 293 288 287 293 291 294 294 293 293 291 294 293 292 289 288 285 288 284 285 283 286 287 285 285 288 287 289 289 290 289 289 289 288
310 309 306 302 301 301 301 301 303 304 304 304 305 305 302 302 302 300 297 295 295 292 287 287 290 291 293 293 293 293 292 292 291 288 285 286 287 286 286 284 283 287 286 284 283 288 287 287 288 290 288 287 288 286
309 308 305 303 301 301 301 301 302 304 304 304 304 305 303 302 302 298 293 295 296 294 289 284 289 288 289 290 290 290 291 290 289 289 288 287 287 284 282 281 288 289 290 290 288 288 287 288 289 289 288 287 286 285
309 308 305 303 301 301 301 301 303 304 304 304 304 305 303 303 298 294 292 294 297 294 289 283 284 287 288 287 289 288 289 288 287 287 285 286 285 283 283 282 288 289 290 288 288 288 285 287 286 287 287 287 287 284
309 307 305 303 301 301 300 301 303 304 305 304 304 301 300 300 298 293 294 297 296 291 289 281 281 283 286 285 284 287 285 286 287 285 284 283 283 282 280 286 288 288 289 287 287 286 286 287 287 286 285 284 281 280
308 307 305 303 301 300 300 301 303 305 305 305 302 299 296 294 291 292 298 299 295 290 283 282 279 278 286 284 285 285 285 282 285 282 282 283 282 279 284 287 287 286 286 286 286 284 284 283 284 283 281 280 278 279
307 306 304 303 301 301 300 301 303 305 303 301 297 292 287 291 297 297 292 289 287 287 285 281 284 279 284 283 283 283 284 282 276 282 282 279 280 287 288 289 289 287 287 285 279 278 279 279 280 281 279 280 280 279
307 305 303 302 301 301 301 302 304 303 300 295 290 287 292 295 291 288 283 282 284 280 284 282 281 280 285 280 282 284 280 280 272 279 277 277 280 283 286 286 287 287 285 284 283 283 282 282 279 279 279 279 279 278
306 304 303 301 301 301 301 303 304 299 296 295 293 293 291 287 284 278 277 280 279 279 280 280 281 283 282 284 282 282 278 277 272 280 276 274 281 281 283 283 285 284 283 281 281 280 280 280 280 279 278 275 275 275
306 304 302 301 301 300 301 303 304 301 297 293 289 284 284 281 273 273 270 274 275 279 280 279 277 282 282 283 281 280 275 275 280 275 274 280 282 283 281 281 282 282 281 280 280 280 280 279 279 278 277 277 277 276
305 303 302 301 301 301 302 303 302 298 295 286 280 274 277 274 277 280 280 280 280 281 280 281 279 280 282 279 280 274 281 279 270 270 275 282 283 282 282 282 280 279 280 279 277 277 277 277 277 277 277 276 275 274
304 302 301 300 301 301 302 303 300 295 291 285 284 279 279 282 280 279 279 279 279 283 281 279 279 281 278 276 279 278 274 270 274 276 281 281 282 281 280 280 280 279 276 275 275 273 271 273 275 275 275 275 274 274
303 301 298 300 301 302 303 300 295 292 287 286 285 282 283 277 277 277 277 278 282 283 280 280 277 274 276 277 272 272 272 273 279 281 283 280 281 280 279 280 280 279 277 277 275 275 273 273 272 271 272 274 273 273
301 294 299 300 301 302 300 293 290 287 286 285 283 286 281 278 279 280 283 282 284 281 277 278 271 273 275 271 271 276 276 282 284 281 280 281 281 280 279 279 278 277 276 276 275 275 273 272 270 269 269 271 271 273
295 296 300 301 301 299 292 289 288 286 283 284 283 283 282 283 281 280 281 283 282 280 279 275 276 270 271 269 273 278 279 281 280 281 281 281 281 279 279 277 277 277 275 273 274 271 270 269 270 271 271 272 271 270
296 297 300 301 299 291 287 286 287 283 283 285 284 283 281 282 283 283 283 283 282 281 278 274 272 272 275 277 278 280 278 280 280 279 278 279 279 277 277 277 275 274 273 272 274 274 274 273 272 271 272 271 271 271
299 299 299 300 298 288 285 285 286 285 281 282 282 282 280 280 281 280 281 281 280 276 273 273 276 279 279 281 280 279 278 281 278 276 276 276 276 275 276 275 275 274 273 271 271 275 272 272 273 272 272 272 270 269
297 295 298 297 289 288 287 284 283 285 282 279 281 282 280 281 278 278 277 280 276 278 275 280 281 283 282 280 280 280 280 281 280 281 278 276 276 276 275 274 273 274 274 273 272 272 273 270 271 271 272 271 271 271
290 295 292 290 285 285 285 285 281 282 277 278 280 281 278 277 278 280 283 280 279 281 281 283 285 284 283 280 278 278 279 281 280 279 282 280 275 274 274 274 274 273 273 273 272 272 271 271 271 272 271 271 272 270
293 290 285 285 282 282 282 283 275 277 275 276 278 276 277 277 279 282 277 279 280 282 285 285 285 279 282 277 275 275 277 278 277 277 278 277 276 276 276 275 275 274 272 272 272 271 270 273 271 272 271 270 269 269
292 285 283 282 283 279 280 277 281 278 277 275 275 274 276 277 277 276 274 275 281 280 282 284 282 276 273 273 274 276 276 278 275 275 276 275 274 274 275 274 274 274 274 273 271 271 270 270 272 270 269 266 266 266
283 282 283 280 281 275 273 273 273 276 273 275 274 275 274 275 272 273 272 275 280 281 282 282 281 281 281 281 279 275 276 279 278 277 275 276 274 272 271 272 272 272 272 270 270 269 268 268 268 267 266 264 265 264
280 281 281 280 274 273 273 271 273 273 274 273 274 274 273 273 270 270 272 276 281 283 282 281 281 279 279 281 277 275 276 280 279 277 275 276 274 273 271 270 269 269 272 272 271 269 268 268 267 265 264 266 270 264
278 279 281 280 278 276 274 275 277 275 273 273 273 271 272 267 268 272 276 277 282 281 282 284 283 282 282 280 277 277 279 279 278 277 276 276 274 275 275 273 271 272 272 271 271 270 268 267 267 266 264 263 263 262
280 278 273 274 273 274 273 273 273 273 274 276 275 270 272 271 273 277 278 272 272 274 275 275 275 276 275 274 276 276 272 271 271 271 271 270 270 271 271 271 272 275 271 270 270 269 268 267 266 264 263 262 261 262
276 278 277 271 271 273 274 274 275 277 279 277 275 272 272 275 276 273 270 270 270 272 271 270 268 270 273 272 273 275 272 273 272 271 271 270 268 268 269 272 273 271 270 272 274 270 267 267 265 264 262 261 260 259
274 277 272 271 272 274 275 277 278 279 278 278 278 274 275 274 269 267 269 269 271 272 272 270 271 271 270 271 270 270 273 276 277 276 275 274 272 271 270 270 269 268 268 268 267 266 276 267 267 260 259 259 259 259
277 274 273 274 274 274 273 272 271 275 270 268 268 271 275 268 269 267 267 269 270 271 271 270 270 273 272 272 272 271 270 273 271 274 276 275 272 270 270 269 269 268 267 267 266 265 265 261 259 257 257 257 256 258
275 276 274 272 271 266 267 267 266 266 265 265 266 264 265 267 268 271 268 271 272 273 276 274 273 274 276 276 276 276 279 274 272 273 273 272 271 271 270 270 268 268 267 266 266 264 262 261 259 258 258 256 255 255
270 268 267 266 262 263 266 266 264 261 262 263 264 266 266 269 271 273 266 272 273 275 275 275 272 273 275 275 276 277 276 274 274 277 277 276 275 272 270 269 268 267 266 265 264 263 261 259 257 257 256 255 254 255

GFSWCAN_sfc_thetae_093.txt.gz
Theta_e
310 311 311 306 302 301 303 304 306 306 306 307 307 308 308 308 307 298 293 293 292 286 286 289 290 287 288 288 286 290 289 290 288 284 282 281 279 281 279 281 280 280 277 277 278 275 273 288 287 283 285 286 289 288
310 310 311 307 303 302 302 303 304 305 305 306 307 307 306 306 306 303 291 295 295 289 288 291 290 291 290 290 288 288 289 289 289 285 284 282 281 280 280 276 283 279 282 280 281 280 286 288 288 288 288 288 288 288
310 310 311 308 304 302 302 302 304 304 305 305 306 306 305 304 304 302 292 292 293 287 286 286 286 290 292 291 292 288 289 290 290 289 286 285 282 283 279 279 280 283 286 283 283 283 286 288 288 289 288 288 288 288
309 309 310 309 305 303 301 301 302 304 305 304 305 306 304 303 303 301 291 291 291 289 283 286 291 288 291 292 291 291 290 291 291 289 286 285 283 286 282 283 282 284 285 283 283 285 286 288 287 288 288 288 287 287
309 309 310 309 305 303 301 301 302 303 304 304 304 305 305 303 302 296 292 292 291 289 282 284 288 289 290 290 291 291 290 289 287 284 280 284 285 284 283 282 280 285 285 283 282 287 286 286 288 289 287 287 287 286
308 308 309 309 306 303 301 301 301 302 304 304 304 304 305 303 303 295 289 293 293 291 282 280 287 285 288 288 288 289 289 288 287 286 285 285 286 283 279 278 285 286 287 288 287 287 286 287 288 288 287 287 286 285
308 308 309 308 306 303 302 301 301 302 303 304 304 304 303 302 294 291 289 292 296 291 284 278 280 285 286 286 286 286 287 285 285 284 284 283 283 281 280 282 287 288 288 287 286 287 284 286 285 287 286 286 287 283
308 308 308 308 306 303 301 301 301 302 304 304 304 303 300 300 297 290 292 296 294 288 284 275 276 280 284 282 282 285 283 283 283 283 283 281 282 281 280 284 288 289 288 285 285 285 286 286 285 285 284 283 281 279
307 307 308 307 305 303 301 301 301 304 305 305 304 301 294 290 287 289 298 297 292 287 278 275 272 274 284 283 283 283 283 280 283 281 281 282 280 278 284 284 286 286 286 285 283 283 284 284 284 282 281 280 278 278
307 307 308 307 305 303 302 301 302 305 304 303 294 289 284 288 297 295 290 286 283 281 280 276 278 277 281 280 280 280 282 279 272 280 282 279 279 285 286 287 288 287 286 284 278 278 279 278 280 280 279 279 278 278
306 307 307 306 304 302 302 301 303 303 300 291 287 284 289 295 289 284 278 278 280 277 280 278 278 277 282 277 280 282 276 276 269 276 276 276 278 282 284 284 287 286 285 283 282 281 281 281 279 278 279 279 278 278
306 306 306 305 303 302 302 302 304 298 292 293 291 291 288 284 279 274 270 277 276 276 278 277 279 281 281 282 279 280 276 277 271 277 274 274 280 282 281 282 282 283 282 281 281 280 280 280 279 278 277 276 275 275
306 306 306 305 303 302 302 303 304 301 296 291 286 281 280 278 271 270 269 270 269 276 276 277 275 280 280 282 279 275 271 274 278 269 272 277 283 283 282 281 280 280 280 280 279 280 279 278 278 277 276 276 276 275
306 306 306 304 303 302 302 303 304 298 291 283 278 274 275 270 274 275 275 274 277 277 278 278 276 278 280 277 278 270 277 276 266 266 271 276 283 283 282 282 280 278 279 278 276 277 278 278 277 277 277 276 275 274
305 306 305 303 302 301 302 303 301 296 288 282 282 276 276 279 273 274 274 276 276 280 280 278 276 278 275 274 277 274 270 266 270 270 276 279 281 282 281 281 279 279 277 275 274 274 273 274 275 275 275 275 274 274
305 305 302 302 301 301 302 301 296 293 286 285 284 281 283 277 271 271 270 272 278 280 277 279 274 271 273 273 270 269 266 267 272 276 279 278 280 281 281 281 280 279 278 277 275 275 274 274 274 273 273 274 273 273
305 298 302 301 300 301 301 293 291 287 286 285 283 285 282 278 275 276 278 279 281 279 274 275 270 273 273 267 269 273 270 274 278 277 277 279 281 281 280 280 280 279 277 276 276 275 273 274 272 272 271 271 271 273
299 299 301 300 299 299 293 290 288 286 283 285 283 283 285 283 279 279 280 281 280 278 278 273 274 269 270 268 270 275 277 274 275 276 277 280 280 281 280 279 278 278 276 275 275 272 272 272 273 273 272 272 271 271
300 299 300 300 298 292 286 286 287 283 283 282 284 282 283 283 283 280 280 283 280 280 278 271 269 269 273 274 275 275 273 275 277 277 277 278 279 277 278 277 277 275 274 273 274 274 275 274 274 273 273 273 272 272
300 300 299 299 297 287 284 284 287 284 281 282 280 281 281 281 282 280 279 281 279 274 273 271 274 276 277 278 279 278 278 279 277 275 276 275 275 274 275 276 276 275 273 272 273 276 273 273 273 273 273 273 272 271
298 298 298 297 286 286 286 283 283 285 278 277 279 281 279 279 279 277 276 278 272 273 274 277 278 282 281 281 280 281 279 279 278 278 278 273 274 275 274 274 273 274 273 273 273 274 276 273 273 273 273 272 272 272
290 297 292 288 285 284 284 285 283 282 281 280 280 279 278 277 278 279 280 274 277 282 281 277 282 283 282 281 283 278 280 279 279 278 282 280 273 273 274 275 274 273 273 274 274 274 273 273 273 273 272 272 273 271
294 288 285 285 282 283 282 284 278 277 275 275 278 276 276 275 278 282 278 280 280 282 284 283 285 280 282 281 276 275 277 279 278 278 278 278 275 275 275 274 276 274 273 273 274 273 272 274 274 272 272 271 271 270
291 285 283 282 282 280 280 278 280 277 276 275 275 271 271 274 279 277 275 275 279 280 280 283 282 275 273 273 277 281 278 278 277 273 275 275 272 273 274 274 274 275 275 274 273 272 272 272 273 271 270 269 269 268
282 281 283 280 281 275 273 274 274 274 271 273 271 269 273 275 272 272 273 272 277 281 283 280 281 282 281 282 282 282 277 278 277 277 274 276 272 271 270 271 272 273 274 272 271 271 270 270 270 269 269 268 267 266
279 281 280 281 275 273 272 270 271 271 272 270 272 272 272 273 271 271 270 276 280 283 281 279 280 279 279 282 282 276 277 277 277 276 273 276 276 275 274 271 269 270 273 274 272 270 270 270 269 268 268 268 272 267
278 278 281 281 278 275 273 274 276 273 270 270 271 270 273 272 271 274 277 279 280 278 280 283 283 281 282 280 280 275 276 278 275 275 277 277 275 275 276 274 272 274 273 273 272 271 270 269 268 268 268 267 267 266
281 278 275 275 274 274 271 271 270 271 272 273 274 268 272 275 276 279 280 278 270 270 271 270 273 277 275 273 273 273 269 268 269 271 271 269 268 269 273 274 275 277 273 273 272 272 271 270 269 268 267 266 265 263
276 277 277 271 273 272 271 270 272 274 277 277 276 274 276 278 279 279 274 270 268 274 274 272 270 267 269 268 267 265 271 271 270 267 268 269 268 269 271 274 275 273 272 274 276 272 269 269 268 268 266 265 263 261
274 278 273 271 272 270 272 274 273 274 276 280 280 277 275 274 272 267 270 272 273 275 275 273 271 271 269 271 267 264 266 272 275 273 275 273 274 272 271 273 271 271 273 273 272 272 276 273 272 265 263 262 262 262
277 275 273 272 270 268 269 271 274 276 274 274 273 274 273 269 271 268 271 272 272 269 270 266 267 268 269 269 269 268 269 271 269 270 274 274 271 272 272 272 271 271 271 271 271 271 271 266 264 263 262 262 260 261
274 271 272 269 267 268 271 273 273 273 272 272 269 263 266 268 271 273 270 269 270 271 276 274 273 273 274 272 272 269 278 272 273 274 274 272 272 272 272 271 270 270 269 269 269 269 266 265 264 263 262 261 259 257
267 266 267 268 269 269 270 272 272 270 267 264 266 267 267 271 272 276 266 272 273 277 277 277 275 270 273 274 273 274 276 272 275 278 278 277 275 273 271 270 270 269 268 268 267 267 265 263 263 261 261 260 258 256

GFSWCAN_sfc_thetae_096.txt.gz
Theta_e
311 311 311 311 308 304 303 303 304 305 305 306 307 308 307 307 307 296 292 292 291 285 286 289 290 287 288 288 286 289 288 288 287 283 282 280 278 280 278 279 278 279 276 276 277 275 272 287 286 281 283 285 288 287
310 311 310 310 309 305 303 302 303 304 305 305 306 307 306 305 306 300 290 293 294 289 288 290 290 289 289 290 289 287 288 288 288 284 283 282 281 279 278 276 281 279 281 278 280 279 285 287 286 287 287 287 287 287
310 310 310 310 310 307 304 302 302 303 304 305 305 306 306 304 304 300 291 290 292 287 287 286 287 289 291 290 290 287 288 290 289 289 286 284 282 282 279 278 278 282 284 282 282 282 284 287 287 288 288 287 287 287
309 309 310 309 310 308 305 303 302 302 303 305 305 305 306 304 303 299 290 290 290 288 282 285 290 287 291 291 290 290 289 290 289 287 285 284 283 285 281 283 281 283 284 283 281 284 285 286 287 288 288 288 287 287
309 309 309 309 309 308 305 303 302 302 303 304 304 304 305 304 303 295 291 290 290 288 282 283 287 288 289 289 289 289 289 287 286 283 279 282 284 283 282 281 279 284 285 282 283 286 285 285 286 288 287 286 287 285
309 308 309 309 309 308 305 303 302 302 302 303 304 304 305 305 302 293 288 292 292 291 282 279 286 284 286 287 287 286 288 287 285 284 283 284 285 283 280 279 284 285 287 290 287 286 287 286 287 287 287 286 286 285
308 308 308 308 309 308 306 303 302 302 302 303 304 304 304 302 293 290 288 291 295 290 283 277 277 285 285 284 285 285 286 284 284 283 282 282 283 282 279 282 286 287 288 287 286 286 283 285 285 287 286 285 287 283
308 308 308 308 309 308 306 304 302 302 302 303 304 304 302 300 296 289 291 296 293 287 282 273 275 279 284 282 281 283 282 282 282 282 282 280 281 280 279 284 286 287 287 286 285 285 286 286 284 283 283 283 280 279
307 308 308 308 308 307 305 303 302 302 302 305 305 302 293 289 286 288 298 296 290 286 277 274 271 272 283 282 282 282 282 280 282 280 280 281 280 277 282 284 284 285 285 285 283 284 284 284 283 282 281 279 278 278
307 307 307 307 308 307 305 303 302 302 305 302 294 289 284 287 296 295 288 284 282 280 279 276 276 276 280 279 279 279 281 278 271 279 281 279 278 283 284 284 284 286 286 283 279 279 279 279 281 280 279 278 278 279
307 307 307 307 307 306 304 303 302 304 299 292 287 284 288 295 288 283 279 277 280 278 279 277 277 277 282 277 279 281 275 275 268 275 276 274 275 281 284 282 283 283 285 284 284 283 282 282 280 278 278 279 278 278
306 306 306 306 306 305 303 303 304 297 293 293 290 290 288 284 279 275 272 276 277 276 278 278 279 280 280 282 279 279 275 277 271 276 273 271 276 281 281 281 281 281 283 283 282 281 281 281 279 279 278 277 277 277
306 306 306 306 306 305 303 303 304 301 296 292 287 281 280 279 272 272 271 270 268 276 276 277 275 279 280 281 278 275 271 273 276 268 272 274 278 282 281 280 279 279 281 280 280 280 279 278 279 278 276 277 276 276
306 306 306 306 306 304 303 303 303 298 292 286 282 275 276 272 276 278 276 276 278 277 278 277 276 277 279 276 277 269 277 275 268 269 269 273 278 280 280 281 279 277 279 279 278 278 278 278 277 277 277 276 275 274
306 306 306 305 305 303 302 303 301 296 289 285 281 276 275 280 279 278 275 276 277 281 279 277 276 277 274 274 277 273 271 270 269 270 273 275 279 278 279 279 279 277 276 276 275 275 275 276 276 275 275 275 275 275
306 305 304 305 304 302 301 302 297 293 287 285 283 280 281 276 278 277 273 273 277 280 278 278 273 271 272 272 270 269 266 267 272 272 276 276 278 278 278 280 279 278 277 276 276 275 275 275 275 274 273 274 274 274
305 302 305 305 303 301 301 294 291 289 286 284 282 284 281 279 282 280 278 279 281 280 276 275 270 272 274 267 271 272 269 274 275 276 276 279 279 278 279 279 279 278 277 276 275 275 274 273 271 272 272 273 273 274
302 304 304 304 301 298 295 290 287 285 283 285 283 284 285 284 281 281 280 281 281 279 278 273 274 270 271 269 270 274 276 273 275 277 278 279 279 279 280 278 279 278 276 274 274 274 273 272 272 273 273 273 272 271
304 303 303 301 298 287 285 284 286 283 284 284 282 282 284 284 284 283 282 283 280 281 278 273 272 273 273 274 273 272 271 275 278 278 277 278 279 279 279 277 275 273 272 272 274 274 274 273 273 274 274 273 272 273
304 303 301 300 297 285 283 284 287 285 281 282 280 282 282 282 283 283 281 281 280 277 273 272 277 279 276 276 278 278 277 279 277 276 276 276 276 273 275 275 276 274 272 269 271 276 273 272 274 273 273 273 271 272
302 300 299 297 286 285 285 283 283 285 281 280 279 282 281 280 280 279 279 282 276 273 274 280 281 282 280 279 279 280 280 279 278 279 279 274 276 275 273 273 272 273 273 273 272 273 275 273 274 274 273 273 272 272
294 299 292 287 284 283 284 285 284 283 277 275 281 279 278 278 278 279 280 278 275 281 281 285 285 284 282 279 281 278 282 279 279 278 282 281 274 271 272 274 273 273 273 273 273 273 274 274 274 273 273 273 274 272
297 289 285 285 283 282 281 284 279 277 274 278 280 276 276 276 277 281 278 277 279 282 286 287 286 281 281 280 276 277 278 279 279 279 279 279 277 275 273 274 275 274 273 272 274 273 273 275 276 273 272 273 271 271
291 285 283 282 282 279 281 279 279 277 276 276 276 274 273 275 280 278 276 275 278 280 284 285 285 283 274 273 278 283 283 279 280 277 278 276 275 274 275 275 274 275 275 274 273 272 271 273 275 274 271 270 270 269
282 280 282 279 281 276 275 274 274 274 272 273 272 272 273 276 275 274 273 271 275 280 283 283 283 282 282 282 282 283 280 279 279 279 279 277 273 269 268 269 271 272 273 272 271 270 271 272 272 271 270 269 269 268
278 280 280 280 275 274 272 271 272 271 272 270 271 273 273 273 270 271 272 274 280 282 283 283 282 280 280 282 282 279 280 278 277 277 276 276 276 276 273 271 269 270 272 274 272 271 270 271 270 270 269 270 273 269
278 278 281 282 277 275 272 273 275 274 274 272 271 270 271 271 271 273 275 277 281 283 285 284 283 282 281 280 281 276 274 277 275 274 272 275 277 277 276 274 272 275 273 274 273 273 272 270 270 270 269 269 268 268
282 278 277 276 274 271 271 273 272 272 273 274 276 272 272 273 274 279 280 280 280 275 272 272 276 280 276 275 274 273 268 267 267 268 270 269 267 266 271 274 271 278 274 274 274 274 272 271 271 270 269 268 267 267
275 277 276 270 272 273 274 272 273 277 279 277 277 273 275 277 280 280 277 270 267 277 275 274 270 267 268 267 266 265 270 272 271 268 269 270 265 268 266 270 273 273 273 275 278 274 272 271 271 270 269 268 267 264
273 277 271 271 270 271 273 276 276 277 277 280 281 277 276 273 275 273 272 272 275 277 277 273 273 275 272 272 268 264 265 272 276 274 272 272 270 270 272 272 270 271 274 274 274 274 278 274 273 267 264 264 263 263
276 273 270 269 269 268 269 270 274 277 275 276 274 277 274 268 270 266 270 273 275 272 271 268 266 266 270 270 270 269 271 271 270 268 266 270 272 273 273 271 271 273 274 273 273 273 272 268 266 264 264 264 264 264
274 273 273 271 268 268 270 272 274 274 272 273 269 263 265 267 270 271 271 272 271 272 277 276 273 273 273 271 271 269 278 271 273 271 272 270 272 273 272 272 273 273 272 272 272 272 268 267 265 265 264 263 263 262
268 270 270 270 269 269 271 275 273 270 267 265 266 265 266 270 273 275 269 276 279 279 278 278 279 270 272 273 273 273 275 268 272 278 279 278 276 275 272 272 272 272 272 271 270 269 267 266 265 264 263 263 262 261

GFSWCAN_sfc_thetae_099.txt.gz
Theta_e
311 311 311 311 311 311 307 304 303 304 305 305 306 307 307 306 306 295 291 291 291 285 285 288 290 287 287 287 286 288 287 287 286 283 282 280 278 279 277 279 279 278 276 276 276 274 273 286 285 281 284 284 287 287
311 311 311 311 310 311 309 305 303 303 304 305 305 305 307 305 306 298 289 292 293 289 288 289 290 290 289 289 288 287 287 286 288 284 282 281 281 278 277 276 279 278 281 278 280 279 284 286 285 286 286 287 287 286
311 311 311 311 311 310 310 307 304 303 303 304 305 305 306 305 304 299 290 289 291 287 287 286 286 288 290 290 291 287 287 289 288 287 285 283 282 282 278 277 277 281 282 281 282 283 283 286 287 288 287 287 287 287
310 310 310 310 310 310 310 307 305 303 303 304 305 304 305 305 303 298 289 289 290 287 281 285 289 286 289 290 289 289 289 289 288 286 284 283 282 284 281 282 280 283 283 281 281 283 284 286 286 287 287 287 286 286
310 310 310 310 309 309 309 308 306 303 302 303 304 304 304 305 304 294 290 289 289 287 281 283 286 287 288 289 289 288 288 286 285 283 279 282 283 283 281 280 281 284 285 282 283 286 285 285 286 287 286 286 286 285
310 310 310 309 309 309 309 308 306 304 302 302 303 304 303 304 301 293 288 291 291 290 281 278 284 283 285 286 286 286 287 286 285 284 282 283 284 283 280 277 284 285 286 290 289 286 285 286 286 285 287 286 286 284
309 309 309 309 309 309 309 307 306 304 302 302 303 304 304 302 293 289 288 291 294 289 282 277 277 284 284 284 284 284 284 283 283 282 281 281 282 282 279 282 286 287 287 287 286 285 284 284 286 286 285 286 287 282
309 309 309 309 308 308 309 307 306 304 303 302 303 304 304 300 295 289 291 297 292 286 281 271 274 278 284 281 281 282 281 281 281 281 282 281 281 282 280 283 284 285 285 285 285 285 286 285 285 284 283 281 279 278
308 308 309 308 308 308 308 307 305 304 303 302 303 303 293 289 286 288 297 295 289 286 277 274 271 273 282 281 282 281 281 279 282 279 279 281 279 277 283 283 284 284 283 284 283 283 282 283 282 281 281 279 278 277
307 307 308 308 308 308 308 307 305 303 303 304 295 289 285 287 295 295 288 284 282 281 280 276 277 276 280 279 279 279 280 278 271 279 280 278 278 283 284 285 283 283 282 282 277 278 279 279 281 280 280 279 278 278
307 307 307 307 307 307 307 306 303 304 300 293 289 286 288 295 288 283 279 278 280 278 280 277 278 278 282 278 279 281 275 275 271 275 275 273 275 280 282 282 282 281 281 282 283 283 284 283 281 280 279 279 279 278
306 306 307 307 307 307 307 305 304 298 294 294 291 291 289 285 280 276 273 277 277 277 278 277 278 280 280 281 280 279 275 276 273 276 273 272 276 280 280 281 281 279 280 281 281 281 281 282 281 280 279 278 277 277
306 306 307 307 307 307 306 304 304 300 297 293 288 283 283 282 274 271 272 275 274 277 277 277 276 279 279 281 278 275 272 273 276 267 272 274 277 280 280 279 279 278 278 279 279 279 280 279 279 278 277 277 276 275
305 306 306 307 307 306 306 303 303 298 293 286 283 278 276 273 274 276 279 280 280 277 278 277 277 278 279 276 277 271 277 274 270 270 269 273 277 280 279 280 279 277 278 278 274 275 277 278 277 278 277 277 276 274
305 306 306 306 306 306 304 303 301 297 289 284 282 277 276 279 275 276 280 280 280 281 279 278 276 277 274 273 276 273 271 271 271 271 274 275 278 279 278 279 278 277 274 274 273 272 272 275 275 275 275 275 275 275
306 305 305 306 306 306 303 302 299 293 287 285 282 278 279 274 273 277 279 280 281 282 280 280 275 272 273 273 270 271 268 268 274 274 277 276 279 278 278 279 279 278 277 276 274 273 273 274 274 273 273 274 274 275
305 302 305 305 305 305 302 294 289 285 285 284 282 285 279 276 279 281 281 282 283 283 280 277 272 274 275 271 272 273 271 275 276 276 276 279 280 279 278 279 280 279 277 276 274 274 271 270 269 269 269 271 273 274
302 303 304 305 305 301 292 286 285 284 282 285 282 283 284 282 281 281 282 282 283 281 280 277 275 270 272 274 274 276 276 274 275 276 279 280 279 279 279 279 279 278 277 274 273 271 270 269 270 271 271 272 271 271
303 304 304 305 301 288 285 283 284 282 284 285 285 281 283 283 284 285 283 284 282 282 279 272 270 271 276 279 279 274 273 276 279 279 279 279 279 279 279 277 276 275 274 273 273 274 274 273 273 272 273 272 272 273
304 305 304 303 298 286 283 283 285 284 281 283 282 283 281 281 283 284 283 283 282 281 274 272 275 280 280 281 281 280 278 279 278 277 278 277 277 275 276 276 276 275 273 269 270 276 271 271 272 272 273 273 271 272
303 303 303 299 288 286 285 283 283 285 281 280 280 284 281 278 281 283 282 283 281 278 276 278 283 286 283 283 282 282 280 280 280 282 280 277 277 277 276 275 271 273 272 273 273 274 277 273 273 272 273 273 272 272
297 300 291 289 284 283 284 285 284 282 279 278 282 282 278 278 279 282 283 280 281 284 282 285 286 287 286 283 284 281 282 281 280 279 284 282 277 272 273 275 272 273 274 274 274 274 275 274 272 272 272 272 275 272
295 289 285 285 282 281 281 285 280 279 277 278 280 278 277 277 276 281 278 279 283 280 287 287 287 287 287 286 280 280 281 281 281 280 281 281 281 278 276 275 275 275 274 274 275 274 274 276 277 272 272 273 272 272
291 285 283 282 282 279 281 279 278 276 277 278 277 275 274 276 279 277 276 275 279 281 286 286 287 286 286 276 281 284 284 279 282 283 282 279 279 279 278 278 275 276 277 274 274 273 272 274 276 273 271 270 270 270
282 280 282 279 281 277 275 273 272 274 272 270 272 270 273 278 275 274 275 271 274 280 284 285 286 286 285 286 286 285 283 283 282 281 282 280 280 270 270 271 272 275 274 271 271 271 271 271 272 270 269 269 268 268
279 281 279 280 276 273 271 268 269 269 269 270 272 271 272 273 272 271 271 276 277 281 283 284 285 284 284 285 284 280 282 282 282 280 280 279 279 278 276 273 270 271 273 275 272 271 271 271 270 269 269 272 274 269
278 278 281 281 278 275 272 272 273 271 269 270 270 270 272 272 270 273 274 276 280 285 287 287 286 284 284 283 284 283 277 280 279 277 273 276 277 279 279 276 274 275 273 274 274 272 271 271 270 270 270 270 271 270
282 281 277 276 271 270 269 269 268 271 272 274 275 268 270 272 274 277 278 280 283 279 280 276 279 282 281 279 277 275 269 268 267 268 269 268 266 264 267 268 270 279 273 274 274 274 273 272 271 270 270 269 268 268
277 278 276 273 268 269 271 271 272 275 277 276 275 274 274 275 277 280 279 277 275 275 273 274 271 269 269 269 268 267 271 273 274 271 270 271 266 268 264 268 272 270 272 275 279 275 272 272 271 271 270 269 268 266
275 279 274 270 269 271 272 274 271 273 276 278 279 276 276 274 275 275 275 275 277 278 281 278 277 276 275 276 272 265 266 271 274 275 274 273 272 268 270 270 270 271 273 273 273 274 279 276 275 270 267 265 264 264
277 275 269 269 269 265 266 268 273 277 274 274 275 278 276 274 276 274 276 277 277 273 274 269 265 268 274 271 271 272 272 272 270 269 265 265 268 270 271 270 271 273 274 273 273 275 274 271 267 266 265 265 264 265
273 275 270 268 267 265 266 267 270 272 271 274 274 270 271 273 276 278 275 274 273 273 278 275 273 274 275 277 273 269 279 272 273 272 269 268 269 271 271 271 273 273 273 273 274 273 269 268 267 266 265 265 265 263
272 272 271 270 270 270 268 268 267 268 269 269 269 271 273 275 276 278 273 278 281 283 279 278 280 278 274 275 273 271 275 266 271 277 278 277 276 274 272 273 273 273 273 273 272 270 268 267 266 265 265 264 264 263

GFSWCAN_sfc_thetae_102.txt.gz
Theta_e
313 313 312 312 312 311 311 309 305 304 304 305 306 306 307 306 306 295 291 290 290 285 285 288 289 286 286 286 285 287 286 286 285 282 282 280 278 278 276 278 276 278 275 275 275 274 272 285 284 281 283 283 286 286
313 313 312 311 311 311 310 310 307 305 303 304 305 305 306 306 305 297 289 291 292 288 288 289 290 289 289 289 288 286 286 285 287 283 282 281 281 276 276 276 277 277 280 277 279 279 284 285 286 286 285 286 286 286
312 312 312 312 311 311 311 310 308 305 304 304 304 305 305 306 304 297 290 289 290 286 287 286 286 287 289 289 291 287 286 288 287 286 284 282 281 281 278 276 276 280 282 280 281 282 283 284 285 286 287 286 286 287
311 311 311 311 311 311 311 310 309 307 304 303 304 305 305 305 305 297 290 288 289 286 281 284 289 285 288 289 289 289 289 288 287 286 283 282 282 284 280 282 279 283 282 280 279 284 283 286 285 286 287 287 287 286
310 310 311 311 311 310 310 310 309 307 305 303 303 304 304 304 305 294 290 289 289 287 281 282 285 286 287 288 288 287 288 286 284 282 279 282 282 282 281 279 278 283 283 280 282 286 284 286 285 286 285 286 286 286
310 310 310 310 310 310 309 309 309 308 306 304 303 304 304 304 302 292 287 290 291 289 282 279 284 282 284 285 285 284 286 285 284 283 281 282 283 283 280 277 283 284 286 288 287 284 285 286 286 287 286 286 286 285
309 309 309 309 310 310 309 309 309 308 306 304 303 303 304 304 294 289 288 291 293 289 282 277 278 283 284 284 283 283 283 283 283 282 281 280 281 281 280 282 287 285 286 286 286 283 283 284 285 286 286 286 288 283
308 308 309 309 309 309 309 308 308 307 306 304 303 303 304 302 296 290 291 297 292 285 282 272 275 278 284 281 281 282 281 281 281 281 281 283 283 282 281 285 284 285 285 284 284 284 285 284 284 283 282 282 280 280
307 307 307 308 308 308 309 308 308 307 305 303 303 303 296 291 286 288 298 295 289 286 278 276 272 273 282 281 281 281 281 279 281 279 280 281 281 279 283 283 284 284 283 283 283 282 282 282 283 282 281 280 279 278
305 306 306 306 307 307 308 308 308 306 304 303 298 292 288 289 296 296 288 284 282 281 280 277 277 275 280 279 279 278 280 278 270 279 280 280 280 284 285 285 283 283 283 281 276 278 279 278 281 280 280 279 279 278
304 305 306 306 306 307 307 308 307 304 303 294 289 287 290 295 289 285 281 279 280 278 281 279 278 277 281 277 279 281 276 277 271 275 275 273 274 279 282 282 283 281 280 280 281 282 282 282 280 280 279 279 278 278
304 304 305 306 306 306 307 307 305 300 296 294 292 292 290 286 283 281 279 277 278 278 279 279 278 280 279 281 280 279 275 276 274 276 274 274 277 280 280 280 280 280 279 281 281 282 282 282 281 280 278 276 276 276
303 303 303 304 306 307 307 307 304 300 297 294 288 285 284 283 274 274 272 273 277 280 279 280 279 280 279 281 278 276 272 274 276 272 273 275 278 280 280 279 279 279 279 280 280 280 279 278 279 278 277 277 276 275
303 303 304 304 305 306 307 307 303 299 294 287 284 278 279 273 275 277 277 278 280 280 280 281 279 279 280 278 277 271 277 275 271 271 272 277 279 281 280 280 280 279 279 279 274 275 277 278 277 277 277 275 274 274
303 303 304 304 305 305 306 306 301 297 290 284 284 279 279 279 273 274 274 276 278 283 280 280 280 280 276 274 277 274 272 271 272 272 276 279 280 279 279 279 279 279 276 275 272 271 271 273 275 275 275 274 274 274
302 303 301 304 305 305 305 305 299 293 287 284 283 280 278 272 270 272 272 276 282 283 281 281 278 277 276 275 271 271 273 273 276 275 279 278 280 280 279 279 279 279 277 276 274 274 273 273 273 272 271 273 273 273
302 298 303 304 305 305 305 298 286 284 283 283 282 284 278 273 275 279 280 281 284 282 280 279 274 276 275 269 270 275 275 280 277 277 278 279 281 281 280 279 280 279 278 277 275 275 274 272 269 268 269 269 269 272
297 299 303 304 304 303 292 287 285 284 281 284 282 283 283 280 278 278 281 283 283 281 281 279 278 272 271 270 273 279 280 280 275 276 278 279 281 281 280 280 280 279 278 276 275 274 272 270 271 273 271 270 268 268
298 299 303 304 303 289 285 283 284 281 283 285 282 280 282 280 281 283 283 285 283 283 280 274 276 271 274 277 281 282 281 280 280 279 279 280 281 280 280 279 277 276 275 273 274 275 275 274 275 274 272 271 271 271
301 302 302 303 298 287 283 283 285 284 282 283 283 282 279 279 282 283 283 284 283 281 280 273 275 277 279 281 283 283 283 282 280 278 279 280 281 279 279 279 279 278 275 270 272 277 273 272 273 273 272 272 270 271
299 299 301 301 290 286 285 282 281 284 278 280 284 284 282 280 281 282 282 284 282 281 278 283 278 282 283 283 284 284 283 282 282 283 282 281 280 280 281 279 277 275 275 274 274 275 279 275 276 274 273 274 273 271
297 300 290 290 285 284 284 285 282 283 280 279 283 282 275 277 279 282 284 281 282 285 286 287 288 287 287 285 284 283 284 282 282 282 286 282 279 275 276 279 275 276 276 277 276 277 276 277 274 273 273 273 275 271
294 290 285 285 282 281 281 285 281 279 277 279 280 279 274 272 277 284 280 281 284 288 288 288 287 286 287 288 286 284 284 283 284 283 283 283 283 282 280 279 278 278 277 277 277 277 276 277 277 274 273 274 272 270
292 285 283 282 282 279 281 279 279 277 278 278 278 273 271 270 279 278 277 278 285 283 286 287 287 287 287 286 286 288 288 284 285 286 285 283 282 282 281 282 278 279 280 275 276 275 273 275 277 275 272 271 271 271
283 281 282 279 281 278 276 271 270 273 271 275 276 268 272 275 274 274 270 271 278 282 285 286 287 287 287 288 289 289 287 288 283 282 285 282 282 276 273 275 276 277 275 273 271 272 272 273 275 273 271 270 269 268
279 281 279 277 273 273 274 270 268 267 267 270 274 272 271 275 273 271 271 274 281 282 285 285 286 286 286 288 287 287 283 285 285 283 285 283 282 282 281 278 275 275 274 277 274 272 271 272 273 271 270 272 275 269
278 277 278 282 276 274 271 271 272 270 268 272 271 271 273 272 270 273 274 276 282 285 287 288 288 287 287 288 287 287 279 283 283 280 277 280 282 282 282 277 277 276 274 275 275 273 272 272 272 271 270 270 272 270
276 276 277 276 270 268 267 267 267 269 271 271 273 270 272 272 274 276 278 278 280 277 277 279 282 286 287 284 276 275 269 269 268 268 272 272 269 266 268 269 270 280 273 274 274 273 273 273 272 271 270 270 269 269
275 277 276 273 268 267 270 272 271 273 276 275 274 271 272 273 273 274 276 275 276 278 274 278 276 274 271 269 268 270 271 274 276 276 275 275 269 273 267 269 270 271 270 274 279 275 272 273 272 271 270 270 269 268
277 279 275 272 274 270 273 274 270 269 274 277 279 275 275 273 275 276 276 276 277 278 280 281 278 277 276 276 272 269 269 276 281 279 277 276 275 269 269 270 270 269 271 273 273 273 279 275 276 270 267 267 267 267
278 274 269 269 270 267 265 265 268 276 269 268 270 274 277 273 275 274 277 280 281 277 276 274 274 277 278 276 277 277 276 275 273 271 268 269 269 269 270 270 270 271 272 273 274 274 274 270 267 267 267 267 267 266
271 274 270 265 265 263 263 264 265 267 266 269 271 269 271 272 274 276 274 277 276 277 281 282 278 276 278 282 282 276 283 280 277 273 271 269 269 269 269 271 271 272 272 273 275 273 269 268 268 268 268 267 266 264
270 268 266 270 269 267 267 270 266 266 265 266 271 272 274 274 275 278 273 280 284 285 285 283 283 279 279 280 280 279 276 271 274 278 278 278 276 273 271 272 272 272 273 273 272 269 268 268 268 267 267 266 265 264

GFSWCAN_sfc_thetae_105.txt.gz
Theta_e
313 313 313 313 312 312 312 311 310 307 305 304 305 306 306 306 305 294 291 290 289 284 285 288 289 287 285 285 284 286 285 285 284 282 281 280 278 277 275 277 277 277 275 275 276 274 272 285 285 281 284 283 286 287
313 313 313 313 312 312 311 311 310 308 306 304 304 305 305 306 305 297 289 291 291 288 287 288 290 289 290 290 288 285 285 284 286 283 281 281 281 276 276 275 277 277 279 277 279 279 284 285 286 286 286 287 287 287
312 312 313 312 312 312 311 311 311 309 307 305 304 304 305 305 305 297 289 288 289 285 285 285 286 288 289 289 291 287 285 287 286 286 283 282 281 281 278 276 276 280 280 279 281 282 283 284 285 286 286 287 287 288
311 311 312 312 312 312 311 311 311 310 308 306 305 304 305 305 305 298 289 288 288 285 280 284 288 284 287 289 288 289 288 287 286 285 283 282 281 284 280 281 279 283 281 280 279 283 284 285 284 286 286 286 286 287
310 311 311 311 311 311 311 311 310 310 309 307 305 304 305 304 304 295 290 289 289 286 281 282 285 285 286 288 288 287 287 286 284 282 279 282 282 281 280 279 278 282 283 280 282 285 284 284 286 286 286 287 287 286
309 310 310 310 310 310 310 310 310 309 309 307 305 303 304 304 301 294 288 289 290 289 282 279 284 282 283 285 286 285 285 284 283 283 281 281 282 282 280 277 283 284 285 288 287 285 285 285 285 286 286 288 287 286
309 309 309 309 309 309 310 310 310 309 309 307 305 303 304 304 296 291 289 291 293 289 283 278 280 283 284 283 282 282 283 282 283 282 281 280 281 281 280 280 286 285 286 286 285 282 283 284 284 285 285 285 288 284
307 307 307 308 308 309 309 309 309 309 309 307 304 303 304 304 298 291 293 297 292 286 283 275 278 278 283 281 280 282 281 280 281 281 282 281 281 282 279 284 285 284 284 284 285 284 285 284 282 283 283 283 282 281
306 306 306 307 307 308 308 308 309 308 308 306 303 303 297 293 288 288 297 295 289 286 280 278 276 275 282 281 281 281 281 279 281 279 280 281 281 279 282 283 284 285 285 285 283 282 281 281 282 282 282 281 281 280
305 305 305 305 306 306 306 307 308 308 307 303 298 293 289 290 297 296 288 284 282 283 281 278 281 277 281 279 280 279 280 278 271 279 281 280 280 285 285 285 285 285 284 283 278 279 279 278 281 281 281 281 281 279
304 304 304 304 304 305 306 307 307 307 302 295 291 288 290 297 289 286 284 282 280 278 281 280 281 280 283 278 280 281 277 277 271 276 277 275 277 279 282 283 286 284 282 281 281 282 281 282 280 281 281 281 280 279
303 303 303 304 304 305 305 306 307 301 296 296 293 292 290 286 283 281 280 280 278 277 279 278 279 282 281 284 282 280 276 276 274 276 276 274 280 280 281 282 282 280 279 280 281 281 281 282 282 281 280 278 278 276
302 303 303 303 303 304 304 305 306 302 298 294 289 284 284 283 277 276 272 272 273 278 278 278 276 280 280 283 281 278 274 275 276 273 274 277 279 280 281 281 280 279 279 280 281 280 281 280 281 280 278 278 277 275
302 302 302 303 303 304 304 304 305 300 295 286 283 279 280 277 276 276 276 276 278 278 279 279 277 278 280 279 279 273 277 275 271 272 273 278 279 282 281 280 279 279 279 280 278 277 278 279 279 279 279 277 276 275
301 301 302 302 302 303 303 304 304 299 290 284 283 279 278 280 273 272 272 275 278 281 281 279 276 278 275 274 277 274 273 270 271 275 279 279 281 281 281 279 279 279 276 275 274 273 274 275 276 277 276 276 275 274
301 300 298 301 302 303 303 303 300 295 287 284 283 282 280 274 270 273 271 277 282 283 282 282 278 275 274 274 271 270 269 269 277 279 282 278 280 280 280 281 280 279 279 278 276 275 274 274 275 274 274 274 274 274
299 294 299 301 301 302 302 298 290 286 285 282 281 284 278 273 277 277 279 281 284 283 280 280 276 274 274 267 268 272 272 280 283 282 280 281 281 280 280 281 281 280 279 278 276 276 273 273 271 271 271 272 272 273
293 295 299 301 301 299 296 292 287 284 280 281 282 285 284 281 278 278 280 283 283 282 281 279 278 275 270 269 270 275 279 282 281 281 281 281 280 281 281 281 281 280 280 278 276 275 272 272 272 274 274 273 271 270
294 295 299 300 299 292 285 284 285 280 281 279 280 277 282 281 280 281 282 284 284 284 282 278 278 274 277 275 276 279 281 282 284 283 281 281 280 280 280 280 280 280 280 279 277 277 277 275 276 275 274 273 273 272
299 299 299 300 299 287 284 284 284 283 280 282 283 280 279 280 280 281 283 284 283 282 279 277 276 283 276 279 281 284 283 284 281 279 281 282 281 280 281 282 281 282 280 277 277 280 274 274 274 274 274 274 273 272
296 295 298 297 290 289 285 283 280 283 278 282 285 282 278 277 276 279 280 284 282 281 280 282 285 288 285 284 284 284 284 283 283 284 284 281 282 282 282 282 281 279 279 279 278 278 281 276 278 275 274 276 275 274
291 297 287 291 287 285 283 285 284 284 281 281 283 282 279 279 280 282 284 282 281 284 284 287 289 289 288 285 285 284 285 284 285 284 288 286 280 277 278 282 280 280 280 281 280 280 279 280 277 275 274 275 277 273
295 294 286 287 283 282 279 285 281 280 278 280 282 281 278 273 274 284 280 282 284 287 288 289 289 287 288 290 286 287 286 285 285 285 284 285 285 284 285 285 283 284 283 281 281 281 281 280 280 275 274 275 274 272
294 285 283 281 281 280 281 279 281 276 279 278 279 276 272 269 279 279 278 276 284 283 287 288 288 287 288 288 287 288 290 289 287 287 288 286 285 284 285 285 283 283 284 282 280 280 278 277 278 277 273 273 273 272
282 281 282 278 282 279 277 273 271 272 269 276 276 274 270 275 275 275 270 273 281 285 286 287 287 287 287 288 289 289 288 289 288 285 286 286 286 285 278 279 281 281 281 279 276 276 275 276 276 275 272 272 272 271
278 281 278 276 275 274 272 268 270 267 268 269 273 271 273 274 273 273 272 279 283 283 284 285 286 286 286 288 287 288 289 287 287 286 287 286 285 285 284 283 280 280 277 280 279 276 275 274 274 273 272 274 277 270
277 277 278 281 278 274 271 270 271 268 265 268 269 272 274 273 271 274 274 274 280 285 285 287 287 287 287 288 287 289 282 285 286 284 279 282 284 284 284 282 282 280 276 277 278 276 274 273 273 273 272 271 273 271
280 279 278 278 271 268 267 267 267 267 269 270 272 266 271 273 275 277 278 280 280 277 279 284 283 284 287 283 280 279 274 272 271 272 273 272 269 268 270 271 272 281 275 276 276 275 275 274 273 272 270 270 271 270
277 277 278 274 272 271 268 269 270 272 275 273 273 270 272 276 274 275 279 279 278 276 274 275 278 270 268 271 273 274 274 276 276 275 277 279 271 275 270 271 271 275 272 275 280 275 272 272 272 271 270 271 270 269
276 277 274 272 275 274 273 273 269 268 272 275 276 273 273 273 274 274 273 273 276 278 281 280 275 275 277 277 276 271 270 275 281 282 280 280 279 274 272 272 274 272 272 273 273 273 280 274 276 270 268 268 268 268
274 271 265 269 270 270 267 264 265 275 269 266 266 271 279 272 274 274 276 278 283 280 276 273 274 277 278 277 278 277 278 277 276 279 276 275 274 273 272 273 272 272 273 273 273 273 274 268 266 265 266 266 268 268
273 277 269 267 267 262 260 264 264 266 262 265 269 263 266 268 271 282 276 278 279 279 282 283 281 281 280 283 283 283 285 280 278 277 277 275 275 273 272 272 273 273 272 273 273 272 269 268 266 266 266 266 268 266
273 272 267 266 267 268 266 265 264 263 261 261 266 270 272 277 279 281 271 279 285 286 286 286 285 284 282 282 282 283 281 278 281 281 281 280 278 274 272 272 272 272 272 272 271 269 267 266 266 266 266 267 266 265

GFSWCAN_sfc_thetae_108.txt.gz
Theta_e
313 314 313 314 313 313 312 312 312 311 309 305 305 305 306 306 305 300 297 296 296 293 293 292 294 293 292 293 290 292 292 291 291 288 287 287 285 286 283 285 284 285 283 282 283 280 278 291 290 286 291 291 292 294
313 313 313 313 313 313 313 312 312 311 310 307 305 304 306 306 306 299 297 295 296 294 294 293 295 295 295 296 295 293 292 291 295 291 289 289 286 285 285 282 285 282 287 286 286 286 292 292 295 294 293 292 293 293
312 313 313 312 312 313 313 313 312 311 310 309 306 305 305 305 305 300 296 295 295 292 293 292 292 293 293 294 296 293 293 294 293 294 294 292 287 290 285 284 286 287 288 285 285 291 290 292 293 293 293 292 294 294
311 311 312 312 312 312 312 312 312 311 311 310 308 306 305 305 304 301 296 293 294 291 288 291 292 291 292 293 294 294 294 293 293 294 292 291 288 292 288 289 287 291 287 288 287 290 291 292 293 294 293 292 292 293
310 310 311 311 311 311 310 311 311 311 310 310 309 306 304 305 304 300 296 294 294 291 288 289 290 290 290 291 292 292 293 293 293 291 289 287 291 289 289 286 286 290 288 286 286 292 292 293 293 293 292 292 293 292
309 309 310 310 310 310 310 310 310 310 310 309 308 306 304 305 302 297 292 293 293 293 289 286 289 288 289 290 290 290 291 291 291 290 290 291 289 290 287 285 291 292 294 294 292 295 293 294 293 293 291 291 291 291
308 308 309 309 309 309 308 308 309 310 310 309 308 306 304 304 300 293 291 295 295 293 288 285 285 286 288 288 288 288 288 289 290 289 286 288 288 289 286 284 292 292 292 293 294 292 290 290 291 291 290 290 290 290
307 307 307 307 307 308 308 308 308 309 309 309 308 305 304 304 300 296 297 298 295 290 288 283 283 282 287 285 284 287 286 287 287 287 286 285 285 287 282 289 291 291 291 291 291 291 292 291 288 288 289 288 288 288
305 306 306 306 306 307 307 307 307 307 308 309 306 304 299 296 292 292 298 297 293 290 285 283 281 283 286 284 286 285 286 282 286 284 284 285 284 281 286 288 289 290 289 290 289 289 288 287 287 286 286 287 286 287
304 305 305 305 305 305 305 306 306 306 307 305 299 294 289 292 298 296 291 288 287 288 286 282 285 281 285 284 284 284 284 283 280 283 285 281 282 287 289 290 291 290 291 290 285 285 285 284 286 286 286 287 287 288
303 304 304 304 304 304 305 305 306 305 301 296 292 290 291 298 291 288 285 283 285 282 285 283 284 282 285 283 284 285 282 282 277 281 281 280 280 285 288 289 291 291 289 289 289 289 287 286 285 286 286 286 285 285
303 303 303 303 304 304 304 305 305 300 297 296 293 293 291 288 286 283 281 283 281 281 284 282 282 285 284 286 285 282 281 280 276 281 278 276 283 287 286 286 286 288 288 287 285 285 286 286 286 286 286 285 284 284
302 302 302 303 303 303 304 304 304 303 298 295 289 285 285 285 279 278 275 277 278 283 282 282 281 284 283 285 284 282 278 277 280 276 276 280 286 285 285 286 285 286 285 285 285 285 285 285 285 285 285 284 284 282
301 301 302 302 302 303 303 303 303 301 295 287 284 280 281 280 280 282 281 283 284 283 282 284 282 283 284 282 282 278 281 279 274 273 276 285 286 287 286 286 285 284 284 284 283 283 283 283 283 284 283 283 281 280
300 301 301 301 301 302 302 303 302 300 291 285 284 279 281 285 282 281 282 282 282 285 284 283 282 283 281 280 280 278 275 273 275 278 284 288 286 285 286 284 285 285 284 283 283 281 280 281 281 282 282 281 281 280
300 299 298 300 300 301 302 301 299 296 288 286 284 282 284 282 280 279 279 281 284 285 285 285 281 278 279 279 275 275 275 274 281 282 287 286 285 284 285 285 285 285 284 283 282 282 281 280 280 281 280 280 279 279
299 294 298 299 300 301 300 296 291 287 285 283 282 286 286 281 285 283 283 283 286 285 283 282 278 279 277 276 274 278 277 283 286 288 287 286 286 286 285 284 284 284 283 283 283 282 281 280 278 278 278 278 278 278
293 294 299 299 299 297 295 291 287 285 283 284 282 286 286 289 288 285 283 284 285 284 284 281 281 277 277 276 277 280 282 284 285 285 285 285 285 285 283 284 284 283 283 284 283 282 280 278 277 279 279 279 277 276
295 295 297 298 297 291 286 286 286 283 283 282 284 287 287 288 286 287 285 285 287 287 285 282 281 278 280 282 284 285 284 284 285 286 287 287 286 285 284 283 284 283 283 283 282 281 281 280 281 281 279 278 277 277
298 298 298 298 297 287 285 284 285 283 283 285 283 283 285 286 286 284 284 284 284 284 281 279 281 285 284 288 287 288 289 290 288 286 286 288 285 284 284 284 284 285 284 284 283 284 280 279 279 279 279 278 277 277
295 295 297 296 289 287 285 285 282 282 283 283 284 286 284 281 281 280 282 285 283 281 281 285 286 289 291 292 292 286 287 286 286 287 288 290 288 285 285 285 285 284 283 283 282 282 284 281 284 280 279 280 279 279
291 296 289 291 285 285 284 287 283 284 282 282 283 284 282 281 282 283 283 281 282 285 287 288 289 290 289 289 291 291 289 289 287 287 290 290 287 285 283 286 284 283 283 284 284 283 283 283 283 280 279 279 281 278
294 292 286 285 282 282 280 286 282 281 280 278 283 281 280 278 282 285 280 283 285 289 289 289 289 290 290 291 291 290 290 289 288 288 288 288 289 288 288 287 285 286 286 286 285 285 284 286 284 281 279 279 278 277
294 285 283 282 282 279 280 280 283 280 280 280 279 276 276 278 281 281 280 280 285 288 288 288 288 288 289 288 288 289 290 291 290 289 289 289 288 288 287 286 287 288 287 288 289 286 285 284 283 282 277 278 276 276
281 280 281 279 282 279 276 274 275 276 276 276 277 277 274 277 277 276 275 278 285 286 287 288 288 288 286 288 289 289 291 290 289 288 290 290 289 289 288 288 287 287 286 285 284 284 284 281 280 280 277 277 276 276
276 278 278 279 279 274 274 270 270 270 270 273 277 275 275 275 274 274 276 284 286 287 287 286 286 286 286 288 287 288 289 289 290 288 290 291 289 287 286 286 286 285 282 284 284 282 280 279 279 278 277 277 279 276
275 273 279 281 278 275 273 272 273 272 271 272 272 272 274 273 273 277 278 279 284 287 287 288 287 287 287 288 289 289 287 288 288 289 287 287 289 289 288 286 286 286 282 282 282 282 280 278 278 278 277 276 277 275
278 277 277 278 272 272 271 269 270 269 270 273 274 272 272 275 277 280 280 281 282 280 280 283 286 287 288 288 288 285 284 282 278 279 281 281 279 281 281 283 281 284 281 280 281 281 280 278 278 277 275 274 275 274
276 280 278 273 267 268 271 270 271 274 276 275 274 273 273 276 278 277 280 278 275 277 278 281 282 278 277 278 278 280 279 279 281 280 279 283 284 283 278 278 279 280 278 280 281 279 278 277 277 276 274 274 273 272
276 277 271 267 271 272 276 275 272 271 274 277 277 275 275 276 277 275 275 275 277 281 284 285 284 279 282 282 283 279 275 279 283 285 284 283 284 283 277 276 277 277 277 279 277 278 280 278 277 273 271 270 270 270
274 273 267 269 273 276 270 267 271 276 274 274 269 274 280 277 277 275 277 280 283 284 277 281 283 281 282 281 281 282 281 279 278 281 285 282 280 277 275 277 277 277 277 276 276 277 276 272 270 269 269 269 270 270
275 274 274 269 271 262 262 268 269 271 269 269 272 269 268 268 271 284 279 277 280 281 284 284 284 286 286 284 286 286 288 283 281 280 281 281 279 277 276 275 276 276 276 276 276 274 270 269 269 269 268 269 268 268
273 266 262 264 268 269 267 265 266 265 265 264 266 270 276 278 278 284 277 281 286 286 286 287 287 287 286 284 284 285 286 284 283 283 283 283 281 277 275 275 275 275 275 275 273 270 269 268 267 267 268 267 267 267

GFSWCAN_sfc_thetae_111.txt.gz
Theta_e
314 314 314 314 314 314 313 313 312 312 311 309 305 305 306 306 305 302 301 300 298 296 297 296 297 295 295 295 291 295 294 294 294 289 289 289 287 288 285 288 286 286 285 283 284 282 279 294 292 287 292 295 294 295
313 314 314 313 313 313 313 313 313 312 311 310 307 305 305 306 306 302 300 298 298 295 297 297 298 299 299 299 297 297 295 294 296 293 293 292 288 289 287 283 291 284 289 287 288 288 295 295 295 297 296 294 295 295
312 313 313 313 313 313 313 312 312 312 311 311 309 307 305 305 305 302 300 298 297 294 295 294 294 298 297 297 300 293 296 297 296 298 296 293 288 292 286 287 289 291 293 287 288 292 293 295 296 296 296 295 296 296
310 311 311 311 312 312 312 311 311 312 312 311 311 309 306 305 305 303 301 299 297 294 289 293 295 293 296 295 296 298 297 296 297 297 294 292 289 294 289 291 290 292 291 289 289 292 294 295 296 297 297 296 295 296
308 309 310 310 310 311 311 310 310 311 311 311 311 310 307 305 305 304 302 299 298 293 289 290 294 292 292 293 293 294 295 295 294 292 291 289 293 292 292 291 288 293 291 288 287 294 294 295 296 295 294 294 296 295
308 309 309 309 310 310 310 310 309 309 310 310 309 309 307 305 304 300 294 297 297 296 290 287 292 289 291 291 292 292 293 293 294 292 291 293 294 292 288 286 293 295 296 296 293 297 295 296 295 296 294 295 295 293
306 307 308 308 309 309 308 308 308 308 309 309 309 308 306 305 302 295 292 296 296 295 289 287 289 288 290 290 290 290 291 291 291 290 289 290 290 290 288 285 293 295 296 296 297 296 294 295 293 295 295 294 293 292
305 306 306 307 307 307 307 307 308 308 308 308 309 308 305 304 302 297 301 298 296 292 288 284 287 286 290 287 286 290 288 289 290 289 288 286 288 288 284 289 292 294 294 294 295 295 294 295 292 292 292 291 289 288
305 305 305 306 306 306 306 306 306 307 307 307 308 304 300 297 294 297 299 299 295 291 286 285 285 287 288 287 288 287 289 283 289 284 285 287 285 281 286 289 291 293 292 292 293 293 293 291 291 291 290 288 287 288
304 304 304 305 305 305 305 305 305 306 306 305 300 294 289 293 299 297 293 289 287 289 287 284 290 286 288 286 286 287 286 284 281 285 287 282 282 288 290 291 293 293 293 293 287 286 288 288 288 288 288 289 289 289
303 303 304 304 304 304 304 304 305 305 303 298 293 290 291 298 293 291 287 285 286 283 287 286 288 287 289 286 286 288 285 285 278 283 281 281 282 287 291 291 292 293 294 293 293 292 291 290 288 288 288 288 288 288
303 303 303 303 303 303 303 303 304 302 300 297 294 293 292 288 285 284 283 285 283 282 288 286 286 288 288 289 287 285 283 282 278 284 279 277 286 289 290 290 290 291 294 292 292 290 289 288 288 287 287 287 287 286
302 302 302 303 302 302 303 303 303 302 299 296 290 286 286 286 280 280 279 280 281 286 286 285 283 287 286 287 287 284 280 278 283 279 278 283 290 290 290 289 288 289 291 290 288 288 288 288 288 287 286 287 287 286
302 302 302 302 302 302 302 302 302 300 298 288 285 281 282 283 282 285 285 287 288 287 285 286 285 285 286 283 285 280 283 281 277 276 279 289 292 291 290 289 288 287 287 287 285 286 286 286 286 286 286 287 285 284
301 301 301 301 301 301 302 302 302 300 294 286 285 281 283 288 288 288 289 286 285 288 286 284 284 284 283 282 282 281 277 276 278 281 288 292 291 288 288 288 288 288 287 286 286 284 283 284 285 285 285 285 284 283
300 300 298 300 300 301 301 301 299 297 289 286 285 283 286 285 287 284 285 286 287 287 288 287 283 281 281 282 278 277 278 277 284 285 289 291 289 289 288 288 288 288 288 287 286 285 285 284 283 284 284 283 282 282
299 295 298 299 300 300 301 297 294 287 285 284 283 289 288 288 288 291 288 288 289 286 284 285 280 279 281 278 277 282 279 285 289 289 290 291 289 289 289 287 287 286 286 287 286 285 284 284 283 282 281 282 281 280
295 298 298 299 299 298 295 293 287 285 282 285 283 286 289 290 288 289 291 289 287 286 287 284 286 280 279 278 281 286 287 288 288 288 289 289 289 289 287 287 286 286 285 285 285 285 283 282 281 282 282 282 280 279
297 298 299 299 297 292 286 285 286 282 284 286 286 287 288 289 291 292 292 290 290 291 288 284 283 282 283 287 287 288 289 291 290 291 288 290 290 289 288 287 286 285 285 285 285 285 285 284 284 283 282 281 280 280
299 298 298 298 297 287 284 284 286 284 281 284 287 286 286 286 288 289 290 289 287 285 283 282 283 286 287 290 291 291 292 293 293 290 290 292 293 290 287 287 287 287 286 286 285 287 284 283 282 282 281 281 280 281
296 296 297 296 290 287 285 285 283 283 286 284 287 287 285 288 286 286 286 288 284 282 283 287 288 290 292 293 293 293 293 293 292 291 290 290 292 293 289 287 287 287 286 285 285 285 286 284 285 283 281 283 282 283
293 296 292 292 285 285 284 286 285 287 283 284 284 286 284 284 285 285 286 283 282 285 287 288 289 291 290 291 292 292 293 293 292 292 293 292 288 289 289 290 289 287 287 286 286 286 286 286 285 284 283 283 284 281
294 292 287 285 283 283 282 287 281 283 279 281 284 282 282 283 285 286 281 283 286 289 289 289 290 291 290 292 292 292 292 292 291 291 291 291 291 291 291 290 290 289 287 288 288 287 288 291 290 286 283 283 281 281
293 285 283 282 281 279 283 280 283 282 282 279 279 277 279 282 285 282 281 284 287 289 289 289 289 289 290 289 289 290 291 292 291 291 292 291 290 290 291 291 291 290 289 289 289 288 286 286 288 286 283 281 280 279
282 280 282 279 283 279 277 278 279 279 276 278 278 278 280 280 279 279 279 283 286 287 289 289 289 289 287 288 290 290 292 291 290 289 291 291 291 291 290 290 291 291 289 287 286 286 287 287 286 285 282 280 279 278
277 280 279 279 279 278 277 275 276 276 278 277 278 282 280 278 276 276 281 285 287 288 289 289 288 288 288 289 288 289 290 292 291 289 290 291 291 289 288 288 287 289 287 287 287 286 286 285 283 282 282 280 282 279
276 277 281 284 282 280 278 278 278 279 274 274 278 275 275 273 275 280 285 286 287 289 290 291 291 289 289 289 290 290 291 291 289 290 290 289 290 291 290 288 287 288 286 285 285 285 284 283 281 281 281 279 279 280
280 280 276 279 278 280 277 277 274 273 276 278 277 273 273 275 279 286 286 288 287 287 286 287 288 289 289 289 290 289 288 288 286 284 285 285 285 285 287 288 288 286 286 285 284 284 283 283 281 280 279 279 278 279
279 282 281 275 277 275 276 276 278 279 280 278 279 278 278 282 287 287 287 286 285 283 284 285 287 285 285 285 285 285 286 286 283 282 282 284 286 287 285 284 284 284 283 283 284 282 281 281 280 280 279 278 277 276
278 282 279 276 273 274 279 279 280 283 281 282 282 281 281 282 285 286 285 284 282 284 286 287 288 286 286 286 286 286 283 284 285 285 285 285 287 287 283 280 281 281 281 281 279 279 282 280 279 276 274 273 273 272
281 280 277 278 277 280 282 279 276 277 277 278 279 279 282 285 286 286 285 286 286 287 286 286 286 286 285 284 285 285 284 284 283 284 287 288 285 283 280 280 280 280 280 279 278 279 278 275 274 272 271 271 271 272
276 276 276 274 277 278 270 273 276 275 276 273 278 274 277 277 279 284 288 284 284 284 286 287 285 286 288 288 288 287 288 288 283 282 283 284 285 283 279 279 279 279 279 278 278 277 274 273 271 271 270 270 270 269
277 275 273 275 272 273 272 271 272 272 271 273 274 279 280 279 278 284 286 287 287 287 287 287 288 288 288 287 286 287 288 287 287 286 285 286 285 281 278 278 278 278 278 277 275 273 272 271 270 269 269 268 267 268

GFSWCAN_sfc_thetae_114.txt.gz
Theta_e
314 314 314 314 314 313 313 313 313 313 312 311 308 306 306 306 306 302 298 298 295 293 294 295 295 292 292 292 287 292 291 291 290 285 284 284 282 283 281 283 283 281 278 278 281 277 275 290 288 283 287 288 290 291
313 313 313 313 313 313 313 313 312 312 312 311 310 307 305 306 306 304 297 297 297 292 293 296 296 296 295 294 292 293 291 291 292 287 287 286 283 284 282 278 285 280 286 282 284 283 290 292 290 292 292 290 290 289
311 312 312 313 312 312 312 312 312 311 311 312 311 310 307 305 305 302 298 297 295 292 292 292 293 296 297 296 297 290 292 294 293 293 290 288 284 286 282 283 285 287 289 284 285 286 289 292 293 293 293 292 292 291
309 310 310 310 311 311 311 312 311 311 311 312 312 311 309 305 305 304 298 297 295 292 286 289 294 291 294 294 294 295 294 295 294 293 290 288 285 289 285 287 287 288 288 286 286 289 290 292 293 294 293 292 291 292
307 308 308 309 310 310 310 311 310 310 310 310 311 311 309 306 305 304 301 300 297 291 286 287 292 290 291 292 291 292 292 291 290 287 286 285 288 288 289 288 287 290 289 286 286 290 289 289 290 291 290 290 292 291
306 307 308 308 309 309 309 309 309 308 308 308 309 309 309 306 304 299 291 296 297 294 287 285 289 286 288 289 290 290 290 290 290 288 287 288 290 287 283 282 288 291 293 294 291 293 291 291 291 291 291 291 292 291
305 306 306 307 308 308 308 307 307 308 308 308 308 309 309 306 301 295 293 295 297 295 288 284 285 286 287 287 288 287 288 288 287 289 287 286 287 287 283 282 290 291 292 293 294 292 290 290 289 291 290 291 292 289
305 304 305 306 306 306 306 306 306 307 307 308 308 308 308 306 302 297 299 299 296 291 288 283 283 283 287 284 283 288 286 287 287 286 287 285 286 286 282 287 290 291 292 292 293 291 292 290 289 288 289 289 287 286
304 303 305 304 305 305 305 305 305 305 306 306 307 304 301 297 293 295 300 299 294 290 285 284 282 282 285 284 285 284 287 282 286 284 284 284 282 280 284 286 288 289 289 289 288 289 289 289 288 288 287 287 285 284
304 304 304 304 304 304 304 304 304 305 305 304 300 294 290 293 299 297 292 288 287 287 286 283 285 281 284 282 282 282 284 282 280 282 283 282 281 286 288 289 289 290 290 289 282 282 283 283 285 286 286 286 286 286
303 303 303 303 303 304 303 303 304 305 303 298 293 290 292 298 293 290 286 284 285 283 285 283 282 284 286 283 284 286 283 281 277 281 280 280 279 284 288 287 288 289 289 290 289 288 288 286 285 285 284 285 285 285
303 303 303 303 303 303 303 303 303 301 298 296 294 294 292 288 286 283 283 284 283 282 284 284 284 283 285 285 284 283 279 281 276 281 278 275 280 285 286 287 286 286 286 287 289 288 287 287 286 284 284 282 283 282
302 302 302 302 302 302 302 302 303 301 299 296 291 285 285 285 279 279 278 279 280 282 282 281 278 283 282 283 283 282 277 278 279 277 274 277 283 286 287 285 284 285 286 287 286 286 286 285 285 285 283 284 285 284
302 302 302 302 302 302 302 302 302 300 295 288 285 282 280 280 281 281 280 280 283 283 282 282 280 281 283 282 283 279 282 279 273 272 273 280 286 287 286 285 284 284 284 284 281 281 283 284 284 284 284 284 283 283
301 301 301 301 301 301 301 302 301 298 291 285 284 278 280 283 282 281 283 281 280 285 285 281 281 281 279 280 282 281 277 274 275 273 281 286 287 287 287 286 285 285 285 283 281 281 282 281 282 283 283 283 283 282
301 300 298 301 301 301 301 300 296 294 288 286 284 282 285 283 282 279 278 279 282 283 282 281 283 280 280 280 279 272 274 272 276 280 285 287 285 286 286 286 286 286 285 285 284 284 283 281 282 282 282 283 282 282
299 294 298 300 300 300 300 293 289 286 285 284 282 285 284 280 280 281 283 283 287 282 277 282 278 277 280 276 274 278 275 279 283 287 283 284 285 288 289 286 285 285 285 285 285 284 283 281 280 279 280 281 281 281
294 296 299 299 299 296 293 290 286 284 282 282 280 282 284 285 283 284 285 285 283 281 282 279 280 277 275 271 278 281 281 285 286 287 289 289 286 287 286 286 286 285 285 286 286 285 282 279 279 281 282 281 279 278
295 296 298 299 297 290 285 285 285 280 280 280 283 284 283 284 285 287 286 287 287 287 286 283 281 278 279 283 283 285 286 287 287 288 290 291 287 285 285 284 284 284 283 284 283 283 283 283 283 283 282 281 281 280
299 298 298 299 297 286 283 283 286 280 274 280 281 283 283 283 284 283 285 285 283 280 282 280 280 283 283 285 286 287 288 289 288 287 288 290 291 290 286 285 286 286 283 281 282 286 281 280 282 283 282 282 280 281
296 296 297 296 291 287 285 284 282 282 278 277 279 281 279 279 282 282 283 286 283 282 281 283 284 286 288 289 289 289 289 289 288 289 289 288 291 291 290 290 289 284 284 285 282 282 286 283 285 284 283 283 283 284
293 297 292 292 285 284 283 285 282 282 281 279 277 279 276 279 280 282 285 283 283 284 285 285 286 287 287 287 288 289 290 290 290 290 292 291 289 289 289 289 288 287 286 286 286 287 287 286 285 285 283 283 285 283
294 293 285 285 283 282 281 285 281 282 278 276 275 273 273 278 281 281 280 280 282 286 287 287 287 288 287 288 289 289 289 289 289 289 289 289 290 290 289 289 289 287 287 288 287 288 287 289 287 285 283 284 283 283
291 284 282 281 280 277 282 279 277 274 273 271 269 269 270 276 276 278 275 280 283 286 286 285 286 286 287 287 286 287 289 289 289 289 289 288 287 288 289 289 290 289 288 288 287 288 286 284 287 285 284 285 284 283
281 280 281 278 281 279 277 273 270 272 269 271 270 270 270 273 269 271 274 279 282 283 284 285 286 286 285 286 287 288 290 289 288 287 288 289 288 288 287 287 288 289 286 285 284 283 284 282 282 284 284 285 283 282
276 279 278 277 274 273 273 269 270 271 272 269 271 271 271 274 274 274 277 279 281 283 285 285 285 286 286 288 288 288 289 289 285 284 288 289 288 288 287 286 286 287 287 288 288 285 284 284 283 284 285 284 286 282
275 274 276 281 279 277 274 274 275 271 269 270 269 271 272 270 270 276 277 281 284 286 288 287 287 288 288 289 290 289 290 285 286 287 283 284 287 288 288 287 286 289 286 286 286 285 285 284 283 283 282 282 281 282
276 275 272 274 272 274 272 270 267 267 270 273 273 267 268 271 275 280 281 284 285 284 283 286 287 288 288 289 290 286 284 281 277 275 280 284 286 287 287 288 288 289 289 285 286 285 283 282 282 282 281 280 279 279
275 277 277 270 272 270 272 271 273 275 277 275 275 275 276 281 283 284 285 286 277 274 275 281 285 287 285 283 283 284 284 278 277 278 277 280 284 286 286 286 286 283 282 281 287 283 282 281 280 279 279 278 277 276
274 279 274 271 269 270 274 275 274 280 281 281 282 281 281 282 285 287 281 282 282 284 286 286 286 279 284 285 285 285 282 282 283 283 281 282 284 285 282 280 280 280 280 280 279 279 284 279 280 275 274 274 273 272
277 278 274 276 275 278 280 281 275 278 273 271 274 278 280 282 285 286 286 286 286 286 285 285 285 286 285 285 284 283 283 283 282 283 284 285 285 282 281 279 278 279 280 279 278 278 278 274 273 272 272 270 271 271
274 276 275 273 275 278 266 266 270 272 277 270 276 273 267 269 276 281 282 282 284 283 285 286 284 284 286 286 286 287 288 287 284 281 280 282 283 283 279 278 278 278 279 278 278 277 275 273 272 271 270 270 270 269
268 269 271 275 275 266 266 266 264 265 264 273 276 277 278 277 276 281 277 284 286 285 285 286 286 286 285 284 285 286 288 287 287 289 288 286 286 284 279 277 278 279 278 278 277 275 273 271 270 269 269 269 268 267

GFSWCAN_sfc_thetae_117.txt.gz
Theta_e
315 314 314 314 314 313 313 313 312 312 312 312 310 307 306 307 306 299 295 295 293 288 290 294 293 291 290 289 285 288 288 290 287 283 282 282 279 282 280 281 281 280 277 278 280 278 274 288 287 283 287 286 289 288
314 314 313 313 313 313 313 312 312 312 311 312 311 309 307 305 306 304 294 296 295 289 289 295 295 295 295 294 291 290 289 290 290 286 285 284 282 282 282 279 283 280 284 282 283 282 288 290 289 291 289 288 289 288
311 311 312 312 312 312 312 312 312 311 310 311 312 312 309 306 305 302 295 294 293 288 288 289 290 293 295 294 296 289 289 292 291 293 289 287 283 284 281 282 283 287 287 284 284 287 289 292 292 291 291 290 291 291
309 309 310 310 310 310 311 311 311 311 310 310 311 312 311 308 305 303 294 294 292 289 282 286 292 289 291 292 292 293 292 293 293 290 287 285 283 287 283 285 284 288 286 284 285 289 290 291 291 292 292 291 291 291
306 307 307 308 309 309 309 309 310 310 309 309 309 310 310 309 306 303 297 297 295 289 284 285 290 288 289 289 289 290 290 289 287 285 281 284 286 286 286 285 285 289 288 285 285 291 290 291 289 290 289 290 290 289
306 306 306 306 307 308 308 309 309 308 307 307 307 308 309 309 305 298 289 293 295 292 285 283 289 286 288 288 288 288 288 288 287 285 283 286 289 286 280 279 286 289 290 293 290 293 291 290 290 290 290 290 291 290
305 305 305 305 307 307 307 307 306 307 307 307 308 308 308 308 301 295 292 294 297 294 288 285 283 285 286 286 286 286 287 286 285 285 284 283 285 286 283 280 288 288 289 289 290 290 289 290 290 290 290 290 292 290
305 305 304 305 305 306 305 305 305 305 305 307 307 307 307 307 302 297 299 299 296 291 288 282 283 282 284 283 282 286 286 287 286 285 286 285 285 285 281 286 288 288 288 289 290 290 291 290 289 288 289 288 287 286
305 304 303 305 304 305 304 304 304 304 305 306 306 304 300 297 294 294 300 298 294 291 285 283 281 283 283 282 282 283 286 281 285 284 284 284 282 280 284 284 285 287 286 288 289 288 288 287 287 287 287 286 285 285
304 304 303 304 303 304 304 303 303 304 305 304 298 294 289 293 299 298 292 288 287 287 286 282 281 280 282 280 282 281 283 281 279 282 283 282 281 286 288 288 289 289 289 288 284 285 283 283 285 286 286 286 285 285
303 303 303 303 303 303 303 303 303 305 303 294 291 290 291 298 291 289 285 284 285 282 284 284 283 283 286 283 283 285 280 281 276 278 279 280 279 282 286 286 288 287 287 286 286 287 287 287 285 285 285 284 284 284
302 303 303 303 303 302 303 302 303 298 295 295 294 293 292 288 286 284 283 283 281 279 281 282 283 283 283 286 284 283 279 281 276 282 279 275 278 282 283 285 286 284 284 284 286 285 286 286 286 285 284 282 282 282
302 302 302 302 302 301 302 302 302 301 298 295 287 286 285 284 280 279 272 277 278 281 281 281 279 283 282 283 283 282 279 278 277 277 276 277 281 284 285 284 284 283 284 285 285 286 287 287 287 285 284 284 285 285
302 302 302 302 302 301 301 302 302 299 292 285 284 279 280 277 280 279 278 278 282 281 281 281 279 280 282 280 280 277 280 279 275 271 272 276 281 284 286 285 283 285 284 285 282 282 284 285 285 285 285 285 285 284
301 301 302 301 302 301 301 301 301 295 287 284 284 277 279 280 275 277 277 277 279 283 284 281 282 281 278 277 281 277 275 270 271 272 276 278 284 283 284 286 287 289 287 285 284 283 284 283 283 283 284 283 284 283
300 300 298 300 301 301 301 300 294 292 287 285 282 279 283 282 279 278 271 274 279 281 279 280 281 279 279 279 277 274 270 269 273 275 278 280 284 284 287 286 286 288 286 284 284 285 284 283 283 282 282 283 283 282
299 292 298 300 300 301 300 291 286 284 285 284 282 284 277 273 275 277 281 280 283 283 281 281 278 275 277 278 275 274 271 277 279 281 283 284 283 287 288 286 285 286 286 286 283 284 283 281 278 277 280 284 282 281
292 293 299 299 299 297 294 290 284 282 278 282 275 280 280 281 279 280 281 282 282 281 280 278 276 276 276 270 276 278 278 278 281 283 286 287 287 288 288 288 287 288 287 286 285 284 277 278 279 282 283 284 279 278
293 293 298 299 297 290 285 285 284 278 277 274 279 278 279 280 281 284 284 284 285 283 283 283 280 278 277 281 281 283 284 285 284 286 287 288 288 288 288 288 288 285 285 285 285 285 286 282 283 284 283 279 280 282
297 298 298 298 297 285 282 283 285 280 271 277 275 279 278 280 282 280 281 282 281 277 278 278 279 281 281 284 285 284 282 284 285 283 284 286 288 288 288 288 287 288 286 285 283 286 284 279 281 282 282 282 281 281
294 293 296 295 291 288 284 283 281 279 272 274 277 280 275 272 276 280 281 281 276 278 278 281 282 284 286 286 287 287 286 286 285 285 285 286 288 289 289 289 289 290 288 288 287 287 289 285 286 286 282 283 284 284
290 295 286 291 286 284 283 285 282 281 276 273 271 273 266 271 277 278 274 274 275 280 282 283 284 285 285 285 286 287 287 287 287 287 290 289 287 287 288 288 288 287 288 288 288 287 286 287 285 284 283 284 285 283
293 291 286 286 282 282 280 285 280 280 274 272 267 270 269 267 273 276 272 276 281 284 285 285 285 286 285 287 287 287 288 287 286 286 287 287 288 288 288 288 288 287 287 287 287 287 287 289 288 287 284 283 282 281
293 285 282 280 281 278 282 279 281 279 271 272 269 265 263 269 269 270 271 278 281 283 283 284 285 284 285 285 284 286 287 287 287 287 287 287 286 287 288 288 289 289 289 288 287 286 286 286 287 284 283 282 281 281
279 279 281 277 280 278 276 275 275 271 266 267 266 262 266 267 267 262 271 277 279 280 282 283 283 283 282 283 284 285 287 287 286 286 288 289 288 288 287 287 288 289 289 287 287 286 285 283 282 283 284 284 284 284
276 279 277 277 277 276 274 269 270 268 266 262 264 266 264 267 264 268 271 277 279 281 282 282 283 283 283 284 284 285 287 289 288 287 288 289 288 286 286 285 285 287 287 288 287 286 285 284 285 285 284 285 287 286
275 276 278 282 279 277 274 273 273 268 265 265 265 265 269 270 268 271 277 278 281 282 284 285 285 284 285 286 288 289 289 290 289 290 290 288 286 287 287 286 286 288 286 286 286 286 285 285 286 285 284 284 283 282
273 272 274 276 274 272 269 266 264 266 268 271 270 264 267 268 273 279 279 279 278 279 280 284 285 285 286 287 289 289 288 289 287 276 277 281 283 286 287 287 288 289 288 288 286 284 286 285 283 283 282 282 281 280
277 274 272 266 264 266 271 270 270 272 275 273 274 274 275 280 282 282 283 284 284 274 281 283 285 286 284 283 285 286 286 285 283 281 279 281 283 284 282 283 285 285 284 283 287 288 283 279 280 280 280 278 276 275
273 277 272 267 269 269 273 273 270 277 280 280 280 280 280 281 283 285 283 282 275 280 283 284 285 284 284 284 284 284 285 283 284 282 282 282 283 283 278 279 280 279 278 278 278 277 285 280 279 273 271 271 272 273
273 274 268 270 271 277 279 280 274 278 273 275 278 277 278 280 283 284 283 284 284 284 282 282 284 285 284 284 284 283 283 285 281 282 283 285 285 284 283 280 279 278 278 277 276 276 278 273 273 270 271 271 271 271
274 273 273 268 274 278 269 270 272 276 277 276 276 278 278 270 275 280 284 284 282 282 284 284 282 283 285 286 286 286 288 286 286 282 277 281 282 283 283 277 276 277 277 276 276 276 276 275 273 272 271 269 268 269
268 269 274 274 266 266 265 267 263 263 262 273 276 277 277 277 275 280 278 282 284 283 283 284 285 285 285 285 285 285 287 285 285 288 289 289 287 286 277 276 276 276 275 275 276 275 275 274 272 272 271 270 268 269